[[{"header":{"parameterUnit":"m.s-1","parameterCategory":1,"la1":30.6,"la2":29.2853,"lo1":-89.7004,"lo2":-87.6739,"dy":0.0162,"dx":0.0183,"nx":112,"ny":82,"refTime":"2024-04-12T06:00:00:Z","depth":0,"parameterNumber":2,"parameterNumberName":"U-component_of_WINDS"},"data":[0.0,0.0,0.0,0.0,0.0,0.0,0.0,0.0,0.0,0.0,0.0,0.0,0.0,0.0,0.0,0.0,0.0,0.0,0.0,0.0,0.0,0.0,0.0,0.0,0.0,0.0,0.0,0.0,0.0,0.0,0.0,0.0,0.0,0.0,0.0,0.0,0.0,0.0,0.0,0.0,0.0,0.0,0.0,0.0,0.0,0.0,0.0,0.0,0.0,0.0,0.0,0.0,0.0,0.0,0.0,0.0,0.0,0.0,0.0,0.0,0.0,0.0,0.0,0.0,0.0,0.0,0.0,0.0,0.0,0.0,0.0,0.0,0.0,0.0,0.0,0.0,0.0,0.0,0.0,0.0,0.0,0.0,0.0,0.0,0.0,0.0,0.0,0.0,0.0,0.0,0.0,4.0286,5.1119,5.8128,5.855,5.946,5.605,4.6667,0.0,0.0,0.0,0.0,0.0,0.0,0.0,0.0,0.0,0.0,0.0,0.0,0.0,0.0,0.0,0.0,0.0,0.0,0.0,0.0,0.0,0.0,0.0,0.0,0.0,0.0,0.0,0.0,0.0,0.0,0.0,0.0,0.0,0.0,0.0,0.0,0.0,0.0,0.0,0.0,0.0,0.0,0.0,0.0,0.0,0.0,0.0,0.0,0.0,0.0,0.0,0.0,0.0,0.0,0.0,0.0,0.0,0.0,0.0,0.0,0.0,0.0,0.0,0.0,0.0,0.0,0.0,0.0,0.0,0.0,0.0,0.0,0.0,0.0,0.0,0.0,0.0,0.0,0.0,0.0,0.0,0.0,0.0,0.0,0.0,0.0,0.0,0.0,0.0,0.0,0.0,0.0,0.0,0.0,0.0,0.0,0.0,0.0,0.0,0.0,0.0,0.0,0.0,0.0,3.7551,4.7465,5.3734,5.8187,6.0363,5.8159,5.466,4.9884,0.0,0.0,0.0,0.0,0.0,0.0,0.0,0.0,0.0,0.0,0.0,0.0,0.0,0.0,0.0,0.0,0.0,0.0,0.0,0.0,0.0,0.0,0.0,0.0,0.0,0.0,0.0,0.0,0.0,0.0,0.0,0.0,0.0,0.0,0.0,0.0,0.0,0.0,0.0,0.0,0.0,0.0,0.0,0.0,0.0,0.0,0.0,0.0,0.0,0.0,0.0,0.0,0.0,0.0,0.0,0.0,0.0,0.0,0.0,0.0,0.0,0.0,0.0,0.0,0.0,0.0,0.0,0.0,0.0,0.0,0.0,0.0,0.0,0.0,0.0,0.0,0.0,0.0,0.0,0.0,0.0,0.0,0.0,0.0,0.0,0.0,0.0,0.0,0.0,0.0,0.0,0.0,0.0,0.0,0.0,0.0,0.0,0.0,0.0,0.0,0.0,0.0,0.0,3.6728,4.2159,4.9881,5.491,5.8519,6.0825,5.9058,5.5904,5.1214,4.7435,0.0,0.0,0.0,0.0,0.0,0.0,0.0,0.0,0.0,0.0,0.0,0.0,0.0,0.0,0.0,0.0,0.0,0.0,0.0,0.0,0.0,0.0,0.0,0.0,0.0,0.0,0.0,0.0,0.0,0.0,0.0,0.0,0.0,0.0,0.0,0.0,0.0,0.0,0.0,0.0,0.0,0.0,0.0,0.0,0.0,0.0,0.0,0.0,0.0,0.0,0.0,0.0,0.0,0.0,0.0,0.0,0.0,0.0,0.0,0.0,0.0,0.0,0.0,0.0,0.0,0.0,0.0,0.0,0.0,0.0,0.0,0.0,0.0,0.0,0.0,0.0,0.0,0.0,0.0,0.0,0.0,0.0,0.0,0.0,0.0,0.0,0.0,0.0,0.0,0.0,0.0,0.0,0.0,0.0,0.0,0.0,0.0,0.0,0.0,0.0,0.0,0.0,4.134,4.5574,5.09,5.5029,5.8486,6.0982,5.9286,5.6285,5.2139,4.7647,0.0,0.0,0.0,0.0,0.0,0.0,0.0,0.0,0.0,0.0,0.0,0.0,0.0,0.0,0.0,0.0,0.0,0.0,0.0,0.0,0.0,0.0,0.0,0.0,0.0,0.0,0.0,0.0,0.0,0.0,0.0,0.0,0.0,0.0,0.0,0.0,0.0,0.0,0.0,0.0,0.0,0.0,0.0,0.0,0.0,0.0,0.0,0.0,0.0,0.0,0.0,0.0,0.0,0.0,0.0,0.0,0.0,0.0,0.0,0.0,0.0,0.0,0.0,0.0,0.0,0.0,0.0,0.0,0.0,0.0,0.0,0.0,0.0,0.0,0.0,0.0,0.0,0.0,0.0,0.0,0.0,0.0,0.0,0.0,0.0,0.0,0.0,0.0,0.0,0.0,0.0,0.0,0.0,0.0,0.0,0.0,0.0,0.0,0.0,0.0,0.0,0.0,4.2175,4.6262,5.1558,5.4072,5.719,6.1567,5.6822,5.347,5.3345,4.7228,0.0,0.0,0.0,0.0,0.0,0.0,0.0,0.0,0.0,0.0,0.0,0.0,0.0,0.0,0.0,0.0,0.0,0.0,0.0,0.0,0.0,0.0,0.0,0.0,0.0,0.0,0.0,0.0,0.0,0.0,0.0,0.0,0.0,0.0,0.0,0.0,0.0,0.0,0.0,0.0,0.0,0.0,0.0,0.0,0.0,0.0,0.0,0.0,0.0,0.0,0.0,0.0,0.0,0.0,0.0,0.0,0.0,0.0,0.0,0.0,0.0,0.0,0.0,0.0,0.0,0.0,0.0,0.0,0.0,0.0,0.0,0.0,0.0,0.0,0.0,0.0,0.0,0.0,0.0,0.0,0.0,0.0,0.0,0.0,0.0,0.0,0.0,0.0,0.0,0.0,0.0,0.0,0.0,0.0,0.0,0.0,0.0,0.0,0.0,0.0,0.0,0.0,4.288,4.6471,0.0,5.4188,5.7301,5.9809,5.7732,5.5247,5.2943,0.0,0.0,0.0,0.0,0.0,0.0,0.0,0.0,0.0,0.0,0.0,0.0,0.0,0.0,0.0,0.0,0.0,0.0,0.0,0.0,0.0,0.0,0.0,0.0,0.0,0.0,0.0,0.0,0.0,0.0,0.0,0.0,0.0,0.0,0.0,0.0,0.0,0.0,0.0,0.0,0.0,0.0,0.0,0.0,0.0,0.0,0.0,0.0,0.0,0.0,0.0,0.0,0.0,0.0,0.0,0.0,0.0,0.0,0.0,0.0,0.0,0.0,0.0,0.0,0.0,0.0,0.0,0.0,0.0,0.0,0.0,0.0,0.0,0.0,0.0,0.0,0.0,0.0,0.0,0.0,0.0,0.0,0.0,0.0,0.0,0.0,0.0,0.0,0.0,0.0,0.0,0.0,0.0,0.0,0.0,0.0,0.0,0.0,0.0,0.0,0.0,0.0,3.9948,4.291,4.6251,0.0,5.4114,5.7243,5.9282,5.738,5.509,5.247,0.0,0.0,0.0,0.0,0.0,0.0,0.0,0.0,0.0,0.0,0.0,0.0,0.0,0.0,0.0,0.0,0.0,0.0,0.0,0.0,0.0,0.0,0.0,0.0,0.0,0.0,0.0,0.0,0.0,0.0,0.0,0.0,0.0,0.0,0.0,0.0,0.0,0.0,0.0,0.0,0.0,0.0,0.0,0.0,0.0,0.0,0.0,0.0,0.0,0.0,0.0,0.0,0.0,0.0,0.0,0.0,0.0,0.0,0.0,0.0,0.0,0.0,0.0,0.0,0.0,0.0,0.0,0.0,0.0,0.0,0.0,0.0,0.0,0.0,0.0,0.0,0.0,0.0,0.0,0.0,0.0,0.0,0.0,0.0,0.0,0.0,0.0,0.0,0.0,0.0,0.0,0.0,0.0,0.0,0.0,0.0,0.0,0.0,0.0,0.0,0.0,0.0,3.9888,4.2132,4.5475,5.1296,5.3796,5.6536,6.0252,5.5094,5.1943,0.0,0.0,0.0,0.0,0.0,0.0,0.0,0.0,0.0,0.0,0.0,0.0,0.0,0.0,0.0,0.0,0.0,0.0,0.0,0.0,0.0,0.0,0.0,0.0,0.0,0.0,0.0,0.0,0.0,0.0,0.0,0.0,0.0,0.0,0.0,0.0,0.0,0.0,0.0,0.0,0.0,0.0,0.0,0.0,0.0,0.0,0.0,0.0,0.0,0.0,0.0,0.0,0.0,0.0,0.0,0.0,0.0,0.0,0.0,0.0,0.0,0.0,0.0,0.0,0.0,0.0,0.0,0.0,0.0,0.0,0.0,0.0,0.0,0.0,0.0,0.0,0.0,0.0,0.0,0.0,0.0,0.0,0.0,0.0,0.0,0.0,0.0,0.0,0.0,0.0,0.0,0.0,0.0,0.0,0.0,0.0,0.0,0.0,0.0,0.0,0.0,0.0,0.0,4.0636,4.2402,4.5374,5.0615,5.3395,5.5718,5.8165,5.5988,5.3648,5.1691,0.0,0.0,0.0,0.0,0.0,0.0,0.0,0.0,0.0,0.0,0.0,0.0,0.0,0.0,0.0,0.0,0.0,0.0,0.0,0.0,0.0,0.0,0.0,0.0,0.0,0.0,0.0,0.0,0.0,0.0,0.0,0.0,0.0,0.0,0.0,0.0,0.0,0.0,0.0,0.0,0.0,0.0,0.0,0.0,0.0,0.0,0.0,0.0,0.0,0.0,0.0,0.0,0.0,0.0,0.0,0.0,0.0,0.0,0.0,0.0,0.0,0.0,0.0,0.0,0.0,0.0,0.0,0.0,0.0,0.0,0.0,0.0,0.0,0.0,0.0,0.0,0.0,0.0,0.0,0.0,0.0,0.0,0.0,0.0,0.0,0.0,0.0,0.0,0.0,0.0,0.0,0.0,0.0,0.0,0.0,0.0,0.0,0.0,0.0,0.0,0.0,0.0,4.1324,4.2787,4.5462,5.0649,5.3614,5.5894,5.7476,5.6135,5.3991,5.0947,0.0,0.0,0.0,0.0,0.0,0.0,0.0,0.0,0.0,0.0,0.0,0.0,0.0,0.0,0.0,0.0,0.0,0.0,0.0,0.0,0.0,0.0,0.0,0.0,0.0,0.0,0.0,0.0,0.0,0.0,0.0,0.0,0.0,0.0,0.0,0.0,0.0,0.0,0.0,0.0,0.0,0.0,0.0,0.0,0.0,0.0,0.0,0.0,0.0,0.0,0.0,0.0,0.0,0.0,0.0,0.0,0.0,0.0,0.0,0.0,0.0,0.0,0.0,0.0,0.0,0.0,0.0,0.0,0.0,0.0,0.0,0.0,0.0,0.0,0.0,0.0,0.0,0.0,0.0,0.0,0.0,0.0,0.0,0.0,0.0,0.0,0.0,0.0,0.0,0.0,0.0,0.0,0.0,0.0,0.0,0.0,0.0,0.0,0.0,0.0,0.0,0.0,4.2076,4.3315,4.5813,5.1051,5.4215,5.6535,5.7707,5.5818,5.3315,5.0371,0.0,0.0,0.0,0.0,0.0,0.0,0.0,0.0,0.0,0.0,0.0,0.0,0.0,0.0,0.0,0.0,0.0,0.0,0.0,0.0,0.0,0.0,0.0,0.0,0.0,0.0,0.0,0.0,0.0,0.0,0.0,0.0,0.0,0.0,0.0,0.0,0.0,0.0,0.0,0.0,0.0,0.0,0.0,0.0,0.0,0.0,0.0,0.0,0.0,0.0,0.0,0.0,0.0,0.0,0.0,0.0,0.0,0.0,0.0,0.0,3.6806,0.0,0.0,0.0,0.0,0.0,0.0,0.0,0.0,0.0,0.0,0.0,0.0,0.0,0.0,0.0,0.0,0.0,0.0,0.0,0.0,0.0,0.0,0.0,0.0,0.0,0.0,0.0,0.0,0.0,0.0,0.0,0.0,0.0,0.0,0.0,0.0,0.0,0.0,0.0,0.0,0.0,4.3679,4.3603,4.5539,5.1974,5.3823,5.524,5.6896,5.5547,5.3551,5.1116,4.7665,0.0,0.0,0.0,0.0,0.0,0.0,0.0,0.0,0.0,0.0,0.0,0.0,0.0,0.0,0.0,0.0,0.0,0.0,0.0,0.0,0.0,0.0,0.0,0.0,0.0,0.0,0.0,0.0,0.0,0.0,0.0,0.0,0.0,0.0,0.0,0.0,0.0,0.0,0.0,0.0,0.0,0.0,0.0,0.0,0.0,0.0,0.0,0.0,0.0,0.0,0.0,0.0,0.0,0.0,0.0,0.0,0.0,0.0,0.0,0.0,3.9377,0.0,0.0,0.0,0.0,0.0,0.0,0.0,0.0,0.0,0.0,0.0,0.0,0.0,0.0,0.0,0.0,0.0,0.0,0.0,0.0,0.0,0.0,0.0,0.0,0.0,0.0,0.0,0.0,0.0,0.0,0.0,0.0,0.0,0.0,0.0,0.0,0.0,0.0,0.0,0.0,4.5362,4.4941,4.6306,5.1882,5.3911,5.5214,5.6187,5.5581,5.416,5.1894,4.8951,0.0,0.0,0.0,0.0,0.0,0.0,0.0,0.0,0.0,0.0,0.0,0.0,0.0,0.0,0.0,0.0,0.0,0.0,0.0,0.0,0.0,0.0,0.0,0.0,0.0,0.0,0.0,0.0,0.0,0.0,0.0,0.0,0.0,0.0,0.0,0.0,0.0,0.0,0.0,0.0,0.0,0.0,0.0,0.0,0.0,0.0,0.0,0.0,0.0,0.0,0.0,0.0,0.0,4.8184,4.8781,4.9965,4.9439,4.9409,4.9607,4.6422,4.3551,4.1287,0.0,0.0,0.0,0.0,0.0,0.0,0.0,0.0,0.0,0.0,0.0,0.0,0.0,0.0,0.0,0.0,0.0,0.0,0.0,0.0,0.0,0.0,0.0,0.0,0.0,4.391,4.3504,0.0,0.0,0.0,0.0,0.0,0.0,0.0,0.0,0.0,0.0,0.0,0.0,4.6936,4.6552,4.7439,5.1706,5.428,5.5716,5.5716,5.5818,5.4938,5.2672,5.0541,4.8443,0.0,0.0,0.0,0.0,0.0,0.0,0.0,0.0,0.0,0.0,0.0,0.0,0.0,0.0,0.0,0.0,0.0,0.0,0.0,0.0,0.0,0.0,0.0,0.0,0.0,0.0,0.0,0.0,0.0,0.0,0.0,0.0,3.5859,3.728,0.0,0.0,0.0,0.0,0.0,0.0,0.0,0.0,0.0,0.0,0.0,0.0,0.0,0.0,4.8944,5.189,5.278,5.1654,5.2975,5.3653,5.3788,5.1391,5.128,5.2981,5.5022,0.0,4.5295,4.6486,0.0,0.0,0.0,0.0,0.0,0.0,0.0,0.0,0.0,0.0,0.0,0.0,0.0,0.0,0.0,0.0,0.0,0.0,0.0,0.0,0.0,0.0,4.4215,4.5196,4.5906,4.6278,0.0,4.4519,4.3234,4.3132,4.2706,0.0,0.0,0.0,0.0,0.0,0.0,0.0,4.7896,4.7375,4.8296,5.2775,5.4768,5.5716,5.5716,5.6292,5.5716,5.3484,5.1826,5.0202,4.8646,4.7166,0.0,0.0,0.0,0.0,0.0,0.0,0.0,0.0,0.0,0.0,0.0,0.0,0.0,0.0,0.0,0.0,0.0,0.0,0.0,0.0,0.0,0.0,0.0,0.0,0.0,0.0,0.0,0.0,0.0,3.7211,3.9309,3.7483,4.0155,4.1201,0.0,0.0,0.0,0.0,0.0,0.0,0.0,0.0,0.0,4.7273,4.7028,4.7965,5.0326,5.1998,5.2861,5.3003,5.5329,5.7816,6.0216,5.9861,6.0112,6.1099,6.2514,6.18,5.9218,5.3741,4.9227,4.557,0.0,0.0,0.0,0.0,4.5241,4.6635,4.6965,4.6884,0.0,4.6937,0.0,0.0,0.0,0.0,0.0,0.0,0.0,0.0,0.0,0.0,4.7259,4.8003,4.9052,4.9796,4.9357,4.8511,4.7293,0.0,4.5737,4.6262,4.6904,0.0,0.0,0.0,0.0,0.0,4.9624,4.8852,4.9413,5.3078,5.4837,5.5716,5.5716,5.6765,5.6664,5.4871,5.3315,5.1826,5.0304,4.8815,4.7834,0.0,0.0,0.0,0.0,0.0,0.0,0.0,0.0,0.0,0.0,0.0,0.0,0.0,0.0,0.0,0.0,0.0,0.0,0.0,0.0,0.0,0.0,0.0,0.0,0.0,0.0,0.0,0.0,3.9543,4.2049,3.8362,4.2523,4.4384,0.0,0.0,0.0,0.0,0.0,0.0,4.621,4.8578,5.0548,5.2102,5.1052,5.1702,5.4103,5.4485,5.549,5.7338,5.9491,6.2494,6.6068,6.7335,6.813,6.848,6.869,6.9701,7.0511,6.143,5.5722,5.2418,5.0113,4.9236,4.946,4.9562,5.0693,5.2035,5.111,5.1049,5.1219,5.0712,0.0,4.8226,4.6522,0.0,0.0,0.0,0.0,4.594,4.6887,4.8477,5.0135,5.1251,5.2367,5.3044,5.2469,5.2367,5.142,0.0,4.8376,4.912,4.9492,0.0,0.0,0.0,0.0,4.7902,5.0845,5.0236,5.0642,5.3484,5.4938,5.5784,5.5987,5.7171,5.734,5.6089,5.4769,5.3382,5.186,5.0541,4.9526,4.8781,0.0,0.0,0.0,0.0,0.0,0.0,0.0,0.0,0.0,0.0,0.0,0.0,0.0,0.0,0.0,0.0,0.0,0.0,0.0,0.0,0.0,0.0,0.0,0.0,0.0,0.0,0.0,0.0,0.0,4.117,4.5602,0.0,0.0,0.0,0.0,4.5432,4.7428,4.9323,5.0811,5.3721,5.5093,5.4708,5.7353,6.047,6.3848,6.3915,6.5109,6.7557,6.7723,6.8499,6.9925,7.0703,7.1814,7.2936,7.2984,7.3247,7.3216,6.8258,6.3588,5.9731,6.1051,6.0356,5.8461,5.613,5.5925,5.6634,5.5904,5.5174,5.5009,5.7117,5.5742,5.283,5.0483,4.9306,0.0,0.0,4.8206,4.912,5.0574,5.1522,5.2706,5.4905,5.5513,5.5547,5.5513,5.548,5.4397,0.0,4.9424,4.9458,5.0879,0.0,4.9965,5.0067,4.9965,5.0202,5.1116,5.115,5.1995,5.4296,5.5243,5.5987,5.6697,5.7442,5.7577,5.6799,5.6021,5.4938,5.345,5.257,5.1792,5.1082,4.8825,0.0,0.0,0.0,0.0,0.0,0.0,0.0,0.0,0.0,0.0,0.0,0.0,0.0,0.0,0.0,0.0,0.0,0.0,0.0,0.0,0.0,0.0,0.0,0.0,0.0,0.0,0.0,0.0,4.7665,5.1826,0.0,0.0,5.0236,5.0507,4.9999,5.2469,5.4668,5.6156,5.7992,5.9856,6.1542,6.1418,6.3936,6.9392,7.1663,7.1926,7.0256,7.1561,7.2441,7.2877,7.3612,7.4132,7.4597,7.4819,7.4976,7.4975,7.3257,6.9842,6.5541,6.4133,6.3216,6.238,6.0954,6.1008,6.1651,6.1305,6.1023,6.0591,5.9479,5.7681,5.5738,5.4373,5.3408,5.2717,5.2408,5.2502,5.2763,5.3245,5.3957,5.4702,5.5513,5.6089,5.6292,5.5818,5.6089,5.5886,5.4059,5.2739,5.1894,5.1928,5.1319,5.098,5.1454,5.1116,5.1082,5.1826,5.1928,5.2604,5.4397,5.4837,5.548,5.6697,5.6596,5.6393,5.6122,5.4972,5.3822,5.2773,5.1995,5.1488,5.1217,5.0385,4.9224,0.0,0.0,0.0,0.0,0.0,0.0,0.0,0.0,0.0,0.0,0.0,0.0,0.0,0.0,0.0,0.0,0.0,0.0,0.0,0.0,0.0,0.0,0.0,0.0,0.0,0.0,5.2097,5.2334,5.6765,5.8524,5.531,5.4932,5.476,5.4256,5.6471,5.8799,6.0762,6.2173,6.3784,6.5732,6.553,6.8675,7.5414,7.7823,7.7238,7.3786,7.5105,7.5458,7.5113,7.5571,7.5925,7.6298,7.6515,7.6823,7.7129,7.6875,7.4905,7.1734,6.8551,6.7109,6.6825,6.6292,6.6631,6.7282,6.6682,6.6514,6.6053,6.2904,6.1042,5.9809,5.8713,5.7866,5.7135,5.6832,5.6895,5.706,5.704,5.7329,5.7634,5.7634,5.7759,5.778,5.7306,5.7374,5.734,5.6596,5.5243,5.3991,5.3213,5.2672,5.2503,5.301,5.2469,5.2232,5.2976,5.3078,5.345,5.4465,5.504,5.5649,5.6393,5.6224,5.5886,5.5378,5.4194,5.3281,5.2739,5.1995,5.1725,5.1995,5.1725,5.0553,4.8494,0.0,0.0,0.0,0.0,0.0,0.0,0.0,0.0,0.0,0.0,0.0,0.0,0.0,0.0,0.0,0.0,0.0,0.0,0.0,0.0,0.0,0.0,0.0,4.3842,5.071,5.5615,5.504,6.0148,6.2279,5.8626,5.827,5.8264,5.8264,5.9538,6.1616,6.4539,6.6201,6.7116,6.7209,7.0065,7.5067,8.2111,8.2189,8.0918,7.8497,7.8532,7.7957,7.6766,7.6802,7.7369,7.8239,7.8275,7.8831,7.9727,7.8919,7.8589,7.828,7.469,7.2864,7.2226,7.219,7.276,7.329,7.1838,7.1357,7.0914,6.7679,6.6125,6.5207,6.3631,6.2628,6.1875,6.1031,6.1351,6.1858,6.1796,6.1722,6.1537,6.1571,6.0789,6.019,6.0114,5.9539,5.8829,5.8084,5.6799,5.5547,5.4769,5.4634,5.4634,5.4634,5.4025,0.0,5.4532,5.4634,5.4634,5.4702,5.5953,5.6528,5.5852,5.6393,5.6122,5.4668,5.3856,5.3416,5.3382,5.2638,5.2638,5.345,5.2706,5.1589,5.0168,0.0,0.0,0.0,0.0,0.0,0.0,0.0,0.0,0.0,0.0,0.0,0.0,0.0,0.0,0.0,0.0,0.0,0.0,0.0,0.0,0.0,0.0,5.0304,5.0676,5.5006,5.9438,6.3024,6.6339,6.7929,6.6914,6.6608,6.6268,6.5478,6.6187,6.6995,6.7826,7.1723,7.4562,7.568,7.7956,8.0197,8.2215,8.1418,8.0117,7.8279,7.9674,7.9423,7.7883,7.9786,8.0229,7.9406,7.9991,8.0085,7.9727,7.8919,7.8589,7.8416,7.6801,7.6025,7.577,7.5188,7.4796,7.447,7.4031,7.3896,7.3648,7.2189,7.1143,7.0302,6.9279,6.8033,6.6785,6.5971,6.5466,6.4961,6.4401,6.3795,6.3154,6.251,6.1707,6.0899,6.0231,5.9945,5.9742,5.9539,5.8761,5.7543,5.5716,5.5412,5.5412,5.5412,5.5243,0.0,5.5378,5.5412,5.5818,5.6867,5.6867,5.6934,5.7273,5.6494,5.5378,5.389,5.257,5.1589,5.1048,5.0811,5.1319,5.2604,5.2401,5.2097,0.0,0.0,0.0,0.0,0.0,0.0,0.0,0.0,0.0,0.0,0.0,0.0,0.0,0.0,0.0,0.0,0.0,0.0,0.0,0.0,0.0,0.0,5.2198,5.6055,5.8693,6.0655,6.3396,6.7726,6.9925,7.1345,7.1988,7.1637,7.1131,7.0487,7.4292,7.6601,7.6596,7.8744,8.0441,8.1399,8.3214,8.4027,8.3545,8.2892,8.202,8.0899,8.1959,8.1922,8.0935,8.2501,8.27,0.0,8.2296,8.2039,8.1232,8.0424,7.991,0.0,0.0,0.0,0.0,0.0,7.6313,7.5873,7.5542,7.5395,7.5285,7.4478,7.3891,7.3377,7.2569,7.1651,7.0714,6.9544,6.8822,6.8291,6.7475,6.6612,6.5804,6.4928,6.4104,6.3102,6.1855,6.14,6.1047,6.0664,5.9979,0.0,5.778,5.6765,5.6156,5.6156,5.5919,5.5818,5.6122,5.6156,5.6393,5.6934,5.7137,5.707,5.6562,5.6021,0.0,0.0,0.0,5.1488,5.1048,5.1352,0.0,0.0,0.0,5.2807,5.2807,0.0,0.0,0.0,4.9293,4.8456,0.0,0.0,0.0,0.0,0.0,0.0,0.0,0.0,0.0,0.0,0.0,0.0,0.0,0.0,0.0,0.0,5.7043,6.1868,6.6962,6.7282,6.8046,7.0595,7.2314,7.3765,7.4864,7.4373,7.3912,7.3738,8.2294,8.7562,8.7588,0.0,0.0,0.0,0.0,8.6608,8.5704,8.5631,8.5374,8.4866,8.4976,8.4976,8.4866,8.4976,8.4903,8.4756,8.4756,8.4278,8.3471,8.2553,8.1672,8.0645,7.8369,7.7451,7.7451,7.7378,7.7304,7.7231,7.6497,0.0,0.0,7.5395,7.5139,7.4918,7.4184,7.3891,7.3523,7.2018,7.1578,7.1394,7.0587,6.9705,6.8873,6.8053,6.7139,6.6065,6.4426,6.3552,6.2781,6.2002,6.1019,6.0367,6.0367,5.853,5.707,5.707,5.6427,5.619,5.6833,5.6934,5.6697,5.6156,0.0,0.0,5.5141,5.5513,5.4871,5.257,5.2266,5.2198,5.2198,5.2942,5.3382,5.3382,5.345,5.3518,5.3518,5.3585,5.3585,5.3484,5.136,5.0317,0.0,0.0,0.0,0.0,0.0,0.0,0.0,0.0,0.0,0.0,0.0,0.0,0.0,0.0,0.0,5.7002,6.2713,6.8042,7.2078,7.4356,7.5428,7.5172,7.7243,7.8411,7.746,7.7223,7.6636,7.5422,8.498,9.0902,9.0871,8.8911,0.0,8.9087,8.7732,8.7219,8.7619,8.6995,8.6628,8.6554,0.0,0.0,8.6554,8.7215,8.6811,8.5563,8.5563,8.5123,8.4278,8.281,8.1342,7.991,7.8772,7.8369,7.8259,7.7561,7.7304,7.7304,7.7157,7.7084,7.7047,7.69,7.6423,7.5836,7.5689,7.5175,0.0,7.3523,7.323,7.3046,7.2239,7.1427,7.061,6.973,6.8904,6.7984,6.6911,6.607,6.5473,6.5267,6.3554,6.2154,6.2154,6.0125,5.8592,5.8592,5.7949,5.7509,5.7645,5.7679,5.7848,5.8321,5.8626,5.8389,5.734,5.6833,5.5649,5.3416,5.2097,5.142,5.142,5.2131,5.2536,5.2536,5.3179,5.3518,5.3518,5.4093,5.4093,5.3518,5.3652,5.3685,0.0,0.0,0.0,0.0,0.0,0.0,0.0,0.0,0.0,0.0,0.0,4.7902,4.9796,0.0,5.8201,6.2398,6.7376,7.2091,7.6035,7.923,8.0535,7.9092,8.0094,8.0764,8.0329,7.995,7.9998,8.0775,8.7667,9.1574,9.107,8.9676,8.9231,8.9745,8.872,8.839,8.8793,8.8426,8.8206,8.8206,8.861,8.861,8.8206,8.8206,8.7766,8.6958,8.6591,8.593,8.5123,8.3911,8.27,8.1525,8.0718,7.9653,7.8589,7.8552,7.8038,7.7378,7.7818,7.7671,7.7304,7.7304,7.7047,7.6717,7.6717,7.6423,7.5946,7.5139,7.4882,7.4735,7.3927,7.312,7.227,7.1441,7.0629,6.9721,6.8407,6.7783,6.7368,6.6869,6.586,6.4848,6.4419,6.2664,6.095,5.9749,5.9235,5.8998,5.8998,5.8998,5.9133,5.9505,5.9573,5.9099,5.7983,5.6528,5.5243,5.4126,5.2976,5.2367,5.2367,5.2706,5.2909,5.2909,5.3653,5.4059,5.4059,5.4803,5.4972,5.4634,5.5344,5.531,0.0,0.0,0.0,0.0,0.0,0.0,0.0,0.0,4.6684,4.8037,5.0676,5.3518,5.6089,5.9742,6.3621,6.753,7.1628,7.5649,7.9151,8.267,8.4344,8.3208,8.2986,8.3004,8.3401,8.314,8.412,8.6908,8.9984,9.1468,9.0519,9.0078,8.9895,8.9895,8.9895,8.9895,8.9895,8.9895,8.9895,8.9895,8.9895,8.9895,8.9858,8.905,8.8683,8.861,8.7655,8.6701,8.5747,8.5086,8.4352,8.3581,8.292,8.1269,7.9323,7.9653,7.8846,7.7671,7.8369,7.8038,7.7304,7.7304,7.7304,7.7304,7.7304,7.7304,7.7157,7.635,7.6093,7.5909,7.5139,7.4441,7.378,7.312,7.2349,7.1406,7.0048,6.9466,6.9028,6.832,6.7914,6.7404,6.667,6.5224,6.3358,6.0909,6.0419,6.0283,6.0114,6.025,6.0283,6.0114,6.0114,5.9573,5.822,5.6325,5.5175,5.504,5.4329,5.3923,5.3923,5.3923,5.3923,5.3923,5.4499,5.4803,5.4803,5.5547,5.5852,5.575,5.6596,5.6292,4.5131,4.2791,4.1948,4.4553,4.4756,4.5365,0.0,0.0,5.2739,5.3551,5.6089,5.8457,5.9438,6.3226,6.7331,7.0787,7.5986,7.9933,8.1327,8.4537,8.7154,8.8363,8.8071,8.745,8.6609,8.7705,8.924,9.1033,9.1546,9.173,9.162,9.1546,9.1546,9.1546,9.1546,9.1546,9.1546,9.1546,9.1546,9.1546,9.1546,9.1546,9.151,9.0702,9.0335,9.0262,8.872,8.7215,8.5783,8.571,8.5196,8.4462,8.4389,8.3287,8.1636,8.0277,7.9213,7.8479,7.8552,7.8038,7.7304,7.7304,7.7304,7.7304,7.7304,7.7304,7.7157,7.635,7.6093,7.5909,7.5139,7.4845,7.4735,7.4661,7.4037,7.3413,7.3186,7.205,7.0967,7.0909,6.9624,6.8625,6.8462,6.6988,6.491,6.2469,6.1603,6.0926,6.0182,6.0723,6.0892,6.0182,6.0114,5.9776,5.8964,5.8051,5.7239,5.6596,5.5886,5.548,5.548,5.548,5.548,5.548,5.5547,5.5581,5.5581,5.6325,5.6359,5.575,5.7137,5.734,4.6742,4.5072,0.0,0.0,4.9816,5.2144,5.5399,5.7709,5.9494,6.0618,6.2784,6.4725,6.5827,6.7868,7.0932,0.0,7.962,8.2922,8.5191,8.7447,8.8683,8.8062,8.8613,8.9236,8.975,9.0408,9.1069,9.1766,9.1803,9.1839,9.1803,9.1803,9.1803,9.1803,9.1803,9.1803,9.1803,9.1803,9.1803,9.1803,9.1803,9.1803,9.1767,9.0959,9.0335,8.9858,8.872,8.7802,8.7142,8.6701,8.6004,8.5306,8.5306,8.4609,8.3471,8.2333,8.0791,7.9286,7.9286,7.8736,7.7965,7.7488,7.7304,7.7304,7.7304,7.7304,7.7268,7.69,7.6827,7.6717,7.6387,7.5946,7.5616,7.5616,7.4992,7.4404,7.4404,7.3891,7.3266,7.2789,7.2153,7.1357,7.0319,6.9173,6.7796,6.6206,6.4461,6.3091,6.2753,6.2651,6.2313,6.1501,6.1061,6.0689,6.0385,5.9235,5.8423,5.8118,5.7002,5.6359,5.6359,5.5953,5.5716,5.5716,5.6122,5.6359,5.6359,5.707,5.7273,5.7002,5.7611,5.7712,4.8342,0.0,0.0,5.1844,5.5275,5.8788,6.1628,6.4207,6.6494,6.8208,6.9631,7.086,7.1839,7.3402,0.0,7.9963,8.2857,8.555,8.8358,8.9087,8.8246,8.5394,8.5252,8.6749,9.0115,9.0996,9.1473,9.1767,9.1803,9.1803,9.1803,9.1803,9.1803,9.1803,9.1803,9.1803,9.1803,9.1803,9.1803,9.1803,9.1803,9.1803,9.1767,9.1216,9.0482,8.9711,8.9124,8.861,8.8133,8.7582,8.6848,8.6114,8.6114,8.5637,8.4866,8.4278,8.2517,8.0424,8.0204,7.947,7.8516,7.7855,7.7524,7.7304,7.7304,7.7304,7.7304,7.7304,7.7304,7.7304,7.7304,7.69,7.6423,7.6423,7.5836,7.5249,7.5249,7.5065,7.4735,7.4147,7.4037,7.3566,7.2107,7.1142,7.0354,6.9444,6.7392,6.5754,6.5062,6.4267,6.3531,6.2787,6.2245,6.1839,6.1637,6.0385,5.9641,5.9641,5.8423,5.7712,5.7712,5.7205,5.6833,5.663,5.7137,5.7306,5.7103,5.7645,5.7881,5.7881,5.8084,5.8186,0.0,0.0,5.4314,5.7377,6.0665,6.4081,6.7807,7.0948,7.3792,7.6102,7.6405,7.6278,7.634,7.9959,8.3093,8.329,8.5752,8.8273,8.9934,8.8393,8.5361,8.0575,7.7248,7.8426,0.0,8.9014,9.063,9.173,9.1803,9.1803,9.1803,9.1803,9.1803,9.1803,9.1803,9.1803,9.1803,9.1803,9.1803,9.1803,9.1803,9.1803,9.1803,9.1767,9.1326,9.0555,9.0555,8.9638,8.8206,8.8169,8.7692,8.6958,8.6958,8.6481,8.5747,8.5747,8.4205,8.2003,8.1232,7.9947,7.8589,7.8552,7.8002,7.7304,7.7304,7.7304,7.7304,7.7304,7.7304,7.7304,7.7304,7.7304,7.7268,7.7268,7.6644,7.6056,7.6056,7.5469,7.4918,7.4882,7.4882,7.4625,7.378,7.286,7.1961,7.1167,7.0193,6.8643,6.6294,6.5118,6.4275,6.3565,6.3463,6.3159,6.2415,6.167,6.1231,6.1231,6.0452,6.0013,6.0013,5.9979,5.9641,5.893,5.893,5.8592,5.7848,5.7881,5.7881,5.7915,5.8626,5.8998,0.0,0.0,6.0287,6.4984,6.859,7.2012,7.6053,7.8135,7.9371,7.9558,7.9213,7.7991,7.539,7.7019,7.9684,8.2206,8.526,8.7997,9.0153,9.0298,8.7952,8.2068,8.1672,0.0,0.0,0.0,0.0,9.0483,9.0922,9.1253,9.1767,9.1803,9.1803,9.1803,9.1803,9.1803,9.1803,9.1803,9.1803,9.1803,9.1803,9.1803,9.1803,9.1803,9.1657,9.1363,9.0849,9.0298,8.9748,8.9234,8.8536,8.7802,8.7802,8.7288,8.6518,8.6004,8.4939,8.3618,8.226,8.1452,8.0791,7.9727,7.8846,7.8185,7.8185,7.7781,7.7304,7.7304,7.7304,7.7304,7.7304,7.7304,7.7304,7.7304,7.7121,7.69,7.69,7.668,7.635,7.5799,7.5689,7.5432,7.4625,7.4202,7.3687,7.285,7.0381,6.8224,6.6913,6.5949,6.5053,6.4309,6.4241,6.414,6.3869,6.3193,6.2787,6.2787,6.1603,6.0892,6.0892,6.0385,5.9979,5.9742,5.9742,5.9607,5.937,5.937,5.937,5.937,5.9607,5.9742,0.0,6.2907,6.721,7.1998,7.5579,7.8699,8.1636,8.27,8.3096,8.3153,8.0349,7.6818,7.3362,7.2408,7.3732,7.8565,8.1652,8.5013,8.916,8.8717,8.6733,8.3434,8.303,0.0,0.0,0.0,0.0,8.953,9.0372,9.0959,9.1767,9.1803,9.1803,9.1803,9.1803,9.1803,9.1803,9.1803,9.1803,9.1803,9.1803,9.1803,9.1803,9.1803,9.1803,9.1767,9.1253,9.0702,9.0152,8.9638,8.8757,8.7766,8.7766,8.7472,8.6958,8.6407,8.571,8.4792,8.3177,8.226,8.1599,8.0571,7.969,7.9029,7.9029,7.8442,7.7781,7.7781,7.7561,7.7304,7.7304,7.7304,7.7304,7.7304,7.7304,7.7304,7.7304,7.7304,7.7157,7.6644,7.6533,7.6276,7.5469,7.5102,7.4702,7.4097,7.1547,6.9231,6.8135,6.6907,6.5797,6.5053,6.4986,6.4884,6.4613,6.4174,6.3903,6.3903,6.2753,6.211,6.211,6.1332,6.0791,6.052,6.052,6.0385,6.0114,6.0114,6.0114,6.0114,6.0385,6.052,6.44,6.9894,7.4845,7.8148,8.1269,8.3728,8.4535,8.4719,8.5073,8.6213,7.9742,7.3068,0.0,0.0,6.6717,7.3106,7.6093,8.0131,8.7325,8.4425,8.2333,0.0,0.0,0.0,0.0,0.0,0.0,8.9014,0.0,9.0812,9.173,9.1803,9.1803,9.1803,9.1803,9.1803,9.1803,9.1803,9.1803,9.1803,9.1803,9.1803,9.1803,9.1803,9.1803,9.1803,9.1803,9.0922,8.9491,8.9491,8.8536,8.7068,8.7068,8.7031,8.6995,8.6995,8.6481,8.5527,8.4058,8.248,8.1122,8.1085,8.0534,7.9837,7.9837,7.925,7.8589,7.8589,7.7965,7.7304,7.7304,7.7304,7.7304,7.7304,7.7304,7.7304,7.7304,7.7304,7.7304,7.7304,7.7304,7.7084,7.6276,7.5542,7.5028,7.5028,7.3488,7.1652,6.9791,6.8015,6.6625,6.5831,6.5764,6.5459,6.4783,6.4681,6.4647,6.4647,6.3971,6.3565,6.3531,6.2854,6.2144,6.1366,6.14,6.1028,6.0216,6.0216,6.0216,6.025,6.0994,6.1366,6.9909,7.5275,7.991,8.3141,8.4572,8.5416,8.6224,8.6391,8.5005,7.9915,7.472,6.9779,0.0,0.0,0.0,7.3846,7.871,0.0,8.9234,8.9454,0.0,0.0,0.0,8.5306,8.4095,8.4903,0.0,0.0,8.85,8.905,9.1657,9.1803,9.1803,9.1803,9.1803,9.1803,9.1803,9.1803,9.1803,9.1803,9.1803,9.1803,9.1803,9.1803,9.1803,9.1803,9.1803,9.1216,9.0298,9.0298,8.9344,8.7876,8.7876,8.7545,8.6995,8.6995,8.6114,8.4939,8.5123,8.4132,8.27,8.2076,8.1342,8.0681,8.0681,7.9727,7.8589,7.8589,7.7965,7.7304,7.7304,7.7304,7.7304,7.7304,7.7304,7.7304,7.7304,7.7304,7.7304,7.7304,7.7304,7.7268,7.7047,7.6827,7.6717,7.6717,7.456,7.2369,7.0764,6.8983,6.7513,6.6625,6.6542,6.644,6.6271,6.573,6.5425,6.5425,6.4715,6.4072,6.3531,6.3869,6.3429,6.2144,6.2651,6.2584,6.1806,6.1806,6.1806,6.1806,6.2009,6.211,7.6016,8.0755,8.4242,8.6738,8.7105,8.699,8.7593,8.5124,8.0934,7.4727,6.9174,0.0,0.0,0.0,0.0,0.0,0.0,0.0,8.905,8.9271,8.8463,0.0,8.7766,0.0,8.6297,8.6701,8.7839,0.0,8.9087,8.9528,9.1693,9.1803,9.1803,9.1803,9.1803,9.1803,9.1803,9.217,9.217,9.1803,9.1803,9.1803,9.1803,9.1803,9.1803,9.1803,0.0,9.1326,9.0592,9.0225,8.9344,8.8169,8.7802,8.7399,8.6958,8.6591,8.5673,8.4609,8.4719,8.3911,8.2847,8.2774,8.2186,8.1525,8.1525,8.0388,7.914,7.914,7.8259,7.7304,7.7304,7.7304,7.7304,7.7304,7.7304,7.7304,7.7304,7.7304,7.7304,7.7304,7.7304,7.7304,7.7304,7.7304,7.7304,7.7304,7.5676,7.3862,7.2119,6.9915,6.8364,6.7912,6.7489,6.7286,6.7286,6.6609,6.617,6.617,6.5493,6.4884,6.4478,6.4546,6.4208,6.3362,6.3768,6.3632,6.2888,6.3193,6.3024,6.2381,6.2719,6.2719,8.1855,8.5637,8.7839,8.9234,8.8793,8.7941,8.7489,8.1402,7.4478,6.9757,0.0,5.7319,5.3845,0.0,5.9735,6.8019,0.0,7.7745,8.839,8.7399,8.6921,9.0665,8.9234,8.8243,8.894,8.839,8.8793,9.0776,9.0922,9.1179,9.1767,9.1803,9.184,9.195,9.184,9.1913,9.2134,9.2794,9.2721,9.195,9.195,9.1913,9.1803,9.1803,9.1803,9.1803,0.0,0.0,9.0555,8.9858,8.9014,8.8133,8.7435,8.7105,8.6921,8.6077,8.527,8.4499,8.3801,8.2957,8.2333,8.303,8.2774,8.2186,8.2186,8.1085,7.98,7.991,7.8699,7.7341,7.7451,7.7414,7.7304,7.7304,7.7304,7.7304,7.7304,7.7304,7.7304,7.7304,7.7304,7.7304,7.7304,7.7304,7.7304,7.7304,7.6558,7.5378,7.3614,7.1099,6.939,6.9113,6.847,6.803,6.7895,6.732,6.6914,6.6812,6.6203,6.5797,6.5696,6.5189,6.4816,6.4613,6.4681,6.4377,6.3666,6.4309,6.3903,6.255,6.3193,6.3125,8.5101,8.8133,9.0041,9.0335,8.8793,8.6151,8.2206,7.4445,0.0,0.0,0.0,5.3122,5.3193,5.5291,0.0,7.0218,0.0,0.0,0.0,0.0,9.1326,0.0,0.0,0.0,0.0,0.0,0.0,0.0,0.0,9.2427,9.184,9.1803,9.2134,9.2868,9.217,9.2464,9.3859,9.3345,9.3015,9.2868,9.2868,9.2501,9.1803,9.1803,9.1803,9.1803,9.1803,0.0,9.0592,9.0445,8.9528,8.8206,8.8059,8.7582,8.6921,8.6077,8.527,8.4572,8.4462,8.3434,8.2223,8.237,8.2296,8.2186,8.2186,8.1085,7.991,8.0608,7.914,7.7488,7.8185,7.7855,7.7304,7.7304,7.7304,7.7304,7.7304,7.7304,7.7304,7.7304,7.7304,7.7304,7.7304,7.7304,7.7304,7.7304,7.6454,7.5433,7.4283,7.2594,7.0863,6.9252,6.8977,6.8605,6.7963,6.7793,6.7455,6.6846,6.6677,6.6339,6.573,6.617,6.5865,6.4613,6.5189,6.5155,6.441,6.4546,6.4174,6.3328,6.3463,6.3125,8.7628,9.0041,9.1106,9.0702,8.7839,8.3654,7.8063,0.0,0.0,0.0,0.0,5.0388,5.0875,0.0,0.0,0.0,0.0,0.0,0.0,0.0,0.0,0.0,0.0,0.0,0.0,0.0,0.0,0.0,0.0,9.2721,9.184,9.2244,9.2684,9.3088,9.3529,9.3896,9.4299,9.3932,9.3529,9.3088,9.2648,9.2207,9.1803,9.1803,9.1803,9.1803,9.1803,0.0,9.1179,9.0776,8.9895,8.8793,8.8353,8.7729,8.6848,8.5637,8.4939,8.4499,8.3654,8.2847,8.2186,8.2186,8.2186,8.2186,8.2186,8.1379,8.0498,8.0901,7.9837,7.8589,7.8589,7.8295,7.7855,7.7414,7.7304,7.7304,7.7304,7.7304,7.7304,7.7304,7.7304,7.7304,7.7304,7.7304,7.7304,7.7304,7.6856,7.6027,7.446,7.3673,7.2485,7.0493,6.9891,6.9519,6.9113,6.8741,6.8199,6.7421,6.7387,6.7218,6.6846,6.6812,6.6643,6.6305,6.6305,6.5899,6.5155,6.5561,6.5189,6.4106,6.4478,6.4241,8.9349,9.1179,9.162,9.0812,8.6591,8.0975,7.4669,6.7357,0.0,0.0,4.9328,4.8635,4.8884,0.0,0.0,0.0,0.0,0.0,0.0,0.0,0.0,0.0,0.0,0.0,0.0,0.0,0.0,0.0,0.0,0.0,9.184,9.2464,9.2905,9.3088,9.4153,9.4593,9.4299,9.4116,9.3712,9.3088,9.2391,9.1987,9.1803,9.1803,9.1803,9.1803,9.1803,0.0,0.0,9.0922,9.0152,8.9344,8.85,8.7729,8.6848,8.538,8.4756,8.4389,8.2957,8.2333,8.2186,8.2186,8.2186,8.215,8.2003,8.1489,8.1012,8.1012,8.0424,7.9653,7.9029,7.8736,7.8369,7.7524,7.7304,7.7304,7.7304,7.7304,7.7304,7.7304,7.7451,7.7524,7.7341,7.7451,7.7524,7.7341,7.7304,7.6563,7.4535,7.431,7.3492,7.1546,7.077,7.0364,7.0195,6.9654,6.9011,6.8199,6.8166,6.8166,6.8166,6.7455,6.7387,6.8132,6.7286,6.6609,6.617,6.6609,6.6136,6.485,6.5425,6.529,8.9895,9.1179,9.162,9.0812,8.5306,7.8405,7.1908,0.0,0.0,5.1076,4.8785,4.8067,4.8785,4.8661,0.0,0.0,6.1009,6.6187,0.0,0.0,0.0,0.0,0.0,0.0,0.0,0.0,0.0,0.0,0.0,0.0,9.184,9.1877,9.2281,9.3088,9.2464,9.2831,9.4263,9.3565,9.3161,9.3088,9.3015,9.2574,9.1803,9.1803,9.1803,9.1803,9.1803,0.0,0.0,9.0922,9.0152,8.9344,8.85,8.7729,8.6885,8.6004,8.5233,8.4462,8.3618,8.281,8.2186,8.2186,8.2186,8.2039,8.1342,8.1048,8.1012,8.1012,8.0424,7.9764,7.969,7.914,7.8369,7.7524,7.7304,7.7304,7.7304,7.7304,7.7304,7.7304,7.7965,7.8222,7.7451,7.7965,7.8222,7.7451,7.7304,7.6563,7.4535,7.431,7.3492,7.1546,7.1244,7.0939,7.0263,7.0128,6.9755,6.9045,6.8977,6.8977,6.8977,6.8233,6.8166,6.8977,6.7557,6.7117,6.7692,6.7117,6.6406,6.5595,6.5662,6.529,8.7732,9.0445,9.1473,9.0225,8.3324,7.5542,7.0513,0.0,5.3448,4.9388,4.704,4.5875,4.6254,4.5996,4.7195,5.1564,5.2924,5.713,0.0,0.0,0.0,0.0,0.0,0.0,0.0,0.0,0.0,0.0,0.0,0.0,9.2648,9.2574,9.2758,9.3088,9.3235,9.3639,9.4299,9.3492,9.3088,9.3088,9.2574,9.2134,9.1803,9.1803,9.1803,9.1803,9.1803,0.0,0.0,9.0922,9.0152,8.9344,8.85,8.7729,8.6921,8.6077,8.527,8.4499,8.3691,8.2884,8.2186,8.2186,8.2186,8.215,8.1819,8.1379,8.1122,8.1599,8.1489,8.1122,8.0645,7.958,7.8369,7.7524,7.7304,7.7304,7.7304,7.7708,7.7928,7.7414,7.8405,7.8883,7.7561,7.8038,7.8295,7.7451,7.7304,7.6793,7.5369,7.4684,7.3807,7.2364,7.1688,7.1176,7.0906,7.0872,7.0534,6.9789,6.9755,6.9755,6.9755,6.9011,6.8977,6.9755,6.8267,6.7624,6.7895,6.7184,6.6643,6.6373,6.6373,6.6203,8.4012,8.8175,9.0445,8.9344,8.1562,7.3135,0.0,5.959,5.0653,4.7378,4.5316,4.4147,4.4224,4.4175,4.4665,4.6413,4.7647,5.1275,5.9526,0.0,0.0,0.0,0.0,0.0,0.0,0.0,0.0,0.0,0.0,0.0,0.0,9.3235,9.2978,9.2721,9.3272,9.3565,9.3565,9.3015,9.2721,9.2721,9.2097,9.1803,9.1803,9.1803,9.1803,9.1803,0.0,0.0,0.0,9.0665,8.9931,8.9307,8.8243,8.7509,8.6921,8.6371,8.549,8.4535,8.3948,8.3067,8.2186,8.2186,8.2039,8.1893,8.2113,8.1782,8.1415,8.1746,8.1672,8.1305,8.0498,7.925,7.8075,7.7451,7.7304,7.7304,7.7304,7.8002,7.8405,7.7818,7.9029,7.969,7.8295,7.8772,7.9029,7.8185,7.7855,7.7322,7.6285,7.5046,7.3928,7.288,7.1917,7.1312,7.1312,7.1312,7.1075,7.0567,7.0534,7.0534,7.0534,6.9823,6.9755,7.05,6.9011,6.8267,6.8267,6.7489,6.7151,6.7151,6.7151,6.7252,7.8586,8.3983,8.8243,8.8206,8.0314,7.1537,0.0,5.8089,4.9018,4.5212,4.3905,4.3403,4.3436,4.3436,4.415,4.6307,4.7368,5.091,5.9492,0.0,0.0,0.0,0.0,0.0,0.0,0.0,0.0,0.0,0.0,0.0,0.0,9.3529,9.2721,9.184,9.1803,9.184,9.184,9.1803,9.1803,9.1803,9.1803,9.1803,9.1803,9.1803,9.1803,0.0,0.0,0.0,0.0,9.0078,8.9417,8.9271,8.7655,8.7031,8.6995,8.6995,8.5967,8.4609,8.4609,8.3544,8.2186,8.2186,8.1672,8.1158,8.1966,8.2186,8.2003,8.1232,8.0424,7.9617,7.8809,7.7965,7.7341,7.7304,7.7304,7.7304,7.7304,7.8002,7.8589,7.8589,7.9874,8.0718,7.991,8.0424,8.0718,7.9874,7.9103,7.8163,7.7116,7.5367,7.3928,7.288,7.1917,7.1312,7.1312,7.1312,7.1312,7.1312,7.1312,7.1312,7.1312,7.0567,7.0534,7.1278,6.9857,6.9079,6.9079,6.8267,6.7895,6.7895,6.7895,6.8335,6.8005,7.2907,7.6409,7.5275,6.9596,6.335,6.0062,5.3261,4.6883,4.4202,4.2706,4.2049,4.2557,4.2658,4.341,4.5636,4.7472,5.006,5.4349,0.0,0.0,0.0,0.0,0.0,0.0,0.0,0.0,0.0,0.0,0.0,0.0,9.4042,9.3272,9.184,9.1803,9.1803,9.1803,9.1803,9.1803,9.1803,9.1803,9.1803,9.1803,9.1803,0.0,0.0,0.0,0.0,0.0,8.9234,8.8573,8.8463,8.7435,8.6995,8.6921,8.6371,8.5527,8.4535,8.3985,8.3104,8.2186,8.2186,8.2039,8.1856,8.2113,8.1415,8.0498,8.0241,7.9984,7.958,7.8809,7.8405,7.8038,7.7451,7.7781,7.8185,7.8185,7.9286,8.0094,7.9507,8.0718,8.1379,8.0021,8.0461,8.0718,7.991,7.958,7.9113,7.8171,7.6338,7.4835,7.392,7.2279,7.1312,7.1312,7.1312,7.1312,7.1312,7.1312,7.1312,7.1312,7.1075,7.1075,7.1312,7.0331,6.9857,6.9857,6.9079,6.8707,6.8707,6.8707,6.8876,0.0,6.4347,6.8232,6.7741,6.3137,5.8166,5.6061,5.0481,4.5137,4.294,4.1784,4.1339,4.1813,4.188,4.2523,4.4519,4.593,4.8093,5.1812,0.0,0.0,0.0,0.0,0.0,0.0,0.0,0.0,0.0,0.0,0.0,0.0,9.3859,9.3235,9.184,9.1803,9.1803,9.1803,9.1803,9.1803,9.1803,9.1803,9.1803,9.1803,9.1803,0.0,0.0,0.0,0.0,0.0,8.8757,8.8206,8.8133,8.7325,8.6995,8.6921,8.6077,8.527,8.4499,8.3691,8.2884,8.2186,8.2186,8.2003,8.1636,8.1012,8.0571,8.0167,7.9874,7.98,7.958,7.8809,7.8809,7.8919,7.8369,7.8662,7.9029,7.9029,8.0094,8.0865,8.0351,8.1305,8.1856,8.0865,8.1122,8.1269,8.0755,8.0424,8.0057,7.958,7.7163,7.5266,7.4806,7.3053,7.1688,7.1312,7.1312,7.1312,7.1312,7.1312,7.1312,7.1312,7.1312,7.1312,7.1312,7.0838,7.0466,7.0195,6.9722,6.9519,6.9519,6.9789,6.9925,0.0,5.7219,6.2186,6.3747,5.9559,5.4891,5.4258,4.9027,0.0,0.0,0.0,4.1136,4.1204,4.1238,4.1779,4.3335,4.3673,4.5774,5.1723,0.0,0.0,0.0,0.0,0.0,0.0,0.0,0.0,0.0,0.0,0.0,0.0,9.3088,9.2721,9.184,9.1803,9.1803,9.1803,9.1803,9.1803,9.1803,9.173,9.1693,9.1693,9.1657,9.1216,0.0,0.0,0.0,0.0,8.8463,8.8096,8.8059,8.7288,8.6995,8.6811,8.6004,8.5196,8.4389,8.3618,8.2847,8.2186,8.2186,8.1672,8.0718,7.9213,7.9727,8.0681,7.9837,7.9617,7.9433,7.8699,7.9103,7.969,7.969,7.98,7.9874,7.9874,8.0534,8.1085,8.1085,8.1672,8.2186,8.2186,8.2186,8.2186,8.2186,8.1562,8.1048,8.1012,7.7883,7.5667,7.5555,7.3902,7.2398,7.1401,7.1401,7.1401,7.1312,7.1312,7.1312,7.1312,7.1312,7.1312,7.1312,7.1312,7.0973,7.0263,7.0263,7.0263,7.0297,7.0973,7.1312,3.9324,0.0,4.8882,4.9162,4.8079,4.6646,0.0,0.0,0.0,0.0,0.0,0.0,0.0,4.1644,4.2726,4.4823,4.6109,4.8323,5.2696,0.0,0.0,0.0,0.0,0.0,0.0,0.0,0.0,0.0,0.0,0.0,0.0,9.3088,9.2721,9.184,9.1803,9.1803,9.1803,9.1803,9.1803,9.1803,9.1179,9.0886,9.0849,9.0262,8.9858,0.0,0.0,0.0,8.8426,8.7619,8.7288,8.7252,8.7068,8.6628,8.5967,8.5196,8.4389,8.3581,8.2774,8.237,8.2186,8.2186,8.1672,8.0938,8.0571,7.9837,7.8993,7.8148,7.7892,7.7855,7.7671,7.8259,7.8883,7.8883,7.9837,8.0718,8.0718,8.1342,8.1929,8.1929,8.2076,8.2186,8.2186,8.2186,8.2186,8.2186,8.2039,8.1709,8.1085,7.8985,7.7019,7.5667,7.4391,7.2983,7.1435,7.1969,7.2142,7.1401,7.1312,7.1312,7.1312,7.1312,7.1312,7.1312,7.1312,7.121,7.1041,7.1041,7.1041,7.1075,7.1244,7.1312,3.5351,3.8883,4.238,4.2647,4.2738,4.2601,4.2276,0.0,0.0,0.0,0.0,0.0,0.0,0.0,0.0,4.4282,4.558,0.0,0.0,0.0,0.0,0.0,0.0,0.0,0.0,0.0,0.0,0.0,0.0,0.0,0.0,9.2501,9.2281,9.1803,9.1436,9.1253,9.1253,9.1253,9.1069,9.0702,9.0262,9.0078,9.0041,8.9601,8.9234,0.0,0.0,0.0,8.7619,8.7178,8.6995,8.6958,8.6591,8.6187,8.5637,8.4499,8.3765,8.3287,8.248,8.2186,8.2076,8.1342,8.0791,8.0314,7.9543,7.8699,7.8002,7.7928,7.7892,7.8002,7.8369,7.9066,7.98,8.0167,8.0901,8.1562,8.1562,8.1893,8.2186,8.2186,8.2186,8.2186,8.2186,8.2186,8.2186,8.2186,8.2186,8.2039,8.1599,7.9465,7.7615,7.6653,7.5265,7.3671,7.1943,7.2708,7.2708,7.1401,7.1312,7.1312,7.1312,7.1312,7.1312,7.1312,7.1312,7.1312,7.1312,7.1312,7.1312,7.1312,7.1312,7.1312,3.4878,3.7456,3.9675,4.0528,4.0758,4.0953,4.1691,0.0,0.0,0.0,0.0,0.0,0.0,0.0,0.0,0.0,0.0,0.0,0.0,0.0,0.0,0.0,0.0,0.0,0.0,0.0,0.0,0.0,0.0,0.0,0.0,9.1693,9.162,9.162,9.0739,9.0188,9.0041,9.0298,9.0078,8.9417,8.9307,8.9234,8.9234,8.9124,8.8683,8.8023,0.0,0.0,8.6995,8.6885,8.6811,8.6738,8.593,8.5527,8.527,8.3911,8.3324,8.3141,8.2443,8.2186,8.1966,8.0461,7.9874,7.9507,7.7965,7.7414,7.7451,7.8185,7.8516,7.8772,7.9433,8.0314,8.1158,8.1856,8.2113,8.2186,8.2186,8.2186,8.2186,8.2186,8.2186,8.2186,8.2186,8.2296,8.2333,8.2223,8.2128,8.2099,8.1952,7.9537,7.77,7.762,7.6161,7.4428,7.2553,7.3254,7.312,7.1435,7.1312,7.1312,7.1312,7.1312,7.1312,7.1312,7.1312,7.1312,7.1312,7.1312,7.1312,7.1312,7.1312,7.1312,3.4235,3.6424,3.837,3.9084,3.9763,4.0238,0.0,0.0,0.0,0.0,0.0,0.0,0.0,0.0,0.0,0.0,0.0,0.0,0.0,0.0,0.0,0.0,0.0,0.0,0.0,0.0,0.0,0.0,0.0,0.0,0.0,9.1143,9.0776,9.0776,8.9344,8.8243,8.7582,8.8904,8.9528,8.9417,8.872,8.839,8.8353,8.7692,8.7325,8.7178,0.0,8.7105,8.6958,8.6261,8.5967,8.5894,8.5086,8.4389,8.3765,8.3508,8.2994,8.237,8.2223,8.2186,8.2039,8.1122,8.0351,7.9617,7.8699,7.7892,7.7341,7.7488,7.8038,7.8626,7.8736,7.9874,8.1048,8.1158,8.1709,8.2186,8.2186,8.2186,8.2186,8.2186,8.2186,8.2186,8.2186,8.2774,8.2994,8.2296,8.2057,8.1599,8.0912,7.9048,7.7414,7.6586,7.614,7.4979,7.2587,7.3118,7.2881,7.1413,7.1312,7.1312,7.1312,7.1312,7.1312,7.1312,7.1312,7.1312,7.1312,7.1312,7.1312,7.1312,7.1312,7.1312,3.3592,3.525,3.7043,3.8599,3.9851,4.0595,0.0,0.0,0.0,0.0,0.0,0.0,0.0,0.0,0.0,0.0,0.0,0.0,0.0,0.0,0.0,0.0,0.0,0.0,0.0,0.0,0.0,0.0,0.0,0.0,0.0,0.0,8.9968,8.9968,8.839,8.7362,8.6995,8.6885,8.7031,8.7435,8.7068,8.7142,8.7545,8.7178,8.6995,8.6995,0.0,8.6334,8.6297,8.549,8.5159,8.5086,8.4278,8.3728,8.3287,8.2443,8.1893,8.1562,8.1562,8.1562,8.1415,8.0608,8.0094,7.9543,7.8295,7.7635,7.7304,7.7304,7.7598,7.8112,7.8993,7.98,8.0571,8.1452,8.1929,8.2186,8.2186,8.2186,8.2186,8.2186,8.2553,8.2847,8.2847,8.3544,8.3911,8.3544,8.2536,8.1633,8.1272,7.9072,7.7298,7.6869,7.6231,7.5219,7.368,7.351,7.2868,7.1413,7.1312,7.1312,7.1312,7.1312,7.1312,7.1312,7.1312,7.1312,7.1312,7.1312,7.1312,7.1312,7.1312,7.1312,3.3423,3.4742,3.64,3.8464,0.0,0.0,0.0,0.0,0.0,0.0,0.0,0.0,0.0,0.0,0.0,0.0,0.0,0.0,0.0,0.0,0.0,0.0,0.0,0.0,0.0,0.0,0.0,0.0,0.0,0.0,0.0,0.0,8.8757,8.8573,8.6811,8.5894,8.5894,8.4278,8.4168,8.5527,8.5527,8.5857,8.6444,8.6444,8.6444,8.6407,8.56,8.5233,8.5159,8.4168,8.3765,8.3691,8.3104,8.2847,8.2663,8.1232,8.0718,8.0718,8.0718,8.0718,8.0571,7.9764,7.9507,7.925,7.7781,7.7304,7.7304,7.7304,7.7304,7.7708,7.936,7.991,8.0424,8.1856,8.2186,8.2186,8.2186,8.2186,8.226,8.2443,8.2994,8.3471,8.3654,8.4352,8.4829,8.4646,8.3154,8.1884,8.1479,7.9035,7.7248,7.6927,7.6173,7.5405,7.4661,7.3916,7.3003,7.1887,7.1515,7.1312,7.1312,7.1312,7.1312,7.1312,7.1312,7.1312,7.1312,7.1312,7.1312,7.1312,7.1312,7.1312,3.4032,3.552,3.7077,3.8599,0.0,0.0,0.0,0.0,0.0,0.0,0.0,0.0,0.0,0.0,0.0,0.0,0.0,0.0,0.0,0.0,0.0,0.0,0.0,0.0,0.0,0.0,0.0,0.0,0.0,0.0,0.0,0.0,0.0,8.6077,8.3765,8.2553,8.2553,8.0938,8.1672,8.4682,8.4682,8.4719,8.4756,8.4756,8.4756,8.4719,8.3948,8.3581,8.3471,8.1893,8.1269,8.1269,8.1195,8.1158,8.1085,8.0204,7.9874,7.9874,7.9874,7.9874,7.9727,7.8956,7.8699,7.8516,7.7598,7.7304,7.7304,7.7304,7.7304,7.7708,7.936,8.0351,8.1122,8.2003,8.2186,8.2186,8.2186,8.2186,8.2406,8.3177,8.3361,8.3654,8.4389,8.5159,8.5453,8.4719,8.3627,8.227,8.0581,7.8567,7.6927,7.596,7.5771,7.5405,7.4661,7.3916,7.3443,7.3341,7.2056,7.1312,7.1312,7.1312,7.1312,7.1312,7.1312,7.1312,7.1312,7.1312,7.1312,7.1312,7.1312,7.1312,3.366,3.5622,3.7719,3.8734,0.0,0.0,0.0,0.0,0.0,0.0,0.0,0.0,0.0,0.0,0.0,0.0,0.0,0.0,0.0,0.0,0.0,0.0,0.0,0.0,0.0,0.0,0.0,0.0,0.0,0.0,0.0,0.0,0.0,8.3581,8.2186,8.1452,8.1452,8.0351,8.0388,8.1636,8.2627,8.3361,8.3875,8.3875,8.3875,8.3801,8.248,8.1929,8.1819,8.0718,8.0241,8.0241,8.0241,8.0241,8.0167,7.936,7.9029,7.9029,7.9029,7.9029,7.8993,7.8699,7.8589,7.8442,7.7561,7.7304,7.7304,7.7304,7.7708,7.8259,7.8883,7.9286,7.9837,8.1158,8.1452,8.1599,8.2076,8.259,8.303,8.3361,8.4205,8.4976,8.527,8.6004,8.6444,8.6151,8.4166,8.2379,8.1686,7.8915,7.6862,7.655,7.598,7.5405,7.4661,7.4356,7.3984,7.351,7.2969,7.2462,7.1988,7.1988,7.1785,7.1312,7.1312,7.1312,7.1312,7.1312,7.1312,7.1312,7.1312,7.1312,3.3051,3.4912,3.7077,3.8058,0.0,0.0,0.0,0.0,0.0,0.0,0.0,0.0,0.0,0.0,0.0,0.0,0.0,0.0,0.0,0.0,0.0,0.0,0.0,0.0,0.0,0.0,0.0,0.0,0.0,0.0,0.0,0.0,0.0,0.0,8.0645,8.0241,8.0241,7.9433,7.8993,7.9029,8.0388,8.1489,8.226,8.226,8.226,8.2186,8.0828,8.0241,8.0167,7.936,7.9176,7.9396,7.9103,7.9176,7.9323,7.8479,7.8185,7.8185,7.8185,7.8185,7.8185,7.8185,7.8185,7.8075,7.7488,7.7304,7.7304,7.7304,7.7745,7.8259,7.8516,7.8993,7.969,8.1048,8.1379,8.1525,8.2076,8.2847,8.3508,8.3728,8.4866,8.5857,8.6151,8.6628,8.6995,8.6995,8.4705,8.2867,8.2501,7.954,7.7203,7.6555,7.6251,7.5777,7.5033,7.4965,7.4728,7.4221,7.3984,7.3409,7.2428,7.2191,7.1819,7.1312,7.1312,7.1312,7.1312,7.1312,7.1312,7.1312,7.1312,7.1312,3.2347,3.3389,3.4878,0.0,0.0,0.0,0.0,0.0,0.0,0.0,0.0,0.0,0.0,0.0,0.0,0.0,0.0,0.0,0.0,0.0,0.0,0.0,0.0,0.0,0.0,0.0,0.0,0.0,0.0,0.0,0.0,0.0,0.0,0.0,7.8993,7.8589,7.8589,7.7745,7.7304,7.7341,7.8185,7.8993,7.9764,7.9764,7.9764,7.9727,7.8919,7.8589,7.8516,7.7671,7.7818,7.8516,7.7671,7.7855,7.8479,7.7635,7.7304,7.7304,7.7304,7.7304,7.7304,7.7304,7.7304,7.7304,7.7304,7.7304,7.7304,7.7304,7.7341,7.7524,7.8405,7.98,8.1195,8.2003,8.2186,8.2186,8.2186,8.2847,8.3654,8.4462,8.527,8.604,8.6885,8.6995,8.6995,8.6925,8.53,8.3702,8.262,8.0089,7.7822,7.5872,7.642,7.6555,7.5777,7.5709,7.5709,7.5709,7.4999,7.395,7.2462,7.1718,7.1312,7.1312,7.1312,7.1312,7.1312,7.1312,7.1312,7.1312,7.1312,7.1312,3.3964,0.0,0.0,0.0,0.0,0.0,0.0,0.0,0.0,0.0,0.0,0.0,0.0,0.0,0.0,0.0,0.0,0.0,0.0,0.0,0.0,0.0,0.0,0.0,0.0,0.0,0.0,0.0,0.0,0.0,0.0,0.0,0.0,7.8075,7.7818,7.7708,7.7708,7.7451,7.7304,7.7304,7.7561,7.8148,7.8956,7.8956,7.8956,7.8919,7.8075,7.7708,7.7671,7.7414,7.7451,7.7671,7.7414,7.7488,7.7671,7.7414,7.7304,7.7304,7.7304,7.7304,7.7304,7.7304,7.7304,7.7304,7.7304,7.7304,7.7304,7.7304,7.7745,7.8405,7.9213,8.0204,8.1048,8.1305,8.1379,8.1672,8.281,8.3691,8.4499,8.527,8.6077,8.6456,8.5918,8.5806,8.5544,8.4693,8.3408,8.1958,8.0347,7.8476,7.7312,7.7363,7.6555,7.6183,7.6521,7.6014,7.5709,7.5709,7.4999,7.4187,7.3206,7.2462,7.1853,7.1312,7.1312,7.1312,7.1312,7.1312,7.1312,7.1312,7.1853,7.1819,3.4438,0.0,0.0,0.0,0.0,0.0,0.0,0.0,0.0,0.0,0.0,0.0,0.0,0.0,0.0,0.0,0.0,0.0,0.0,0.0,0.0,0.0,0.0,0.0,0.0,0.0,0.0,0.0,0.0,0.0,0.0,0.0,7.7855,7.7341,7.7011,7.7011,7.7304,7.7011,7.7011,7.7304,7.7304,7.7598,7.8075,7.8075,7.8075,7.8075,7.7561,7.7304,7.7304,7.7304,7.7304,7.7304,7.7304,7.7304,7.7304,7.7304,7.7304,7.7304,7.7304,7.7304,7.7304,7.7304,7.7304,7.7304,7.7304,7.7304,7.7304,7.7304,7.7708,7.8259,7.9103,7.991,8.0681,8.1305,8.1489,8.1819,8.3141,8.4022,8.4829,8.5637,8.6093,8.6138,8.5468,8.4931,8.437,8.367,8.2661,8.1199,7.9393,7.8585,7.8145,7.801,7.7164,7.669,7.6893,7.6149,7.5709,7.5709,7.4999,7.439,7.395,7.2935,7.2056,7.1312,7.1312,7.1312,7.1312,7.1312,7.1312,7.1345,7.2056,7.2157,0.0,0.0,0.0,0.0,0.0,0.0,0.0,0.0,0.0,0.0,0.0,0.0,0.0,0.0,0.0,0.0,0.0,0.0,0.0,0.0,0.0,0.0,0.0,0.0,0.0,0.0,0.0,0.0,0.0,0.0,0.0,7.7268,7.7194,7.7194,7.6423,7.635,7.7084,7.6387,7.6289,7.6961,7.6961,7.6997,7.7071,7.7206,7.7304,7.7304,7.7304,7.7304,7.7304,7.7304,7.7304,7.7304,7.7304,7.7304,7.7304,7.7304,7.7304,7.7304,7.7304,7.7304,7.7304,7.7304,7.7304,7.7304,7.7304,7.7243,7.7181,7.7181,7.7118,7.7239,7.808,7.8876,7.9828,8.1439,8.1982,8.2406,8.3251,8.3955,8.4657,8.5463,8.5336,8.5123,8.5045,8.4088,8.345,8.3277,8.2356,8.1069,7.9361,7.9667,7.9532,7.8314,7.8077,7.7739,7.7164,7.6318,7.5811,7.5811,7.51,7.4695,7.4627,7.324,7.2157,7.1413,7.1481,7.1481,7.1413,7.1481,7.1515,7.1548,7.2259,7.2563,0.0,0.0,0.0,0.0,0.0,0.0,0.0,0.0,0.0,0.0,0.0,0.0,0.0,0.0,0.0,0.0,0.0,0.0,0.0,0.0,0.0,0.0,0.0,0.0,0.0,0.0,0.0,0.0,0.0,0.0,7.7304,7.6717,7.635,7.635,7.5579,7.5249,7.5432,7.5249,7.4872,0.0,7.4312,7.4638,7.5291,7.6664,7.7304,7.7304,7.7304,7.7304,7.7304,7.7304,7.7304,7.7304,7.7304,7.7304,7.7304,7.7304,7.7304,7.7304,7.7304,7.7304,7.7304,7.7304,7.7304,7.7304,7.7304,7.6728,7.6094,7.6094,7.558,7.5082,7.594,7.6298,7.6798,7.8369,8.0511,8.2406,8.3251,8.3296,8.3483,8.4316,8.4155,8.367,8.2839,8.2391,8.1968,8.1063,8.0229,7.9763,7.9904,7.9092,7.8788,7.9634,7.8686,7.8145,7.8585,7.7401,7.6657,7.6657,7.5912,7.5202,7.4627,7.3747,7.2902,7.2191,7.2732,7.2732,7.2157,7.2732,7.3003,7.3037,7.3781,7.3815,0.0,0.0,0.0,0.0,0.0,0.0,0.0,0.0,0.0,0.0,0.0,0.0,0.0,0.0,0.0,0.0,0.0,0.0,0.0,0.0,0.0,0.0,0.0,0.0,0.0,0.0,0.0,0.0,0.0,7.6063,7.6142,7.5763,7.5542,7.5542,7.4771,7.4515,7.4918,7.4515,7.4019,7.3507,7.3507,7.3456,7.3508,7.5717,7.6754,7.6717,7.635,7.6166,7.6166,7.6166,7.6166,7.6166,7.6166,7.6387,7.6656,7.6145,7.6564,7.7243,7.6728,7.6893,7.7243,7.6728,7.6563,7.6498,7.6027,7.551,7.5048,7.5048,7.4684,7.4416,7.4806,7.5443,7.6222,7.7001,7.8699,8.0406,8.1598,8.1691,8.1884,8.2671,8.2523,8.2047,8.1448,8.1233,8.0868,8.0276,7.987,7.9769,8.0141,7.9532,7.9329,8.0107,7.9194,7.8686,7.9092,7.7739,7.6893,7.6893,7.6149,7.554,7.5134,7.4762,7.4018,7.2935,7.3274,7.3308,7.2935,7.3308,7.3477,7.351,7.4255,7.439,0.0,0.0,0.0,0.0,0.0,0.0,0.0,0.0,0.0,0.0,0.0,0.0,0.0,0.0,0.0,0.0,0.0,0.0,0.0,0.0,0.0,0.0,0.0,0.0,0.0,0.0,0.0,0.0,0.0,7.4493,7.4641,7.4712,7.4698,7.4698,7.3927,7.3817,7.4478,7.3663,7.3104,7.2808,7.2817,7.237,7.1759,7.4145,7.5384,7.5617,7.5115,7.4918,7.4918,7.4918,7.4918,7.4918,7.4918,7.5322,7.5788,7.4965,7.5567,7.6674,7.5819,7.613,7.6664,7.5823,7.551,7.5369,7.4535,7.4158,7.4005,7.4005,7.3963,7.3807,7.3807,7.4721,7.574,7.5986,7.6549,7.7626,7.9539,7.9999,8.0117,8.0717,8.0542,8.0386,8.0489,8.019,8.004,8.0175,8.0209,8.0209,8.0209,8.0209,8.0209,8.0209,7.9667,7.9295,7.9295,7.8044,7.7266,7.7266,7.6521,7.6082,7.6082,7.6082,7.5439,7.4086,7.395,7.3815,7.368,7.3815,7.3849,7.3883,7.4525,7.4796,0.0,0.0,0.0,0.0,0.0,0.0,0.0,0.0,0.0,0.0,0.0,0.0,0.0,0.0,0.0,0.0,0.0,0.0,0.0,0.0,0.0,0.0,0.0,0.0,0.0,0.0,0.0,0.0,7.2584,7.3652,7.3675,7.3788,7.3854,7.3854,7.3083,7.2716,7.2826,7.1914,7.1015,7.0238,7.0113,6.9931,6.9888,7.1051,7.2466,7.3885,7.458,7.4918,7.4918,7.4918,7.4918,7.4918,7.4918,7.4992,7.5018,7.4682,7.4771,7.4885,7.4617,7.461,7.4684,7.4535,7.446,7.446,7.431,7.3729,7.3044,7.3044,7.2364,7.1688,7.1688,7.1825,7.2301,7.3561,7.4026,7.5008,7.8401,7.8946,7.878,7.8884,7.8613,7.8608,7.9254,7.9259,7.9464,8.0107,8.0209,8.0209,8.0209,8.0209,8.0209,8.0209,8.0107,8.004,8.004,7.9295,7.8822,7.8822,7.8111,7.7671,7.7671,7.7671,7.7299,7.6454,7.5743,7.51,7.4458,7.51,7.5405,7.5405,7.5506,7.554,0.0,0.0,0.0,0.0,0.0,0.0,0.0,0.0,0.0,0.0,0.0,0.0,0.0,0.0,0.0,0.0,0.0,0.0,0.0,0.0,0.0,0.0,0.0,0.0,0.0,0.0,0.0,0.0,6.988,7.0663,7.0879,7.0894,7.1208,7.1688,7.1321,7.1174,7.1174,7.0756,6.9823,6.8362,6.7696,6.7112,6.6816,6.8559,7.0376,7.2045,7.2553,7.2787,7.2849,7.3347,7.356,7.356,7.356,7.3854,7.4042,7.2885,7.3075,7.3852,7.3123,7.3217,7.3668,7.351,7.3492,7.3332,7.2832,7.2279,7.2004,7.2004,7.16,7.1312,7.1312,7.1616,7.2191,7.324,7.3815,7.4636,7.6686,7.7056,7.7066,7.7545,7.7482,7.7604,7.8348,7.8822,7.9228,7.9532,7.9938,8.0209,8.0209,8.0209,8.0209,8.0209,8.0209,8.0209,8.0209,7.9532,7.9126,7.9126,7.8416,7.7976,7.7976,7.7976,7.7638,7.6927,7.6555,7.598,7.5236,7.554,7.5709,7.5709,7.5709,7.5709,0.0,0.0,0.0,0.0,0.0,0.0,0.0,0.0,0.0,0.0,0.0,0.0,0.0,0.0,0.0,0.0,0.0,0.0,0.0,0.0,0.0,0.0,0.0,0.0,0.0,0.0,0.0,0.0,6.7427,6.7788,6.8046,6.8562,6.9092,6.9754,6.9961,7.011,7.011,6.9602,6.8426,6.6563,6.5823,6.5121,6.4647,6.6405,6.8023,6.9376,7.0606,7.1095,7.1159,7.213,7.2496,7.2496,7.2226,7.2496,7.2826,7.1125,7.1267,7.2335,7.1583,7.1816,7.2477,7.2424,7.2448,7.2279,7.1546,7.1312,7.1312,7.1312,7.1312,7.1312,7.1312,7.1718,7.236,7.3274,7.3916,7.4559,7.5506,7.5709,7.5879,7.6487,7.6589,7.6826,7.757,7.8179,7.8619,7.8788,7.9464,7.9938,7.9938,8.0073,8.0209,8.0209,8.0209,8.0209,8.0209,7.9701,7.9295,7.9126,7.8754,7.8483,7.828,7.845,7.8111,7.7198,7.7164,7.669,7.5709,7.5912,7.5912,7.5709,7.5709,7.5484,0.0,0.0,0.0,0.0,0.0,0.0,0.0,0.0,0.0,0.0,0.0,0.0,0.0,0.0,0.0,0.0,0.0,0.0,0.0,0.0,0.0,0.0,0.0,0.0,0.0,0.0,0.0,0.0,6.6081,6.6081,6.616,6.7843,6.8811,6.8909,6.9697,7.011,7.011,6.8327,6.6563,6.4742,6.4695,6.4647,6.4613,6.4762,6.4796,6.5107,6.9313,7.1095,7.1159,7.213,7.2496,7.2438,7.1511,7.1195,7.111,6.9933,6.9515,6.9713,7.014,7.0338,7.0473,7.113,7.1401,7.1401,7.1312,7.1312,7.1312,7.1312,7.1312,7.1312,7.1312,7.1345,7.1718,7.3138,7.351,7.395,7.5371,7.5709,7.5709,7.5743,7.5743,7.6014,7.6826,7.6995,7.7266,7.7942,7.8686,7.916,7.916,7.9769,8.0209,8.0209,8.0209,8.0209,8.0209,8.0175,7.9837,7.916,7.9735,7.9769,7.9092,7.9701,7.9397,7.7942,7.7942,7.7198,7.5709,7.6454,7.6454,7.5709,7.5709,7.4966,0.0,0.0,0.0,0.0,0.0,0.0,0.0,0.0,0.0,0.0,0.0,0.0,0.0,0.0,0.0,0.0,0.0,0.0,0.0,0.0,0.0,0.0,0.0,0.0,0.0,0.0,0.0,0.0,0.0,6.3767,6.3863,6.4492,6.5376,6.6464,6.7303,6.8017,6.8531,6.7355,6.6048,6.4844,6.4813,6.4161,6.3226,6.4174,6.4343,6.4017,6.669,6.8116,6.861,7.0174,7.1137,7.1511,7.0601,7.0601,7.0901,6.9262,6.8639,6.8656,6.8727,6.9045,6.962,7.0331,7.0906,7.1312,7.1312,7.1312,7.1312,7.1312,7.1312,7.1312,7.1312,7.1312,7.1684,7.3138,7.3477,7.3883,7.5371,7.5709,7.5709,7.5709,7.5709,7.5777,7.6082,7.6555,7.6995,7.7232,7.7908,7.8382,7.8382,7.8619,7.8957,7.9431,7.9498,7.9498,7.9498,7.9938,7.9904,7.916,7.9803,8.0073,7.9837,8.0073,7.9735,7.872,7.916,7.8179,7.5709,7.598,7.598,7.5709,7.5709,7.4966,3.9309,0.0,0.0,0.0,0.0,0.0,0.0,0.0,0.0,0.0,0.0,0.0,0.0,0.0,0.0,0.0,0.0,0.0,0.0,0.0,0.0,0.0,0.0,0.0,0.0,0.0,0.0,0.0,0.0,0.0,6.1846,6.2112,6.3073,6.4708,6.5624,6.6223,6.6391,6.5574,6.4848,6.4177,6.3823,6.3213,6.2415,6.3396,6.3599,6.3238,6.4587,6.5798,6.685,6.8389,6.9555,7.0207,6.9212,6.9354,6.9918,6.8343,6.7708,6.7765,6.7844,6.8436,6.9214,6.9958,7.0703,7.1312,7.1312,7.1312,7.1312,7.1312,7.1312,7.1312,7.1312,7.1481,7.1921,7.2902,7.3308,7.3747,7.4728,7.5168,7.5405,7.5642,7.5709,7.5709,7.5709,7.6149,7.6487,7.6487,7.713,7.7638,7.7638,7.7841,7.8179,7.8686,7.872,7.872,7.872,7.9397,7.9431,7.8416,7.9532,7.9972,7.9464,7.9938,7.987,7.9126,7.9329,7.8348,7.6115,7.6352,7.6217,7.5709,7.5725,7.4471,0.0,0.0,0.0,0.0,0.0,0.0,0.0,0.0,0.0,0.0,0.0,0.0,0.0,0.0,0.0,0.0,0.0,0.0,0.0,0.0,0.0,0.0,0.0,0.0,0.0,0.0,0.0,0.0,6.1844,6.1008,6.0088,6.0937,6.2244,6.3914,6.4821,6.4858,6.395,6.3199,6.2697,6.2541,6.1695,6.1714,6.2313,6.2347,6.2347,6.2425,6.3314,6.4551,6.5942,6.6919,6.7829,6.8469,6.7457,6.7565,6.8068,6.7161,6.6812,6.6914,6.7624,6.8402,6.9214,6.9925,7.0669,7.1312,7.1312,7.1312,7.1312,7.1312,7.1312,7.1312,7.1312,7.1853,7.236,7.2394,7.2935,7.3443,7.3477,7.4052,7.4762,7.5473,7.5642,7.5642,7.5676,7.5676,7.5676,7.5709,7.6352,7.686,7.686,7.7468,7.7942,7.7942,7.7942,7.7942,7.7942,7.8653,7.8483,7.7029,7.8991,7.9566,7.8111,7.9431,7.987,7.916,7.8416,7.7705,7.6961,7.7604,7.7164,7.5681,7.5573,7.3458,3.9005,0.0,0.0,0.0,0.0,0.0,0.0,0.0,0.0,0.0,0.0,0.0,0.0,0.0,0.0,0.0,0.0,0.0,0.0,0.0,0.0,0.0,0.0,0.0,0.0,0.0,0.0,0.0,6.1436,6.0255,5.9391,6.0255,6.1436,6.3062,6.3925,6.4567,6.4911,6.4713,6.3919,6.2627,6.2463,6.1778,6.0757,6.1332,6.1603,6.1637,6.2421,6.3017,6.3504,6.4897,6.6311,6.7457,6.645,6.6975,6.8068,6.7161,6.6812,6.6846,6.7049,6.7996,6.9147,6.935,7.0263,7.1312,7.1312,7.1312,7.1312,7.1312,7.1312,7.1312,7.1312,7.1447,7.1751,7.2259,7.2157,7.2191,7.324,7.324,7.324,7.395,7.4086,7.4289,7.483,7.4897,7.51,7.5608,7.5879,7.6014,7.6014,7.6217,7.6555,7.713,7.7198,7.7198,7.7198,7.8382,7.872,7.7739,7.9261,8.0006,7.96,7.9972,8.0107,7.9904,7.9701,7.9228,7.8483,7.7029,7.6066,7.5606,7.2767,7.0942,3.9544,3.9749,0.0,0.0,0.0,0.0,4.3169,4.4409,4.6405,0.0,0.0,0.0,0.0,0.0,0.0,0.0,0.0,0.0,0.0,0.0,0.0,0.0,0.0,0.0,0.0,6.3746,6.313,6.2382,6.0468,5.8998,5.8153,5.8976,5.9988,6.1219,6.2045,6.2861,6.3782,6.342,6.3041,6.2699,6.2011,6.1293,6.0677,6.0706,6.0994,6.1332,6.1738,6.211,6.2493,6.3376,6.4538,6.5524,6.4992,6.5765,6.7102,6.6554,6.6542,6.6812,6.6812,6.7827,6.9113,6.9113,7.0094,7.1312,7.1312,7.1312,7.1312,7.1312,7.1312,7.1312,7.1312,7.1312,7.1413,7.1853,7.1616,7.1548,7.2394,7.2259,7.2259,7.3274,7.3477,7.3612,7.4052,7.439,7.4762,7.5168,7.5506,7.5709,7.5709,7.5709,7.5879,7.6352,7.6386,7.6386,7.6386,7.7502,7.801,7.757,7.8923,7.9735,7.9735,8.004,8.0209,8.0209,7.9904,7.8859,7.7044,7.7011,7.5867,7.3815,7.0275,6.8643,4.0417,4.0303,4.056,0.0,0.0,0.0,4.2625,4.3132,4.3844,0.0,0.0,0.0,0.0,0.0,0.0,0.0,0.0,0.0,0.0,0.0,0.0,0.0,0.0,0.0,6.2622,6.2498,6.2068,6.126,5.9112,5.7492,5.6701,5.7329,5.8077,5.8834,5.965,6.0427,6.1348,6.0713,6.1105,6.2422,6.0979,6.06,6.112,6.0325,6.0385,6.1061,6.1231,6.167,6.2279,6.2347,6.2821,6.3531,6.3531,6.441,6.5696,6.5696,6.617,6.6812,6.6812,6.776,6.8977,6.9079,7.006,7.121,7.1278,7.1312,7.1312,7.1312,7.1312,7.1312,7.1312,7.1312,7.1312,7.1312,7.1312,7.1312,7.1312,7.1312,7.1684,7.3003,7.324,7.3308,7.3578,7.4086,7.4559,7.4695,7.527,7.5709,7.5709,7.5709,7.5709,7.5709,7.5709,7.5709,7.5709,7.6454,7.6893,7.6893,7.8213,7.9025,7.9126,7.9735,8.0107,8.0209,7.9331,7.7411,7.4275,7.6716,7.5473,7.0839,6.8243,6.6971,0.0,0.0,0.0,0.0,0.0,0.0,4.0917,4.1204,4.2278,0.0,0.0,0.0,0.0,0.0,0.0,0.0,0.0,0.0,0.0,0.0,0.0,0.0,0.0,0.0,6.097,6.034,5.9637,5.885,5.7131,5.6064,5.5919,5.6026,5.6508,5.7274,5.7468,5.8254,5.974,6.0239,6.0576,6.0828,6.0521,6.0083,5.9528,5.9336,5.9302,5.9539,6.0757,6.1366,6.1569,6.2144,6.2821,6.3531,6.3531,6.441,6.5696,6.5696,6.617,6.6812,6.6812,6.7387,6.8233,6.8876,6.9688,7.0534,7.1142,7.1312,7.1312,7.1312,7.1312,7.1312,7.1312,7.1312,7.1312,7.1312,7.1312,7.1312,7.1312,7.1312,7.1413,7.1684,7.1751,7.2293,7.4086,7.4018,7.4119,7.5303,7.5608,7.5709,7.5709,7.5709,7.5709,7.5709,7.5709,7.5709,7.5709,7.6454,7.6893,7.6893,7.7739,7.8483,7.9092,7.9261,7.96,8.0175,7.8808,7.6843,7.4296,7.3327,7.1171,6.7788,6.7334,6.7033,0.0,0.0,0.0,4.192,0.0,0.0,0.0,4.0882,4.0985,0.0,0.0,0.0,0.0,0.0,0.0,0.0,0.0,0.0,0.0,0.0,0.0,0.0,0.0,0.0,6.0456,5.935,5.8033,5.649,5.6003,5.5553,5.5141,5.5141,5.5484,5.6268,5.6268,5.6871,5.8114,5.8507,5.8899,5.9324,5.9222,5.895,5.8524,5.8484,5.866,5.9066,5.9844,6.0385,6.0757,6.1535,6.2076,6.2448,6.2821,6.3835,6.5155,6.5155,6.5865,6.6812,6.6812,6.7286,6.803,6.8842,6.9586,7.0331,7.1075,7.1312,7.1312,7.1312,7.1312,7.1312,7.1312,7.1312,7.1312,7.1312,7.1312,7.1312,7.1312,7.1312,7.1413,7.1785,7.1548,7.1785,7.3274,7.3206,7.3443,7.4931,7.5168,7.5168,7.5168,7.5473,7.5574,7.5202,7.5473,7.5709,7.5709,7.6082,7.6454,7.686,7.7232,7.7773,7.8517,7.8923,7.9129,7.9012,7.808,7.5949,7.2811,7.086,6.8891,6.6973,6.7003,6.6999,0.0,0.0,0.0,0.0,0.0,4.2114,0.0,0.0,0.0,0.0,0.0,0.0,0.0,0.0,0.0,0.0,0.0,0.0,0.0,0.0,0.0,0.0,0.0,0.0,0.0,5.8391,5.6704,5.4516,5.4994,5.5086,5.4432,5.4397,5.4668,5.5277,5.531,5.5656,5.6457,5.6586,5.7067,5.7917,5.7869,5.7863,5.7971,5.7769,5.8084,5.8795,5.8964,5.9336,5.9979,6.0926,6.1298,6.1366,6.211,6.3193,6.441,6.4546,6.5459,6.6609,6.6779,6.7184,6.7827,6.8605,6.9451,7.0331,7.1075,7.1312,7.1312,7.1312,7.1312,7.1312,7.1312,7.1312,7.1312,7.1312,7.1312,7.1312,7.1312,7.1312,7.1481,7.209,7.1819,7.1785,7.2665,7.2699,7.3105,7.4593,7.483,7.4762,7.4627,7.5134,7.527,7.4661,7.5134,7.554,7.5676,7.5709,7.598,7.6623,7.6657,7.6995,7.7739,7.8251,7.8111,7.7326,7.654,7.4526,7.1247,6.9482,6.8092,6.7178,6.7178,6.7238,0.0,0.0,0.0,0.0,4.5786,0.0,0.0,0.0,0.0,0.0,0.0,0.0,0.0,0.0,0.0,0.0,0.0,0.0,0.0,0.0,0.0,0.0,0.0,0.0,0.0,5.6097,5.5344,5.3749,5.3685,5.365,5.3653,5.3619,5.3653,5.3754,5.3754,5.4127,5.4873,5.5602,5.6327,5.7051,5.6992,5.7344,5.8002,5.7257,5.734,5.8051,5.8727,5.9066,5.9268,6.0723,6.1298,6.1366,6.211,6.2888,6.37,6.4377,6.5121,6.5899,6.6576,6.688,6.7049,6.7793,6.9011,7.0331,7.1075,7.1312,7.1312,7.1312,7.1312,7.1312,7.1312,7.1312,7.1312,7.1312,7.1312,7.1312,7.1312,7.1312,7.1345,7.1413,7.1887,7.2732,7.4119,7.3815,7.3883,7.5337,7.5574,7.5337,7.4695,7.4695,7.4695,7.4627,7.4695,7.4999,7.5642,7.5709,7.5743,7.5845,7.5845,7.6183,7.6995,7.6473,7.5849,7.4992,7.3579,7.2288,7.1247,7.0338,6.913,6.7867,6.7867,6.8196,0.0,0.0,0.0,0.0,0.0,0.0,0.0,0.0,4.2639,0.0,0.0,0.0,0.0,0.0,0.0,0.0,4.3712,0.0,0.0,0.0,0.0,0.0,0.0,0.0,0.0,0.0,0.0,0.0,5.1719,5.1907,5.2739,5.2807,5.301,5.3484,5.3518,5.3653,5.3957,5.4292,5.4627,5.4935,5.5379,5.5756,5.5996,5.6163,5.6562,5.7273,5.7611,5.7983,5.8457,5.9539,6.0216,6.0689,6.1467,6.2482,6.3599,6.4343,6.5053,6.5797,6.6542,6.6812,6.7015,6.8199,6.9316,7.0331,7.1075,7.1312,7.1312,7.1312,7.1312,7.1312,7.1312,7.1312,7.1312,7.1312,7.1312,7.1312,7.1312,7.1312,7.1312,7.1312,7.1887,7.2732,7.3781,7.368,7.3984,7.5473,7.4965,7.4289,7.3984,7.395,7.395,7.395,7.4356,7.4897,7.5642,7.5709,7.5709,7.5709,7.4932,7.4939,7.6138,7.512,7.4237,7.3847,7.316,7.2029,7.0583,7.0194,6.9692,6.9123,6.8734,6.8734,4.7278,0.0,0.0,0.0,0.0,0.0,0.0,0.0,0.0,0.0,0.0,0.0,0.0,0.0,4.2464,4.3093,0.0,4.2752,0.0,0.0,0.0,0.0,0.0,0.0,0.0,0.0,0.0,0.0,0.0,5.0351,5.1623,5.1894,5.2367,5.3145,5.3382,5.3518,5.3518,5.3518,5.3518,5.3518,5.4025,5.4397,5.46,5.5141,5.5919,5.6799,5.6799,5.7205,5.7949,5.893,5.9641,6.0216,6.1197,6.2245,6.3328,6.4241,6.4918,6.5527,6.6474,6.6812,6.7049,6.8605,6.9451,7.006,7.1041,7.1312,7.1312,7.1312,7.1312,7.1312,7.1312,7.1312,7.1312,7.1312,7.1312,7.1312,7.1312,7.1312,7.1312,7.1312,7.1887,7.2631,7.3341,7.3477,7.3916,7.5202,7.4492,7.3646,7.324,7.3341,7.3477,7.3477,7.3984,7.4695,7.5608,7.5709,7.5777,7.6014,7.4906,7.4412,7.5111,7.3691,7.2692,7.2398,7.2398,7.1591,6.9991,7.0141,7.0141,6.9961,6.9482,6.9363,0.0,0.0,0.0,4.9077,0.0,0.0,0.0,0.0,4.6751,0.0,0.0,0.0,0.0,4.2723,4.2464,4.3093,4.2604,0.0,0.0,0.0,0.0,0.0,0.0,0.0,0.0,0.0,0.0,0.0,0.0,0.0,5.013,5.0845,5.1589,5.2334,5.3078,5.3518,5.3518,5.3518,5.3518,5.3518,5.3518,5.3923,5.46,5.46,5.5412,5.6799,5.6799,5.7205,5.8017,5.9471,6.008,6.025,6.1772,6.2381,6.2618,6.4072,6.4613,6.485,6.6305,6.6812,6.7049,6.8605,6.9113,6.9417,7.0872,7.1312,7.1312,7.1312,7.1312,7.1312,7.1312,7.1312,7.1312,7.1312,7.1312,7.1312,7.1312,7.1312,7.1312,7.1312,7.1887,7.2631,7.3341,7.3477,7.3747,7.4525,7.4627,7.4052,7.2631,7.3037,7.3477,7.3477,7.351,7.4119,7.5574,7.5709,7.6014,7.6826,7.6069,7.5004,7.358,7.2127,7.0893,7.0119,7.0119,7.0119,6.9991,7.059,7.056,6.9991,6.9961,7.026,0.0,0.0,5.3482,5.1279,0.0,0.0,0.0,0.0,0.0,0.0,0.0,0.0,0.0,4.5194,4.4892,4.4467,4.357,4.287,0.0,4.225,0.0,0.0,0.0,0.0,0.0,0.0,0.0,0.0,0.0,0.0,0.0,4.9297,5.0304,5.1555,5.2334,5.2976,5.3484,5.3518,5.3518,5.3518,5.3518,5.3619,5.389,5.4363,5.5141,5.6122,5.6596,5.7205,5.7983,5.8964,5.9674,6.0216,6.1264,6.2279,6.326,6.4241,6.4613,6.4816,6.6305,6.6812,6.7049,6.8605,6.9113,6.9383,7.0872,7.1312,7.1312,7.1312,7.1312,7.1312,7.1312,7.1312,7.1312,7.1312,7.1312,7.1312,7.1312,7.1312,7.1312,7.1312,7.1887,7.2462,7.2732,7.3172,7.3747,7.4492,7.4627,7.4086,7.2597,7.3037,7.3477,7.3477,7.395,7.4627,7.5608,7.4868,7.4439,7.4705,7.3069,7.2002,7.2011,7.0985,7.0537,7.056,7.059,7.059,7.059,7.0799,7.0799,7.059,7.059,7.0709,5.238,5.3151,0.0,5.2747,5.2821,0.0,5.0875,0.0,0.0,0.0,0.0,0.0,0.0,4.6944,4.6209,4.5528,4.4414,4.33,0.0,4.2221,0.0,0.0,0.0,0.0,0.0,0.0,0.0,0.0,0.0,0.0,0.0,0.0,4.9018,5.0744,5.1792,5.2706,5.3484,5.3518,5.3518,5.3518,5.3518,5.3518,5.3518,5.4262,5.5006,5.575,5.6494,5.7374,5.8355,5.9099,5.9844,6.0588,6.14,6.2279,6.3226,6.4241,6.4952,6.5527,6.6474,6.6812,6.7049,6.8605,6.9113,6.9383,7.0872,7.1312,7.1379,7.1616,7.1515,7.1379,7.1616,7.1515,7.1312,7.1312,7.1312,7.1312,7.1312,7.1312,7.1312,7.1312,7.1684,7.209,7.236,7.28,7.3341,7.4086,7.4221,7.3781,7.2563,7.3037,7.3477,7.3477,7.4153,7.4708,7.4899,7.3899,7.3201,7.3168,7.1768,7.1154,7.1588,7.0759,7.062,7.1248,7.1009,7.1009,7.1248,7.1009,7.0889,7.0889,7.0889,7.0799]},{"header":{"parameterUnit":"m.s-1","parameterCategory":1,"la1":30.6,"la2":29.2853,"lo1":-89.7004,"lo2":-87.6739,"dy":0.0162,"dx":0.0183,"nx":112,"ny":82,"refTime":"2024-04-12T06:00:00:Z","depth":0,"parameterNumber":3,"parameterNumberName":"V-component_of_WINDS"},"data":[0.0,0.0,0.0,0.0,0.0,0.0,0.0,0.0,0.0,0.0,0.0,0.0,0.0,0.0,0.0,0.0,0.0,0.0,0.0,0.0,0.0,0.0,0.0,0.0,0.0,0.0,0.0,0.0,0.0,0.0,0.0,0.0,0.0,0.0,0.0,0.0,0.0,0.0,0.0,0.0,0.0,0.0,0.0,0.0,0.0,0.0,0.0,0.0,0.0,0.0,0.0,0.0,0.0,0.0,0.0,0.0,0.0,0.0,0.0,0.0,0.0,0.0,0.0,0.0,0.0,0.0,0.0,0.0,0.0,0.0,0.0,0.0,0.0,0.0,0.0,0.0,0.0,0.0,0.0,0.0,0.0,0.0,0.0,0.0,0.0,0.0,0.0,0.0,0.0,0.0,0.0,-3.5642,-4.366,-4.8559,-4.848,-4.7296,-4.3988,-3.7959,0.0,0.0,0.0,0.0,0.0,0.0,0.0,0.0,0.0,0.0,0.0,0.0,0.0,0.0,0.0,0.0,0.0,0.0,0.0,0.0,0.0,0.0,0.0,0.0,0.0,0.0,0.0,0.0,0.0,0.0,0.0,0.0,0.0,0.0,0.0,0.0,0.0,0.0,0.0,0.0,0.0,0.0,0.0,0.0,0.0,0.0,0.0,0.0,0.0,0.0,0.0,0.0,0.0,0.0,0.0,0.0,0.0,0.0,0.0,0.0,0.0,0.0,0.0,0.0,0.0,0.0,0.0,0.0,0.0,0.0,0.0,0.0,0.0,0.0,0.0,0.0,0.0,0.0,0.0,0.0,0.0,0.0,0.0,0.0,0.0,0.0,0.0,0.0,0.0,0.0,0.0,0.0,0.0,0.0,0.0,0.0,0.0,0.0,0.0,0.0,0.0,0.0,0.0,0.0,-3.3368,-4.036,-4.5288,-4.7753,-4.7161,-4.5031,-4.1376,-3.6077,0.0,0.0,0.0,0.0,0.0,0.0,0.0,0.0,0.0,0.0,0.0,0.0,0.0,0.0,0.0,0.0,0.0,0.0,0.0,0.0,0.0,0.0,0.0,0.0,0.0,0.0,0.0,0.0,0.0,0.0,0.0,0.0,0.0,0.0,0.0,0.0,0.0,0.0,0.0,0.0,0.0,0.0,0.0,0.0,0.0,0.0,0.0,0.0,0.0,0.0,0.0,0.0,0.0,0.0,0.0,0.0,0.0,0.0,0.0,0.0,0.0,0.0,0.0,0.0,0.0,0.0,0.0,0.0,0.0,0.0,0.0,0.0,0.0,0.0,0.0,0.0,0.0,0.0,0.0,0.0,0.0,0.0,0.0,0.0,0.0,0.0,0.0,0.0,0.0,0.0,0.0,0.0,0.0,0.0,0.0,0.0,0.0,0.0,0.0,0.0,0.0,0.0,0.0,-3.2352,-3.6167,-4.2041,-4.6075,-4.8025,-4.6884,-4.4302,-4.0617,-3.6027,-3.3524,0.0,0.0,0.0,0.0,0.0,0.0,0.0,0.0,0.0,0.0,0.0,0.0,0.0,0.0,0.0,0.0,0.0,0.0,0.0,0.0,0.0,0.0,0.0,0.0,0.0,0.0,0.0,0.0,0.0,0.0,0.0,0.0,0.0,0.0,0.0,0.0,0.0,0.0,0.0,0.0,0.0,0.0,0.0,0.0,0.0,0.0,0.0,0.0,0.0,0.0,0.0,0.0,0.0,0.0,0.0,0.0,0.0,0.0,0.0,0.0,0.0,0.0,0.0,0.0,0.0,0.0,0.0,0.0,0.0,0.0,0.0,0.0,0.0,0.0,0.0,0.0,0.0,0.0,0.0,0.0,0.0,0.0,0.0,0.0,0.0,0.0,0.0,0.0,0.0,0.0,0.0,0.0,0.0,0.0,0.0,0.0,0.0,0.0,0.0,0.0,0.0,0.0,-3.5621,-3.8241,-4.271,-4.6175,-4.7572,-4.6162,-4.3074,-3.9411,-3.5168,-3.1837,0.0,0.0,0.0,0.0,0.0,0.0,0.0,0.0,0.0,0.0,0.0,0.0,0.0,0.0,0.0,0.0,0.0,0.0,0.0,0.0,0.0,0.0,0.0,0.0,0.0,0.0,0.0,0.0,0.0,0.0,0.0,0.0,0.0,0.0,0.0,0.0,0.0,0.0,0.0,0.0,0.0,0.0,0.0,0.0,0.0,0.0,0.0,0.0,0.0,0.0,0.0,0.0,0.0,0.0,0.0,0.0,0.0,0.0,0.0,0.0,0.0,0.0,0.0,0.0,0.0,0.0,0.0,0.0,0.0,0.0,0.0,0.0,0.0,0.0,0.0,0.0,0.0,0.0,0.0,0.0,0.0,0.0,0.0,0.0,0.0,0.0,0.0,0.0,0.0,0.0,0.0,0.0,0.0,0.0,0.0,0.0,0.0,0.0,0.0,0.0,0.0,0.0,-3.5546,-3.8818,-4.3263,-4.5372,-4.5695,-4.3713,-4.0344,-3.6406,-3.158,-2.8941,0.0,0.0,0.0,0.0,0.0,0.0,0.0,0.0,0.0,0.0,0.0,0.0,0.0,0.0,0.0,0.0,0.0,0.0,0.0,0.0,0.0,0.0,0.0,0.0,0.0,0.0,0.0,0.0,0.0,0.0,0.0,0.0,0.0,0.0,0.0,0.0,0.0,0.0,0.0,0.0,0.0,0.0,0.0,0.0,0.0,0.0,0.0,0.0,0.0,0.0,0.0,0.0,0.0,0.0,0.0,0.0,0.0,0.0,0.0,0.0,0.0,0.0,0.0,0.0,0.0,0.0,0.0,0.0,0.0,0.0,0.0,0.0,0.0,0.0,0.0,0.0,0.0,0.0,0.0,0.0,0.0,0.0,0.0,0.0,0.0,0.0,0.0,0.0,0.0,0.0,0.0,0.0,0.0,0.0,0.0,0.0,0.0,0.0,0.0,0.0,0.0,0.0,-3.5981,-3.8994,0.0,-4.388,-4.3969,-4.2073,-3.9308,-3.5707,-3.0721,0.0,0.0,0.0,0.0,0.0,0.0,0.0,0.0,0.0,0.0,0.0,0.0,0.0,0.0,0.0,0.0,0.0,0.0,0.0,0.0,0.0,0.0,0.0,0.0,0.0,0.0,0.0,0.0,0.0,0.0,0.0,0.0,0.0,0.0,0.0,0.0,0.0,0.0,0.0,0.0,0.0,0.0,0.0,0.0,0.0,0.0,0.0,0.0,0.0,0.0,0.0,0.0,0.0,0.0,0.0,0.0,0.0,0.0,0.0,0.0,0.0,0.0,0.0,0.0,0.0,0.0,0.0,0.0,0.0,0.0,0.0,0.0,0.0,0.0,0.0,0.0,0.0,0.0,0.0,0.0,0.0,0.0,0.0,0.0,0.0,0.0,0.0,0.0,0.0,0.0,0.0,0.0,0.0,0.0,0.0,0.0,0.0,0.0,0.0,0.0,0.0,0.0,-3.352,-3.6006,-3.8466,0.0,-4.2469,-4.2358,-4.0364,-3.7799,-3.4424,-3.0447,0.0,0.0,0.0,0.0,0.0,0.0,0.0,0.0,0.0,0.0,0.0,0.0,0.0,0.0,0.0,0.0,0.0,0.0,0.0,0.0,0.0,0.0,0.0,0.0,0.0,0.0,0.0,0.0,0.0,0.0,0.0,0.0,0.0,0.0,0.0,0.0,0.0,0.0,0.0,0.0,0.0,0.0,0.0,0.0,0.0,0.0,0.0,0.0,0.0,0.0,0.0,0.0,0.0,0.0,0.0,0.0,0.0,0.0,0.0,0.0,0.0,0.0,0.0,0.0,0.0,0.0,0.0,0.0,0.0,0.0,0.0,0.0,0.0,0.0,0.0,0.0,0.0,0.0,0.0,0.0,0.0,0.0,0.0,0.0,0.0,0.0,0.0,0.0,0.0,0.0,0.0,0.0,0.0,0.0,0.0,0.0,0.0,0.0,0.0,0.0,0.0,0.0,-3.347,-3.5353,-3.732,-3.9539,-4.1093,-4.1076,-3.8756,-3.5438,-3.2457,0.0,0.0,0.0,0.0,0.0,0.0,0.0,0.0,0.0,0.0,0.0,0.0,0.0,0.0,0.0,0.0,0.0,0.0,0.0,0.0,0.0,0.0,0.0,0.0,0.0,0.0,0.0,0.0,0.0,0.0,0.0,0.0,0.0,0.0,0.0,0.0,0.0,0.0,0.0,0.0,0.0,0.0,0.0,0.0,0.0,0.0,0.0,0.0,0.0,0.0,0.0,0.0,0.0,0.0,0.0,0.0,0.0,0.0,0.0,0.0,0.0,0.0,0.0,0.0,0.0,0.0,0.0,0.0,0.0,0.0,0.0,0.0,0.0,0.0,0.0,0.0,0.0,0.0,0.0,0.0,0.0,0.0,0.0,0.0,0.0,0.0,0.0,0.0,0.0,0.0,0.0,0.0,0.0,0.0,0.0,0.0,0.0,0.0,0.0,0.0,0.0,0.0,0.0,-3.4098,-3.5579,-3.7072,-3.9014,-3.9151,-3.8653,-3.7234,-3.4309,-3.1759,-2.9844,0.0,0.0,0.0,0.0,0.0,0.0,0.0,0.0,0.0,0.0,0.0,0.0,0.0,0.0,0.0,0.0,0.0,0.0,0.0,0.0,0.0,0.0,0.0,0.0,0.0,0.0,0.0,0.0,0.0,0.0,0.0,0.0,0.0,0.0,0.0,0.0,0.0,0.0,0.0,0.0,0.0,0.0,0.0,0.0,0.0,0.0,0.0,0.0,0.0,0.0,0.0,0.0,0.0,0.0,0.0,0.0,0.0,0.0,0.0,0.0,0.0,0.0,0.0,0.0,0.0,0.0,0.0,0.0,0.0,0.0,0.0,0.0,0.0,0.0,0.0,0.0,0.0,0.0,0.0,0.0,0.0,0.0,0.0,0.0,0.0,0.0,0.0,0.0,0.0,0.0,0.0,0.0,0.0,0.0,0.0,0.0,0.0,0.0,0.0,0.0,0.0,0.0,-3.4675,-3.5115,-3.584,-3.7478,-3.7367,-3.6646,-3.5394,-3.3231,-3.1172,-2.9414,0.0,0.0,0.0,0.0,0.0,0.0,0.0,0.0,0.0,0.0,0.0,0.0,0.0,0.0,0.0,0.0,0.0,0.0,0.0,0.0,0.0,0.0,0.0,0.0,0.0,0.0,0.0,0.0,0.0,0.0,0.0,0.0,0.0,0.0,0.0,0.0,0.0,0.0,0.0,0.0,0.0,0.0,0.0,0.0,0.0,0.0,0.0,0.0,0.0,0.0,0.0,0.0,0.0,0.0,0.0,0.0,0.0,0.0,0.0,0.0,0.0,0.0,0.0,0.0,0.0,0.0,0.0,0.0,0.0,0.0,0.0,0.0,0.0,0.0,0.0,0.0,0.0,0.0,0.0,0.0,0.0,0.0,0.0,0.0,0.0,0.0,0.0,0.0,0.0,0.0,0.0,0.0,0.0,0.0,0.0,0.0,0.0,0.0,0.0,0.0,0.0,0.0,-3.4994,-3.4147,-3.39,-3.558,-3.5715,-3.4985,-3.3485,-3.2226,-3.0781,-2.9082,0.0,0.0,0.0,0.0,0.0,0.0,0.0,0.0,0.0,0.0,0.0,0.0,0.0,0.0,0.0,0.0,0.0,0.0,0.0,0.0,0.0,0.0,0.0,0.0,0.0,0.0,0.0,0.0,0.0,0.0,0.0,0.0,0.0,0.0,0.0,0.0,0.0,0.0,0.0,0.0,0.0,0.0,0.0,0.0,0.0,0.0,0.0,0.0,0.0,0.0,0.0,0.0,0.0,0.0,0.0,0.0,0.0,0.0,0.0,0.0,-2.125,0.0,0.0,0.0,0.0,0.0,0.0,0.0,0.0,0.0,0.0,0.0,0.0,0.0,0.0,0.0,0.0,0.0,0.0,0.0,0.0,0.0,0.0,0.0,0.0,0.0,0.0,0.0,0.0,0.0,0.0,0.0,0.0,0.0,0.0,0.0,0.0,0.0,0.0,0.0,0.0,0.0,-3.4126,-3.3458,-3.3086,-3.4075,-3.4454,-3.4183,-3.3015,-3.207,-3.0918,-2.9512,-2.7519,0.0,0.0,0.0,0.0,0.0,0.0,0.0,0.0,0.0,0.0,0.0,0.0,0.0,0.0,0.0,0.0,0.0,0.0,0.0,0.0,0.0,0.0,0.0,0.0,0.0,0.0,0.0,0.0,0.0,0.0,0.0,0.0,0.0,0.0,0.0,0.0,0.0,0.0,0.0,0.0,0.0,0.0,0.0,0.0,0.0,0.0,0.0,0.0,0.0,0.0,0.0,0.0,0.0,0.0,0.0,0.0,0.0,0.0,0.0,0.0,-2.2734,0.0,0.0,0.0,0.0,0.0,0.0,0.0,0.0,0.0,0.0,0.0,0.0,0.0,0.0,0.0,0.0,0.0,0.0,0.0,0.0,0.0,0.0,0.0,0.0,0.0,0.0,0.0,0.0,0.0,0.0,0.0,0.0,0.0,0.0,0.0,0.0,0.0,0.0,0.0,0.0,-3.3261,-3.1909,-3.1381,-3.3212,-3.3361,-3.3176,-3.2603,-3.209,-3.1269,-2.9961,-2.8262,0.0,0.0,0.0,0.0,0.0,0.0,0.0,0.0,0.0,0.0,0.0,0.0,0.0,0.0,0.0,0.0,0.0,0.0,0.0,0.0,0.0,0.0,0.0,0.0,0.0,0.0,0.0,0.0,0.0,0.0,0.0,0.0,0.0,0.0,0.0,0.0,0.0,0.0,0.0,0.0,0.0,0.0,0.0,0.0,0.0,0.0,0.0,0.0,0.0,0.0,0.0,0.0,0.0,-2.74,-2.8164,-2.8848,-2.8976,-2.9104,-2.9075,-2.6937,-2.5271,-2.3957,0.0,0.0,0.0,0.0,0.0,0.0,0.0,0.0,0.0,0.0,0.0,0.0,0.0,0.0,0.0,0.0,0.0,0.0,0.0,0.0,0.0,0.0,0.0,0.0,0.0,-2.5352,-2.5117,0.0,0.0,0.0,0.0,0.0,0.0,0.0,0.0,0.0,0.0,0.0,0.0,-3.2259,-3.0376,-2.9787,-3.2467,-3.2454,-3.2168,-3.2168,-3.2226,-3.1719,-3.041,-2.918,-2.7969,0.0,0.0,0.0,0.0,0.0,0.0,0.0,0.0,0.0,0.0,0.0,0.0,0.0,0.0,0.0,0.0,0.0,0.0,0.0,0.0,0.0,0.0,0.0,0.0,0.0,0.0,0.0,0.0,0.0,0.0,0.0,0.0,-2.0703,-2.1523,0.0,0.0,0.0,0.0,0.0,0.0,0.0,0.0,0.0,0.0,0.0,0.0,0.0,0.0,-2.8116,-2.8616,-2.9106,-2.9672,-3.0431,-3.0976,-3.1055,-3.1493,-3.2043,-3.2786,-3.2735,0.0,-2.7082,-2.6435,0.0,0.0,0.0,0.0,0.0,0.0,0.0,0.0,0.0,0.0,0.0,0.0,0.0,0.0,0.0,0.0,0.0,0.0,0.0,0.0,0.0,0.0,-2.5527,-2.6094,-2.6504,-2.6719,0.0,-2.5703,-2.4961,-2.4902,-2.4781,0.0,0.0,0.0,0.0,0.0,0.0,0.0,-3.1104,-3.0036,-2.9741,-3.1087,-3.178,-3.2168,-3.2168,-3.25,-3.2168,-3.0879,-2.9922,-2.8984,-2.8086,-2.7369,0.0,0.0,0.0,0.0,0.0,0.0,0.0,0.0,0.0,0.0,0.0,0.0,0.0,0.0,0.0,0.0,0.0,0.0,0.0,0.0,0.0,0.0,0.0,0.0,0.0,0.0,0.0,0.0,0.0,-2.2028,-2.2695,-2.1641,-2.3184,-2.4028,0.0,0.0,0.0,0.0,0.0,0.0,0.0,0.0,0.0,-2.8264,-2.8819,-2.9682,-3.0689,-3.1398,-3.2235,-3.312,-3.374,-3.4226,-3.4766,-3.491,-3.5409,-3.5811,-3.4831,-3.3206,-3.1156,-2.9789,-2.8564,-2.7381,0.0,0.0,0.0,0.0,-2.5857,-2.6251,-2.6302,-2.6525,0.0,-2.6827,0.0,0.0,0.0,0.0,0.0,0.0,0.0,0.0,0.0,0.0,-2.7285,-2.7715,-2.832,-2.875,-2.8496,-2.8008,-2.7305,0.0,-2.6406,-2.6979,-2.8044,0.0,0.0,0.0,0.0,0.0,-2.9964,-2.9353,-2.9252,-3.0799,-3.166,-3.2168,-3.2168,-3.2773,-3.2715,-3.168,-3.0781,-2.9922,-2.9043,-2.8184,-2.7617,0.0,0.0,0.0,0.0,0.0,0.0,0.0,0.0,0.0,0.0,0.0,0.0,0.0,0.0,0.0,0.0,0.0,0.0,0.0,0.0,0.0,0.0,0.0,0.0,0.0,0.0,0.0,0.0,-2.376,-2.4277,-2.2148,-2.4551,-2.5625,0.0,0.0,0.0,0.0,0.0,0.0,-2.668,-2.8047,-2.9479,-3.069,-3.1746,-3.2621,-3.3644,-3.4212,-3.5181,-3.6353,-3.6814,-3.7365,-3.8144,-3.829,-3.8154,-3.7764,-3.614,-3.4942,-3.3821,-3.232,-3.0728,-2.9355,-2.8353,-2.7999,-2.7841,-2.7898,-2.7955,-2.8106,-2.8331,-2.8442,-2.8537,-2.7678,0.0,-2.7008,-2.6053,0.0,0.0,0.0,0.0,-2.6523,-2.707,-2.7988,-2.8945,-2.959,-3.0234,-3.0625,-3.0293,-3.0234,-2.9687,0.0,-2.793,-2.8359,-2.8574,0.0,0.0,0.0,0.0,-2.7656,-2.9355,-2.9004,-2.9238,-3.0879,-3.1719,-3.2207,-3.2324,-3.3008,-3.3105,-3.2383,-3.1621,-3.082,-2.9941,-2.918,-2.8594,-2.8164,0.0,0.0,0.0,0.0,0.0,0.0,0.0,0.0,0.0,0.0,0.0,0.0,0.0,0.0,0.0,0.0,0.0,0.0,0.0,0.0,0.0,0.0,0.0,0.0,0.0,0.0,0.0,0.0,0.0,-2.3769,-2.6328,0.0,0.0,0.0,0.0,-2.623,-2.7383,-2.8476,-2.9336,-3.1016,-3.2615,-3.3854,-3.5146,-3.6334,-3.7609,-3.7649,-3.8161,-3.9004,-3.9495,-3.9948,-4.0371,-4.082,-3.9807,-3.7968,-3.7791,-3.632,-3.3947,-3.2557,-3.1531,-3.0763,-3.1951,-3.2261,-3.1907,-3.1918,-3.0682,-2.9012,-2.8638,-2.8264,-2.7727,-2.6786,-2.7037,-2.7355,-2.628,-2.691,0.0,0.0,-2.7832,-2.8359,-2.9199,-2.9746,-3.043,-3.1699,-3.2051,-3.207,-3.2051,-3.2031,-3.1406,0.0,-2.8535,-2.8555,-2.9375,0.0,-2.8848,-2.8906,-2.8848,-2.8984,-2.9512,-2.9531,-3.0019,-3.1348,-3.1894,-3.2324,-3.2734,-3.3164,-3.3242,-3.2793,-3.2344,-3.1719,-3.0859,-3.0351,-2.9902,-2.9492,-2.9774,0.0,0.0,0.0,0.0,0.0,0.0,0.0,0.0,0.0,0.0,0.0,0.0,0.0,0.0,0.0,0.0,0.0,0.0,0.0,0.0,0.0,0.0,0.0,0.0,0.0,0.0,0.0,0.0,-2.7519,-2.9922,0.0,0.0,-2.9004,-2.916,-2.8867,-3.0293,-3.1562,-3.2422,-3.416,-3.5611,-3.6978,-3.8007,-3.8227,-3.7481,-3.7704,-3.8043,-3.8345,-3.7054,-3.7309,-3.875,-3.7507,-3.6558,-3.5781,-3.4294,-3.3186,-3.2212,-3.1853,-3.1462,-3.1086,-3.059,-3.0153,-3.0089,-2.9894,-2.9427,-2.9077,-2.9077,-2.8943,-2.8577,-2.7263,-2.6591,-2.6139,-2.5644,-2.5761,-2.6284,-2.7573,-2.8063,-2.8648,-3.0432,-3.1152,-3.1582,-3.2051,-3.2383,-3.25,-3.2226,-3.2383,-3.2266,-3.1211,-3.0449,-2.9961,-2.998,-2.9629,-2.9434,-2.9707,-2.9512,-2.9492,-2.9922,-2.998,-3.0371,-3.1406,-3.166,-3.2031,-3.2734,-3.2676,-3.2559,-3.2402,-3.1738,-3.1074,-3.0469,-3.0019,-2.9726,-2.957,-2.9679,-2.987,0.0,0.0,0.0,0.0,0.0,0.0,0.0,0.0,0.0,0.0,0.0,0.0,0.0,0.0,0.0,0.0,0.0,0.0,0.0,0.0,0.0,0.0,0.0,0.0,0.0,0.0,-3.0078,-3.0215,-3.2773,-3.3789,-3.1934,-3.2196,-3.2256,-3.1959,-3.343,-3.4635,-3.5613,-3.6989,-3.7947,-3.8334,-3.8986,-3.846,-3.6782,-3.6911,-3.7048,-3.699,-3.5622,-3.579,-3.7042,-3.5642,-3.4601,-3.3771,-3.2282,-3.1234,-3.0576,-3.0476,-3.0454,-3.0449,-3.0521,-3.0584,-3.0454,-3.0211,-2.984,-2.943,-2.9341,-2.8749,-2.8038,-2.7352,-2.6542,-2.5851,-2.5529,-2.5613,-2.6189,-2.7565,-2.8058,-2.8604,-3.001,-3.129,-3.2112,-3.2112,-3.2845,-3.3359,-3.3086,-3.3125,-3.3105,-3.2676,-3.1894,-3.1172,-3.0723,-3.041,-3.0312,-3.0605,-3.0293,-3.0156,-3.0586,-3.0644,-3.0859,-3.1445,-3.1777,-3.2129,-3.2559,-3.2461,-3.2266,-3.1973,-3.1289,-3.0762,-3.0449,-3.0019,-2.9863,-3.0019,-2.9863,-2.9778,-2.9717,0.0,0.0,0.0,0.0,0.0,0.0,0.0,0.0,0.0,0.0,0.0,0.0,0.0,0.0,0.0,0.0,0.0,0.0,0.0,0.0,0.0,0.0,0.0,-2.5312,-2.9277,-3.2109,-3.1777,-3.4726,-3.5957,-3.3848,-3.4839,-3.5529,-3.5529,-3.6664,-3.7759,-3.8588,-3.9385,-3.9141,-3.7639,-3.8042,-3.7223,-3.549,-3.5311,-3.5394,-3.536,-3.5376,-3.5322,-3.539,-3.5406,-3.4245,-3.2208,-3.2223,-3.1052,-2.9018,-2.8724,-2.8604,-2.8879,-3.2476,-3.3591,-3.3296,-3.328,-3.2015,-3.0171,-2.939,-2.7749,-2.6162,-2.7172,-2.7053,-2.6511,-2.6032,-2.6907,-2.8035,-2.7814,-2.7959,-2.8354,-2.8488,-3.0104,-3.1863,-3.1881,-3.335,-3.4576,-3.4707,-3.4375,-3.3965,-3.3535,-3.2793,-3.207,-3.1621,-3.1543,-3.1543,-3.1543,-3.1191,0.0,-3.1484,-3.1543,-3.1543,-3.1582,-3.2305,-3.2637,-3.2246,-3.2559,-3.2402,-3.1562,-3.1094,-3.084,-3.082,-3.0391,-3.0391,-3.0859,-3.043,-2.9785,-2.8965,0.0,0.0,0.0,0.0,0.0,0.0,0.0,0.0,0.0,0.0,0.0,0.0,0.0,0.0,0.0,0.0,0.0,0.0,0.0,0.0,0.0,0.0,-2.9043,-2.9258,-3.1758,-3.4316,-3.6387,-3.8301,-3.9219,-3.8633,-3.9235,-3.9425,-3.9149,-3.8406,-3.8097,-3.8374,-3.7337,-3.6568,-3.6503,-3.6352,-3.5287,-3.3426,-3.3309,-3.3186,-3.3227,-3.1787,-3.1888,-3.3059,-3.2033,-3.0797,-2.9886,-3.0106,-2.9743,-2.9018,-2.8724,-2.8604,-2.8735,-2.9481,-2.9756,-2.9656,-2.9428,-2.8711,-2.8029,-2.7863,-2.7445,-2.6988,-2.6991,-2.6776,-2.646,-2.6075,-2.5945,-2.6139,-2.7326,-2.762,-2.791,-2.918,-2.9748,-3.0462,-3.185,-3.2466,-3.3066,-3.4425,-3.4609,-3.4492,-3.4375,-3.3926,-3.3223,-3.2168,-3.1992,-3.1992,-3.1992,-3.1894,0.0,-3.1973,-3.1992,-3.2226,-3.2832,-3.2832,-3.2871,-3.3066,-3.2617,-3.1973,-3.1113,-3.0351,-2.9785,-2.9473,-2.9336,-2.9629,-3.0371,-3.0254,-3.0078,0.0,0.0,0.0,0.0,0.0,0.0,0.0,0.0,0.0,0.0,0.0,0.0,0.0,0.0,0.0,0.0,0.0,0.0,0.0,0.0,0.0,0.0,-3.0137,-3.2363,-3.3887,-3.5019,-3.6601,-3.9101,-4.0371,-4.1191,-4.1562,-4.1778,-4.1483,-4.0491,-3.9502,-3.861,-3.7566,-3.651,-3.5605,-3.4972,-3.4895,-3.3736,-3.1861,-3.1819,-3.169,-3.1663,-3.0643,-3.0629,-3.1678,-3.0641,-3.01,0.0,-2.9953,-2.986,-2.9566,-2.9272,-2.9085,0.0,0.0,0.0,0.0,0.0,-2.7776,-2.7615,-2.7495,-2.7442,-2.7402,-2.7108,-2.6894,-2.6707,-2.6413,-2.6079,-2.5913,-2.6696,-2.6937,-2.6901,-2.7777,-2.8619,-2.9298,-3.0277,-3.092,-3.1979,-3.376,-3.386,-3.4013,-3.4848,-3.4629,0.0,-3.3359,-3.2773,-3.2422,-3.2422,-3.2285,-3.2226,-3.2402,-3.2422,-3.2559,-3.2871,-3.2988,-3.2949,-3.2656,-3.2344,0.0,0.0,0.0,-2.9726,-2.9473,-2.9648,0.0,0.0,0.0,-3.0488,-3.0488,0.0,0.0,0.0,-3.0801,-3.1317,0.0,0.0,0.0,0.0,0.0,0.0,0.0,0.0,0.0,0.0,0.0,0.0,0.0,0.0,0.0,0.0,-3.2603,-3.5182,-3.8078,-3.8067,-3.8303,-4.0144,-4.0913,-4.1522,-4.2356,-4.2508,-4.1817,-4.0037,-3.9694,-3.8528,-3.628,0.0,0.0,0.0,0.0,-3.2597,-3.0982,-3.0956,-3.0863,-3.0889,-3.0929,-3.0929,-3.0889,-3.0929,-3.0902,-3.0849,-3.0849,-3.0675,-3.0381,-3.0047,-2.9726,-2.9352,-2.8524,-2.819,-2.819,-2.8163,-2.8136,-2.811,-2.7843,0.0,0.0,-2.7442,-2.7348,-2.7268,-2.7001,-2.6894,-2.676,-2.6213,-2.6052,-2.5985,-2.5692,-2.6932,-2.8177,-2.8015,-2.9367,-3.0982,-3.265,-3.2556,-3.2856,-3.4545,-3.4699,-3.4502,-3.4502,-3.3622,-3.2949,-3.2949,-3.2578,-3.2441,-3.2812,-3.2871,-3.2734,-3.2422,0.0,0.0,-3.1836,-3.2051,-3.168,-3.0351,-3.0176,-3.0137,-3.0137,-3.0566,-3.082,-3.082,-3.0859,-3.0898,-3.0898,-3.0937,-3.0937,-3.0879,-3.132,-3.1594,0.0,0.0,0.0,0.0,0.0,0.0,0.0,0.0,0.0,0.0,0.0,0.0,0.0,0.0,0.0,-3.291,-3.4228,-3.5609,-3.7922,-3.7073,-3.7197,-3.934,-3.8723,-3.8032,-3.8199,-3.8502,-3.8628,-3.8429,-3.673,-3.5579,-3.5338,-3.3685,0.0,-3.2425,-3.2149,-3.1961,-3.1891,-3.1664,-3.153,-3.1503,0.0,0.0,-3.1503,-3.1744,-3.1597,-3.1142,-3.1142,-3.0982,-3.0675,-3.014,-2.9606,-2.9085,-2.8671,-2.8524,-2.8484,-2.823,-2.8136,-2.8136,-2.8083,-2.8056,-2.8043,-2.7989,-2.7816,-2.7602,-2.7549,-2.7362,0.0,-2.676,-2.6653,-2.6587,-2.6293,-2.6351,-2.6752,-2.835,-2.8717,-2.9384,-3.1201,-3.1337,-3.1229,-3.1657,-3.2382,-3.2874,-3.2874,-3.35,-3.3828,-3.3828,-3.3457,-3.3203,-3.3281,-3.3301,-3.3398,-3.3672,-3.3848,-3.3711,-3.3105,-3.2812,-3.2129,-3.084,-3.0078,-2.9687,-2.9687,-3.0098,-3.0332,-3.0332,-3.0703,-3.0898,-3.0898,-3.123,-3.123,-3.0898,-3.1289,-3.1465,0.0,0.0,0.0,0.0,0.0,0.0,0.0,0.0,0.0,0.0,0.0,-2.7656,-2.875,0.0,-3.3096,-3.4233,-3.5448,-3.6534,-3.729,-3.6107,-3.6067,-3.815,-3.7775,-3.7447,-3.81,-3.8349,-3.8157,-3.7238,-3.6089,-3.4923,-3.3823,-3.2861,-3.2257,-3.2443,-3.2291,-3.2171,-3.2318,-3.2185,-3.2104,-3.2104,-3.2251,-3.2251,-3.2104,-3.2104,-3.1944,-3.165,-3.1517,-3.1276,-3.0982,-3.0541,-3.01,-2.9673,-2.9379,-2.8991,-2.8604,-2.8591,-2.8404,-2.8163,-2.8323,-2.827,-2.8136,-2.8136,-2.8043,-2.7923,-2.7923,-2.7816,-2.7642,-2.7348,-2.7255,-2.7201,-2.6907,-2.6613,-2.6662,-2.7423,-2.7466,-2.764,-2.939,-2.9649,-2.9818,-3.0827,-3.1414,-3.2156,-3.3178,-3.3495,-3.3785,-3.4323,-3.4199,-3.4062,-3.4062,-3.4062,-3.4141,-3.4355,-3.4394,-3.4121,-3.3476,-3.2637,-3.1894,-3.125,-3.0586,-3.0234,-3.0234,-3.043,-3.0547,-3.0547,-3.0976,-3.1211,-3.1211,-3.1641,-3.1738,-3.1543,-3.1953,-3.1934,0.0,0.0,0.0,0.0,0.0,0.0,0.0,0.0,-2.6953,-2.7734,-2.9258,-3.0898,-3.2383,-3.4492,-3.5812,-3.5154,-3.6496,-3.7101,-3.628,-3.4879,-3.4721,-3.6396,-3.6515,-3.6956,-3.7788,-3.7889,-3.7233,-3.5777,-3.5672,-3.4654,-3.2946,-3.2786,-3.2719,-3.2719,-3.2719,-3.2719,-3.2719,-3.2719,-3.2719,-3.2719,-3.2719,-3.2719,-3.2706,-3.2412,-3.2278,-3.2251,-3.1904,-3.1557,-3.1209,-3.0969,-3.0702,-3.0421,-3.0181,-2.9579,-2.8871,-2.8991,-2.8698,-2.827,-2.8524,-2.8404,-2.8136,-2.8136,-2.8136,-2.8136,-2.8136,-2.8136,-2.8083,-2.7789,-2.7696,-2.7629,-2.7348,-2.7094,-2.6854,-2.6613,-2.6333,-2.652,-2.7769,-2.8066,-2.8416,-2.9884,-3.0415,-3.1252,-3.2878,-3.3233,-3.3688,-3.4813,-3.4883,-3.4805,-3.4707,-3.4785,-3.4805,-3.4707,-3.4707,-3.4394,-3.3613,-3.2519,-3.1855,-3.1777,-3.1367,-3.1133,-3.1133,-3.1133,-3.1133,-3.1133,-3.1465,-3.1641,-3.1641,-3.207,-3.2246,-3.2187,-3.2676,-3.25,-2.2502,-2.3355,-2.4219,-2.5723,-2.584,-2.6191,0.0,0.0,-3.0449,-3.0918,-3.2383,-3.375,-3.4316,-3.6504,-3.7901,-3.685,-3.6856,-3.6638,-3.4941,-3.33,-3.2586,-3.3478,-3.3367,-3.3132,-3.2813,-3.3229,-3.3365,-3.3359,-3.332,-3.3387,-3.3347,-3.332,-3.332,-3.332,-3.332,-3.332,-3.332,-3.332,-3.332,-3.332,-3.332,-3.332,-3.3307,-3.3013,-3.2879,-3.2853,-3.2291,-3.1744,-3.1223,-3.1196,-3.1009,-3.0742,-3.0715,-3.0314,-2.9713,-2.9219,-2.8831,-2.8564,-2.8591,-2.8404,-2.8136,-2.8136,-2.8136,-2.8136,-2.8136,-2.8136,-2.8083,-2.7789,-2.7696,-2.7629,-2.7348,-2.7241,-2.7201,-2.7175,-2.6947,-2.672,-2.7,-2.6581,-2.6357,-2.6512,-2.7777,-2.8777,-2.9061,-3.1772,-3.4513,-3.5704,-3.5566,-3.5176,-3.4746,-3.5059,-3.5156,-3.4746,-3.4707,-3.4512,-3.4043,-3.3516,-3.3047,-3.2676,-3.2266,-3.2031,-3.2031,-3.2031,-3.2031,-3.2031,-3.207,-3.209,-3.209,-3.2519,-3.2539,-3.2187,-3.2988,-3.3105,-2.2045,-2.2965,0.0,0.0,-2.4837,-2.5856,-2.747,-2.8616,-2.9501,-3.0223,-3.2683,-3.4778,-3.445,-3.6849,-3.7914,0.0,-3.5241,-3.4985,-3.3343,-3.2695,-3.2278,-3.227,-3.2471,-3.27,-3.2888,-3.2906,-3.3146,-3.3173,-3.3187,-3.32,-3.3414,-3.3414,-3.3414,-3.3414,-3.3414,-3.3414,-3.3414,-3.3414,-3.3414,-3.3414,-3.3414,-3.3414,-3.34,-3.3106,-3.2879,-3.2706,-3.2291,-3.1957,-3.1717,-3.1557,-3.1303,-3.1049,-3.1049,-3.0795,-3.0381,-2.9967,-2.9406,-2.8858,-2.8858,-2.8657,-2.8377,-2.8203,-2.8136,-2.8136,-2.8136,-2.8136,-2.8123,-2.7989,-2.7963,-2.7923,-2.7802,-2.7642,-2.7522,-2.7522,-2.7295,-2.7081,-2.7081,-2.6894,-2.6667,-2.6493,-2.6977,-2.7749,-2.8768,-3.0077,-3.1614,-3.3371,-3.5182,-3.6426,-3.623,-3.6172,-3.5976,-3.5508,-3.5254,-3.5039,-3.4863,-3.4199,-3.373,-3.3555,-3.291,-3.2539,-3.2539,-3.2305,-3.2168,-3.2168,-3.2402,-3.2539,-3.2539,-3.2949,-3.3066,-3.291,-3.3262,-3.332,-2.2031,0.0,0.0,-2.3764,-2.49,-2.6328,-2.7439,-2.8755,-2.9954,-3.0905,-3.3399,-3.533,-3.4844,-3.6797,0.0,-3.4355,-3.4533,-3.4347,-3.2597,-3.2425,-3.2337,-3.1715,-3.1874,-3.2219,-3.2799,-3.312,-3.3293,-3.34,-3.3414,-3.3414,-3.3414,-3.3414,-3.3414,-3.3414,-3.3414,-3.3414,-3.3414,-3.3414,-3.3414,-3.3414,-3.3414,-3.3414,-3.34,-3.32,-3.2933,-3.2652,-3.2438,-3.2251,-3.2078,-3.1877,-3.161,-3.1343,-3.1343,-3.1169,-3.0889,-3.0675,-3.0034,-2.9272,-2.9192,-2.8925,-2.8577,-2.8337,-2.8217,-2.8136,-2.8136,-2.8136,-2.8136,-2.8136,-2.8136,-2.8136,-2.8136,-2.7989,-2.7816,-2.7816,-2.7602,-2.7388,-2.7388,-2.7321,-2.7201,-2.6987,-2.6947,-2.7323,-2.8404,-2.8924,-2.9502,-3.0918,-3.3968,-3.6074,-3.6437,-3.6732,-3.668,-3.625,-3.5937,-3.5703,-3.5586,-3.4863,-3.4434,-3.4434,-3.373,-3.332,-3.332,-3.3027,-3.2812,-3.2695,-3.2988,-3.3086,-3.2969,-3.3281,-3.3418,-3.3418,-3.3535,-3.3594,0.0,0.0,-2.4467,-2.5846,-2.701,-2.8364,-3.0367,-3.2146,-3.3629,-3.4682,-3.5426,-3.5975,-3.6208,-3.6862,-3.6562,-3.4713,-3.5301,-3.5217,-3.3178,-3.2391,-3.1915,-3.174,-3.1015,-3.0695,0.0,-3.2398,-3.3211,-3.3387,-3.3414,-3.3414,-3.3414,-3.3414,-3.3414,-3.3414,-3.3414,-3.3414,-3.3414,-3.3414,-3.3414,-3.3414,-3.3414,-3.3414,-3.3414,-3.34,-3.324,-3.2959,-3.2959,-3.2625,-3.2104,-3.2091,-3.1917,-3.165,-3.165,-3.1476,-3.1209,-3.1209,-3.0648,-2.9847,-2.9566,-2.9098,-2.8604,-2.8591,-2.839,-2.8136,-2.8136,-2.8136,-2.8136,-2.8136,-2.8136,-2.8136,-2.8136,-2.8136,-2.8123,-2.8123,-2.7896,-2.7682,-2.7682,-2.7468,-2.7268,-2.7255,-2.7255,-2.7161,-2.6854,-2.8517,-2.9807,-2.9479,-3.1252,-3.3109,-3.4144,-3.6096,-3.7109,-3.6699,-3.6641,-3.6465,-3.6035,-3.5605,-3.5351,-3.5351,-3.4902,-3.4648,-3.4648,-3.4629,-3.4434,-3.4023,-3.4023,-3.3828,-3.3398,-3.3418,-3.3418,-3.3437,-3.3848,-3.4062,0.0,0.0,-2.4818,-2.5598,-2.6673,-2.8004,-2.9575,-3.0581,-3.1065,-3.1339,-3.2407,-3.2905,-3.1227,-3.2495,-3.321,-3.1968,-3.2515,-3.312,-3.3036,-3.2866,-3.223,-3.0684,-3.0739,0.0,0.0,0.0,0.0,-3.3157,-3.3093,-3.3213,-3.34,-3.3414,-3.3414,-3.3414,-3.3414,-3.3414,-3.3414,-3.3414,-3.3414,-3.3414,-3.3414,-3.3414,-3.3414,-3.3414,-3.336,-3.3253,-3.3066,-3.2866,-3.2666,-3.2478,-3.2225,-3.1957,-3.1957,-3.177,-3.149,-3.1303,-3.0915,-3.0434,-2.994,-2.9646,-2.9406,-2.9018,-2.8698,-2.8457,-2.8457,-2.831,-2.8136,-2.8136,-2.8136,-2.8136,-2.8136,-2.8136,-2.8136,-2.8136,-2.807,-2.7989,-2.7989,-2.7909,-2.7789,-2.7589,-2.7549,-2.7455,-2.7161,-2.7743,-2.8655,-2.9804,-3.2632,-3.4574,-3.4648,-3.6368,-3.7559,-3.7129,-3.709,-3.7031,-3.6875,-3.6484,-3.625,-3.625,-3.5566,-3.5156,-3.5156,-3.4863,-3.4629,-3.4492,-3.4492,-3.4414,-3.4277,-3.4277,-3.4277,-3.4277,-3.4414,-3.4492,0.0,-2.4148,-2.58,-2.6383,-2.7509,-2.8644,-2.9713,-3.01,-3.0039,-2.965,-3.0041,-2.9873,-2.7977,-2.8705,-2.9603,-2.957,-3.0123,-3.0942,-3.2452,-3.2071,-3.1354,-3.0368,-3.0221,0.0,0.0,0.0,0.0,-3.2807,-3.2893,-3.3106,-3.34,-3.3414,-3.3414,-3.3414,-3.3414,-3.3414,-3.3414,-3.3414,-3.3414,-3.3414,-3.3414,-3.3414,-3.3414,-3.3414,-3.3414,-3.34,-3.3213,-3.3013,-3.2812,-3.2625,-3.2305,-3.1944,-3.1944,-3.1837,-3.165,-3.145,-3.1196,-3.0862,-3.0274,-2.994,-2.97,-2.9325,-2.9005,-2.8764,-2.8764,-2.8551,-2.831,-2.831,-2.823,-2.8136,-2.8136,-2.8136,-2.8136,-2.8136,-2.8136,-2.8136,-2.8136,-2.8136,-2.8083,-2.7896,-2.7856,-2.7762,-2.7468,-2.7335,-2.7744,-2.9001,-3.1668,-3.3954,-3.5092,-3.6897,-3.7988,-3.7559,-3.7519,-3.7461,-3.7305,-3.7051,-3.6894,-3.6894,-3.623,-3.5859,-3.5859,-3.541,-3.5098,-3.4941,-3.4941,-3.4863,-3.4707,-3.4707,-3.4707,-3.4707,-3.4863,-3.4941,-2.5693,-2.6655,-2.7241,-2.8444,-2.9579,-3.0474,-3.0768,-3.0835,-3.0544,-2.9896,-2.863,-2.7319,0.0,0.0,-2.5777,-2.788,-2.8261,-2.9165,-3.1784,-3.0728,-2.9967,0.0,0.0,0.0,0.0,0.0,0.0,-3.2398,0.0,-3.3053,-3.3387,-3.3414,-3.3414,-3.3414,-3.3414,-3.3414,-3.3414,-3.3414,-3.3414,-3.3414,-3.3414,-3.3414,-3.3414,-3.3414,-3.3414,-3.3414,-3.3414,-3.3093,-3.2572,-3.2572,-3.2225,-3.169,-3.169,-3.1677,-3.1664,-3.1664,-3.1476,-3.1129,-3.0595,-3.002,-2.9526,-2.9513,-2.9312,-2.9058,-2.9058,-2.8845,-2.8604,-2.8604,-2.8377,-2.8136,-2.8136,-2.8136,-2.8136,-2.8136,-2.8136,-2.8136,-2.8136,-2.8136,-2.8136,-2.8136,-2.8136,-2.8056,-2.7762,-2.7495,-2.7308,-2.7308,-2.8948,-3.1527,-3.5369,-3.7314,-3.8273,-3.8008,-3.7969,-3.7793,-3.7402,-3.7344,-3.7324,-3.7324,-3.6934,-3.6699,-3.668,-3.6289,-3.5879,-3.543,-3.5449,-3.5234,-3.4766,-3.4766,-3.4766,-3.4785,-3.5215,-3.543,-2.6836,-2.777,-2.9085,-3.0261,-3.0782,-3.1089,-3.1383,-3.0805,-2.9685,-2.8496,-2.7012,-2.5398,0.0,0.0,0.0,-2.7243,-2.8843,0.0,-3.2478,-3.2559,0.0,0.0,0.0,-3.1049,-3.0608,-3.0902,0.0,0.0,-3.2211,-3.2412,-3.336,-3.3414,-3.3414,-3.3414,-3.3414,-3.3414,-3.3414,-3.3414,-3.3414,-3.3414,-3.3414,-3.3414,-3.3414,-3.3414,-3.3414,-3.3414,-3.3414,-3.32,-3.2866,-3.2866,-3.2519,-3.1984,-3.1984,-3.1864,-3.1664,-3.1664,-3.1343,-3.0915,-3.0982,-3.0621,-3.01,-2.9873,-2.9606,-2.9366,-2.9366,-2.9018,-2.8604,-2.8604,-2.8377,-2.8136,-2.8136,-2.8136,-2.8136,-2.8136,-2.8136,-2.8136,-2.8136,-2.8136,-2.8136,-2.8136,-2.8136,-2.8123,-2.8043,-2.7963,-2.7923,-2.7923,-3.0884,-3.3171,-3.3563,-3.5149,-3.6848,-3.8273,-3.8418,-3.8359,-3.8262,-3.7949,-3.7773,-3.7773,-3.7363,-3.6992,-3.668,-3.6875,-3.6621,-3.5879,-3.6172,-3.6133,-3.5684,-3.5684,-3.5684,-3.5684,-3.5801,-3.5859,-2.88,-2.9392,-3.0662,-3.157,-3.1704,-3.1447,-3.0803,-2.9935,-2.866,-2.6646,-2.5348,0.0,0.0,0.0,0.0,0.0,0.0,0.0,-3.2412,-3.2492,-3.2198,0.0,-3.1944,0.0,-3.141,-3.1557,-3.1971,0.0,-3.2425,-3.2585,-3.3374,-3.3414,-3.3414,-3.3414,-3.3414,-3.3414,-3.3414,-3.3547,-3.3547,-3.3414,-3.3414,-3.3414,-3.3414,-3.3414,-3.3414,-3.3414,0.0,-3.324,-3.2973,-3.2839,-3.2519,-3.2091,-3.1957,-3.181,-3.165,-3.1517,-3.1183,-3.0795,-3.0835,-3.0541,-3.0154,-3.0127,-2.9913,-2.9673,-2.9673,-2.9259,-2.8804,-2.8804,-2.8484,-2.8136,-2.8136,-2.8136,-2.8136,-2.8136,-2.8136,-2.8136,-2.8136,-2.8136,-2.8136,-2.8136,-2.8136,-2.8136,-2.8136,-2.8136,-2.8136,-2.8136,-3.0001,-3.1734,-3.3247,-3.5816,-3.7895,-3.9012,-3.8965,-3.8848,-3.8848,-3.8457,-3.8203,-3.8203,-3.7812,-3.7461,-3.7226,-3.7266,-3.707,-3.6582,-3.6816,-3.6738,-3.6309,-3.6484,-3.6387,-3.6016,-3.6211,-3.6211,-3.0808,-3.1169,-3.1971,-3.2478,-3.2318,-3.1574,-2.9911,-2.8626,-2.7108,-2.4531,0.0,-2.3304,-2.0939,0.0,-2.3681,-2.5093,0.0,-2.8297,-3.2171,-3.181,-3.1637,-3.3,-3.2478,-3.2118,-3.2372,-3.2171,-3.2318,-3.304,-3.3093,-3.3187,-3.34,-3.3414,-3.3427,-3.3467,-3.3427,-3.3454,-3.3534,-3.3774,-3.3748,-3.3467,-3.3467,-3.3454,-3.3414,-3.3414,-3.3414,-3.3414,0.0,0.0,-3.2959,-3.2706,-3.2398,-3.2078,-3.1824,-3.1704,-3.1637,-3.133,-3.1036,-3.0755,-3.0501,-3.0194,-2.9967,-3.0221,-3.0127,-2.9913,-2.9913,-2.9513,-2.9045,-2.9085,-2.8644,-2.815,-2.819,-2.8177,-2.8136,-2.8136,-2.8136,-2.8136,-2.8136,-2.8136,-2.8136,-2.8136,-2.8136,-2.8136,-2.8136,-2.8136,-2.8136,-2.8136,-2.8244,-2.9692,-3.3548,-3.7012,-3.9259,-3.9902,-3.9531,-3.9277,-3.9199,-3.8867,-3.8633,-3.8574,-3.8223,-3.7988,-3.793,-3.7637,-3.7422,-3.7305,-3.7344,-3.7168,-3.6758,-3.7129,-3.6894,-3.6113,-3.6484,-3.6445,-3.1607,-3.2078,-3.2772,-3.2879,-3.2318,-3.1356,-2.9515,-2.7649,0.0,0.0,0.0,-2.2412,-2.002,-2.164,0.0,-2.5905,0.0,0.0,0.0,0.0,-3.324,0.0,0.0,0.0,0.0,0.0,0.0,0.0,0.0,-3.3641,-3.3427,-3.3414,-3.3534,-3.3801,-3.3547,-3.3654,-3.4162,-3.3975,-3.3855,-3.3801,-3.3801,-3.3668,-3.3414,-3.3414,-3.3414,-3.3414,-3.3414,0.0,-3.2973,-3.2919,-3.2585,-3.2104,-3.2051,-3.1877,-3.1637,-3.133,-3.1036,-3.0782,-3.0742,-3.0368,-2.9927,-2.998,-2.9953,-2.9913,-2.9913,-2.9513,-2.9085,-2.9339,-2.8804,-2.8203,-2.8457,-2.8337,-2.8136,-2.8136,-2.8136,-2.8136,-2.8136,-2.8136,-2.8136,-2.8136,-2.8136,-2.8136,-2.8136,-2.8136,-2.8136,-2.8136,-2.9731,-3.1632,-3.4245,-3.4626,-3.6106,-3.9581,-3.9824,-3.9609,-3.9238,-3.9141,-3.8945,-3.8594,-3.8496,-3.8301,-3.7949,-3.8203,-3.8027,-3.7305,-3.7637,-3.7617,-3.7187,-3.7266,-3.7051,-3.6562,-3.6641,-3.6445,-3.2545,-3.2772,-3.316,-3.3013,-3.1971,-3.0448,-2.822,0.0,0.0,0.0,0.0,-2.2434,-2.1203,0.0,0.0,0.0,0.0,0.0,0.0,0.0,0.0,0.0,0.0,0.0,0.0,0.0,0.0,0.0,0.0,-3.3748,-3.3427,-3.3574,-3.3734,-3.3881,-3.4042,-3.4175,-3.4322,-3.4189,-3.4042,-3.3881,-3.3721,-3.3561,-3.3414,-3.3414,-3.3414,-3.3414,-3.3414,0.0,-3.3187,-3.304,-3.2719,-3.2318,-3.2158,-3.1931,-3.161,-3.1169,-3.0915,-3.0755,-3.0448,-3.0154,-2.9913,-2.9913,-2.9913,-2.9913,-2.9913,-2.9619,-2.9299,-2.9446,-2.9058,-2.8604,-2.8604,-2.8497,-2.8337,-2.8177,-2.8136,-2.8136,-2.8136,-2.8136,-2.8136,-2.8136,-2.8136,-2.8136,-2.8136,-2.8136,-2.8136,-2.8136,-2.9118,-3.091,-3.4327,-3.4354,-3.5746,-4.0086,-4.0351,-4.0137,-3.9902,-3.9687,-3.9375,-3.8926,-3.8906,-3.8809,-3.8594,-3.8574,-3.8476,-3.8281,-3.8281,-3.8047,-3.7617,-3.7851,-3.7637,-3.7012,-3.7226,-3.709,-3.3184,-3.3187,-3.3347,-3.3053,-3.1517,-2.9472,-2.6809,-2.4516,0.0,0.0,-2.222,-2.3068,-2.2536,0.0,0.0,0.0,0.0,0.0,0.0,0.0,0.0,0.0,0.0,0.0,0.0,0.0,0.0,0.0,0.0,0.0,-3.3427,-3.3654,-3.3814,-3.3881,-3.4269,-3.4429,-3.4322,-3.4255,-3.4108,-3.3881,-3.3627,-3.348,-3.3414,-3.3414,-3.3414,-3.3414,-3.3414,0.0,0.0,-3.3093,-3.2812,-3.2519,-3.2211,-3.1931,-3.161,-3.1076,-3.0849,-3.0715,-3.0194,-2.9967,-2.9913,-2.9913,-2.9913,-2.99,-2.9847,-2.9659,-2.9486,-2.9486,-2.9272,-2.8991,-2.8764,-2.8657,-2.8524,-2.8217,-2.8136,-2.8136,-2.8136,-2.8136,-2.8136,-2.8136,-2.819,-2.8217,-2.815,-2.819,-2.8217,-2.815,-2.8136,-2.9774,-3.4164,-3.4651,-3.6442,-4.0685,-4.0859,-4.0625,-4.0527,-4.0215,-3.9844,-3.9375,-3.9355,-3.9355,-3.9355,-3.8945,-3.8906,-3.9336,-3.8848,-3.8457,-3.8203,-3.8457,-3.8184,-3.7441,-3.7773,-3.7695,-3.2719,-3.3187,-3.3347,-3.3053,-3.1049,-2.8537,-2.6172,0.0,0.0,-2.1026,-2.2749,-2.4228,-2.2749,-2.3734,0.0,0.0,-2.4494,-2.5739,0.0,0.0,0.0,0.0,0.0,0.0,0.0,0.0,0.0,0.0,0.0,0.0,-3.3427,-3.344,-3.3587,-3.3881,-3.3654,-3.3788,-3.4309,-3.4055,-3.3908,-3.3881,-3.3855,-3.3694,-3.3414,-3.3414,-3.3414,-3.3414,-3.3414,0.0,0.0,-3.3093,-3.2812,-3.2519,-3.2211,-3.1931,-3.1623,-3.1303,-3.1022,-3.0742,-3.0434,-3.014,-2.9913,-2.9913,-2.9913,-2.986,-2.9606,-2.9499,-2.9486,-2.9486,-2.9272,-2.9032,-2.9005,-2.8804,-2.8524,-2.8217,-2.8136,-2.8136,-2.8136,-2.8136,-2.8136,-2.8136,-2.8377,-2.847,-2.819,-2.8377,-2.847,-2.819,-2.8136,-2.9774,-3.4164,-3.4651,-3.6442,-4.0685,-4.1133,-4.0957,-4.0566,-4.0488,-4.0273,-3.9863,-3.9824,-3.9824,-3.9824,-3.9394,-3.9355,-3.9824,-3.9004,-3.875,-3.9082,-3.875,-3.834,-3.7871,-3.791,-3.7695,-3.2149,-3.2919,-3.3293,-3.2839,-3.0327,-2.7495,-2.5665,0.0,-2.2139,-2.1603,-2.269,-2.3881,-2.4336,-2.4072,-2.3788,-2.4182,-2.2875,-2.2937,0.0,0.0,0.0,0.0,0.0,0.0,0.0,0.0,0.0,0.0,0.0,0.0,-3.3721,-3.3694,-3.3761,-3.3881,-3.3935,-3.4082,-3.4322,-3.4028,-3.3881,-3.3881,-3.3694,-3.3534,-3.3414,-3.3414,-3.3414,-3.3414,-3.3414,0.0,0.0,-3.3093,-3.2812,-3.2519,-3.2211,-3.1931,-3.1637,-3.133,-3.1036,-3.0755,-3.0461,-3.0167,-2.9913,-2.9913,-2.9913,-2.99,-2.978,-2.9619,-2.9526,-2.97,-2.9659,-2.9526,-2.9352,-2.8965,-2.8524,-2.8217,-2.8136,-2.8136,-2.8136,-2.8283,-2.8364,-2.8177,-2.8537,-2.8711,-2.823,-2.8404,-2.8497,-2.819,-2.8136,-2.9286,-3.2381,-3.3839,-3.5799,-3.8882,-4.0353,-4.1094,-4.0937,-4.0918,-4.0723,-4.0293,-4.0273,-4.0273,-4.0273,-3.9844,-3.9824,-4.0273,-3.9414,-3.9043,-3.9199,-3.8789,-3.8476,-3.832,-3.832,-3.8223,-3.162,-3.253,-3.2919,-3.2519,-2.9686,-2.68,0.0,-2.3623,-2.2025,-2.2345,-2.309,-2.397,-2.5276,-2.4487,-2.3749,-2.4032,-2.2599,-2.2162,-2.4201,0.0,0.0,0.0,0.0,0.0,0.0,0.0,0.0,0.0,0.0,0.0,0.0,-3.3935,-3.3841,-3.3748,-3.3948,-3.4055,-3.4055,-3.3855,-3.3748,-3.3748,-3.3521,-3.3414,-3.3414,-3.3414,-3.3414,-3.3414,0.0,0.0,0.0,-3.3,-3.2732,-3.2505,-3.2118,-3.1851,-3.1637,-3.1436,-3.1116,-3.0768,-3.0555,-3.0234,-2.9913,-2.9913,-2.986,-2.9806,-2.9887,-2.9766,-2.9633,-2.9753,-2.9726,-2.9593,-2.9299,-2.8845,-2.8417,-2.819,-2.8136,-2.8136,-2.8136,-2.839,-2.8537,-2.8323,-2.8764,-2.9005,-2.8497,-2.8671,-2.8764,-2.8457,-2.8337,-2.9102,-3.1209,-3.3413,-3.546,-3.7737,-3.9864,-4.1172,-4.1172,-4.1172,-4.1035,-4.0742,-4.0723,-4.0723,-4.0723,-4.0312,-4.0273,-4.0703,-3.9844,-3.9414,-3.9414,-3.8965,-3.8769,-3.8769,-3.8769,-3.8828,-3.1353,-3.2028,-3.2118,-3.2104,-2.9232,-2.6391,0.0,-2.4807,-2.2988,-2.3036,-2.4087,-2.5059,-2.5078,-2.5078,-2.4852,-2.4235,-2.4396,-2.4556,-2.4491,0.0,0.0,0.0,0.0,0.0,0.0,0.0,0.0,0.0,0.0,0.0,0.0,-3.4042,-3.3748,-3.3427,-3.3414,-3.3427,-3.3427,-3.3414,-3.3414,-3.3414,-3.3414,-3.3414,-3.3414,-3.3414,-3.3414,0.0,0.0,0.0,0.0,-3.2786,-3.2545,-3.2492,-3.1904,-3.1677,-3.1664,-3.1664,-3.1289,-3.0795,-3.0795,-3.0408,-2.9913,-2.9913,-2.9726,-2.9539,-2.9833,-2.9913,-2.9847,-2.9566,-2.9272,-2.8978,-2.8684,-2.8377,-2.815,-2.8136,-2.8136,-2.8136,-2.8136,-2.839,-2.8604,-2.8604,-2.9072,-2.9379,-2.9085,-2.9272,-2.9379,-2.9072,-2.8791,-2.9418,-3.1549,-3.3556,-3.546,-3.7737,-3.9864,-4.1172,-4.1172,-4.1172,-4.1172,-4.1172,-4.1172,-4.1172,-4.1172,-4.0742,-4.0723,-4.1152,-4.0332,-3.9883,-3.9883,-3.9414,-3.9199,-3.9199,-3.9199,-3.9453,-2.7822,-2.8719,-2.9522,-2.777,-2.5331,-2.3528,-2.381,-2.2883,-2.2112,-2.2522,-2.3429,-2.4277,-2.457,-2.4629,-2.4811,-2.5557,-2.5374,-2.4959,-2.4483,0.0,0.0,0.0,0.0,0.0,0.0,0.0,0.0,0.0,0.0,0.0,0.0,-3.4229,-3.3948,-3.3427,-3.3414,-3.3414,-3.3414,-3.3414,-3.3414,-3.3414,-3.3414,-3.3414,-3.3414,-3.3414,0.0,0.0,0.0,0.0,0.0,-3.2478,-3.2238,-3.2198,-3.1824,-3.1664,-3.1637,-3.1436,-3.1129,-3.0768,-3.0568,-3.0247,-2.9913,-2.9913,-2.986,-2.9793,-2.9887,-2.9633,-2.9299,-2.9205,-2.9112,-2.8965,-2.8684,-2.8537,-2.8404,-2.819,-2.831,-2.8457,-2.8457,-2.8858,-2.9152,-2.8938,-2.9379,-2.9619,-2.9125,-2.9285,-2.9379,-2.9085,-2.8965,-2.899,-2.9616,-3.2798,-3.5095,-3.5655,-3.904,-4.1172,-4.1172,-4.1172,-4.1172,-4.1172,-4.1172,-4.1172,-4.1172,-4.1035,-4.1035,-4.1172,-4.0605,-4.0332,-4.0332,-3.9883,-3.9668,-3.9668,-3.9668,-3.9766,0.0,-2.6653,-2.7049,-2.5834,-2.3763,-2.2328,-2.3078,-2.2608,-2.2137,-2.2832,-2.34,-2.3867,-2.4141,-2.418,-2.4551,-2.5703,-2.5591,-2.5035,-2.4298,0.0,0.0,0.0,0.0,0.0,0.0,0.0,0.0,0.0,0.0,0.0,0.0,-3.4162,-3.3935,-3.3427,-3.3414,-3.3414,-3.3414,-3.3414,-3.3414,-3.3414,-3.3414,-3.3414,-3.3414,-3.3414,0.0,0.0,0.0,0.0,0.0,-3.2305,-3.2104,-3.2078,-3.1784,-3.1664,-3.1637,-3.133,-3.1036,-3.0755,-3.0461,-3.0167,-2.9913,-2.9913,-2.9847,-2.9713,-2.9486,-2.9325,-2.9179,-2.9072,-2.9045,-2.8965,-2.8684,-2.8684,-2.8724,-2.8524,-2.8631,-2.8764,-2.8764,-2.9152,-2.9432,-2.9245,-2.9593,-2.9793,-2.9432,-2.9526,-2.9579,-2.9392,-2.9272,-2.9138,-2.8965,-3.2555,-3.5097,-3.4882,-3.7827,-4.0353,-4.1172,-4.1172,-4.1172,-4.1172,-4.1172,-4.1172,-4.1172,-4.1172,-4.1172,-4.1172,-4.0898,-4.0684,-4.0527,-4.0254,-4.0137,-4.0137,-4.0293,-4.0371,0.0,-2.5625,-2.5125,-2.5432,-2.3912,-2.2737,-2.4016,-2.3516,0.0,0.0,0.0,-2.375,-2.3789,-2.3809,-2.4121,-2.5019,-2.5215,-2.4983,-2.4119,0.0,0.0,0.0,0.0,0.0,0.0,0.0,0.0,0.0,0.0,0.0,0.0,-3.3881,-3.3748,-3.3427,-3.3414,-3.3414,-3.3414,-3.3414,-3.3414,-3.3414,-3.3387,-3.3374,-3.3374,-3.336,-3.32,0.0,0.0,0.0,0.0,-3.2198,-3.2064,-3.2051,-3.177,-3.1664,-3.1597,-3.1303,-3.1009,-3.0715,-3.0434,-3.0154,-2.9913,-2.9913,-2.9726,-2.9379,-2.8831,-2.9018,-2.9366,-2.9058,-2.8978,-2.8911,-2.8644,-2.8791,-2.9005,-2.9005,-2.9045,-2.9072,-2.9072,-2.9312,-2.9513,-2.9513,-2.9726,-2.9913,-2.9913,-2.9913,-2.9913,-2.9913,-2.9686,-2.9499,-2.9486,-3.2659,-3.4883,-3.5031,-3.6846,-3.8901,-4.1016,-4.1016,-4.1016,-4.1172,-4.1172,-4.1172,-4.1172,-4.1172,-4.1172,-4.1172,-4.1172,-4.0976,-4.0566,-4.0566,-4.0566,-4.0586,-4.0976,-4.1172,-2.1797,0.0,-2.3185,-2.2017,-2.1281,-2.1135,0.0,0.0,0.0,0.0,0.0,0.0,0.0,-2.4043,-2.4668,-2.5879,-2.6621,-2.6511,-2.4713,0.0,0.0,0.0,0.0,0.0,0.0,0.0,0.0,0.0,0.0,0.0,0.0,-3.3881,-3.3748,-3.3427,-3.3414,-3.3414,-3.3414,-3.3414,-3.3414,-3.3414,-3.3187,-3.308,-3.3066,-3.2853,-3.2706,0.0,0.0,0.0,-3.2185,-3.1891,-3.177,-3.1757,-3.169,-3.153,-3.1289,-3.1009,-3.0715,-3.0421,-3.0127,-2.998,-2.9913,-2.9913,-2.9726,-2.9459,-2.9325,-2.9058,-2.8751,-2.8444,-2.835,-2.8337,-2.827,-2.8484,-2.8711,-2.8711,-2.9058,-2.9379,-2.9379,-2.9606,-2.982,-2.982,-2.9873,-2.9913,-2.9913,-2.9913,-2.9913,-2.9913,-2.986,-2.974,-2.9513,-3.1512,-3.3489,-3.4883,-3.709,-3.9215,-4.1036,-3.9688,-3.9374,-4.1016,-4.1172,-4.1172,-4.1172,-4.1172,-4.1172,-4.1172,-4.1172,-4.1113,-4.1016,-4.1016,-4.1016,-4.1035,-4.1133,-4.1172,-2.041,-2.1221,-2.171,-2.0916,-2.0729,-2.1009,-2.1657,0.0,0.0,0.0,0.0,0.0,0.0,0.0,0.0,-2.5566,-2.5657,0.0,0.0,0.0,0.0,0.0,0.0,0.0,0.0,0.0,0.0,0.0,0.0,0.0,0.0,-3.3668,-3.3587,-3.3414,-3.328,-3.3213,-3.3213,-3.3213,-3.3146,-3.3013,-3.2853,-3.2786,-3.2772,-3.2612,-3.2478,0.0,0.0,0.0,-3.1891,-3.173,-3.1664,-3.165,-3.1517,-3.137,-3.1169,-3.0755,-3.0488,-3.0314,-3.002,-2.9913,-2.9873,-2.9606,-2.9406,-2.9232,-2.8951,-2.8644,-2.839,-2.8364,-2.835,-2.839,-2.8524,-2.8778,-2.9045,-2.9179,-2.9446,-2.9686,-2.9686,-2.9806,-2.9913,-2.9913,-2.9913,-2.9913,-2.9913,-2.9913,-2.9913,-2.9913,-2.9913,-2.986,-2.97,-3.2308,-3.4557,-3.5541,-3.7526,-3.9585,-4.1327,-3.9477,-3.9067,-4.1016,-4.1172,-4.1172,-4.1172,-4.1172,-4.1172,-4.1172,-4.1172,-4.1172,-4.1172,-4.1172,-4.1172,-4.1172,-4.1172,-4.1172,-2.0137,-2.0655,-2.0985,-2.121,-2.1444,-2.166,-2.1935,0.0,0.0,0.0,0.0,0.0,0.0,0.0,0.0,0.0,0.0,0.0,0.0,0.0,0.0,0.0,0.0,0.0,0.0,0.0,0.0,0.0,0.0,0.0,0.0,-3.3374,-3.3347,-3.3347,-3.3026,-3.2826,-3.2772,-3.2866,-3.2786,-3.2545,-3.2505,-3.2478,-3.2478,-3.2438,-3.2278,-3.2038,0.0,0.0,-3.1664,-3.1623,-3.1597,-3.157,-3.1276,-3.1129,-3.1036,-3.0541,-3.0327,-3.0261,-3.0007,-2.9913,-2.9833,-2.9285,-2.9072,-2.8938,-2.8377,-2.8177,-2.819,-2.8457,-2.8577,-2.8671,-2.8911,-2.9232,-2.9539,-2.9793,-2.9887,-2.9913,-2.9913,-2.9913,-2.9913,-2.9913,-2.9913,-2.9913,-2.9913,-2.9953,-2.9967,-2.9927,-3.0299,-3.0491,-3.0437,-3.3762,-3.6439,-3.6608,-3.818,-3.9992,-4.1678,-4.0189,-3.9701,-4.1036,-4.1172,-4.1172,-4.1172,-4.1172,-4.1172,-4.1172,-4.1172,-4.1172,-4.1172,-4.1172,-4.1172,-4.1172,-4.1172,-4.1172,-1.9766,-2.0818,-2.182,-2.2225,-2.2611,-2.2882,0.0,0.0,0.0,0.0,0.0,0.0,0.0,0.0,0.0,0.0,0.0,0.0,0.0,0.0,0.0,0.0,0.0,0.0,0.0,0.0,0.0,0.0,0.0,0.0,0.0,-3.3173,-3.304,-3.304,-3.2519,-3.2118,-3.1877,-3.2358,-3.2585,-3.2545,-3.2291,-3.2171,-3.2158,-3.1917,-3.1784,-3.173,0.0,-3.1704,-3.165,-3.1396,-3.1289,-3.1263,-3.0969,-3.0715,-3.0488,-3.0394,-3.0207,-2.998,-2.9927,-2.9913,-2.986,-2.9526,-2.9245,-2.8978,-2.8644,-2.835,-2.815,-2.8203,-2.8404,-2.8617,-2.8657,-2.9072,-2.9499,-2.9539,-2.974,-2.9913,-2.9913,-2.9913,-2.9913,-2.9913,-2.9913,-2.9913,-2.9913,-3.0127,-3.0207,-2.9953,-3.1704,-3.3176,-3.2896,-3.4988,-3.7132,-3.8812,-3.9425,-4.0288,-4.1697,-4.1791,-4.1655,-4.123,-4.1172,-4.1172,-4.1172,-4.1172,-4.1172,-4.1172,-4.1172,-4.1172,-4.1172,-4.1172,-4.1172,-4.1172,-4.1172,-4.1172,-1.9394,-2.0352,-2.1387,-2.2285,-2.3008,-2.3437,0.0,0.0,0.0,0.0,0.0,0.0,0.0,0.0,0.0,0.0,0.0,0.0,0.0,0.0,0.0,0.0,0.0,0.0,0.0,0.0,0.0,0.0,0.0,0.0,0.0,0.0,-3.2746,-3.2746,-3.2171,-3.1797,-3.1664,-3.1623,-3.1677,-3.1824,-3.169,-3.1717,-3.1864,-3.173,-3.1664,-3.1664,0.0,-3.1423,-3.141,-3.1116,-3.0996,-3.0969,-3.0675,-3.0474,-3.0314,-3.0007,-2.9806,-2.9686,-2.9686,-2.9686,-2.9633,-2.9339,-2.9152,-2.8951,-2.8497,-2.8257,-2.8136,-2.8136,-2.8243,-2.843,-2.8751,-2.9045,-2.9325,-2.9646,-2.982,-2.9913,-2.9913,-2.9913,-2.9913,-2.9913,-3.0047,-3.0154,-3.0154,-3.0408,-3.0541,-3.0408,-3.2304,-3.3814,-3.3664,-3.6453,-3.8962,-3.9802,-4.1175,-4.2124,-4.2539,-4.2441,-4.207,-4.123,-4.1172,-4.1172,-4.1172,-4.1172,-4.1172,-4.1172,-4.1172,-4.1172,-4.1172,-4.1172,-4.1172,-4.1172,-4.1172,-4.1172,-1.9297,-2.0059,-2.1016,-2.2207,0.0,0.0,0.0,0.0,0.0,0.0,0.0,0.0,0.0,0.0,0.0,0.0,0.0,0.0,0.0,0.0,0.0,0.0,0.0,0.0,0.0,0.0,0.0,0.0,0.0,0.0,0.0,0.0,-3.2305,-3.2238,-3.1597,-3.1263,-3.1263,-3.0675,-3.0635,-3.1129,-3.1129,-3.1249,-3.1463,-3.1463,-3.1463,-3.145,-3.1156,-3.1022,-3.0996,-3.0635,-3.0488,-3.0461,-3.0247,-3.0154,-3.0087,-2.9566,-2.9379,-2.9379,-2.9379,-2.9379,-2.9325,-2.9032,-2.8938,-2.8845,-2.831,-2.8136,-2.8136,-2.8136,-2.8136,-2.8283,-2.8885,-2.9085,-2.9272,-2.9793,-2.9913,-2.9913,-2.9913,-2.9913,-2.994,-3.0007,-3.0207,-3.0381,-3.0448,-3.0702,-3.0875,-3.0808,-3.2546,-3.4127,-3.4586,-3.7909,-4.0427,-4.1118,-4.2659,-4.3535,-4.3105,-4.2676,-4.2148,-4.1504,-4.1289,-4.1172,-4.1172,-4.1172,-4.1172,-4.1172,-4.1172,-4.1172,-4.1172,-4.1172,-4.1172,-4.1172,-4.1172,-4.1172,-1.9648,-2.0508,-2.1406,-2.2285,0.0,0.0,0.0,0.0,0.0,0.0,0.0,0.0,0.0,0.0,0.0,0.0,0.0,0.0,0.0,0.0,0.0,0.0,0.0,0.0,0.0,0.0,0.0,0.0,0.0,0.0,0.0,0.0,0.0,-3.133,-3.0488,-3.0047,-3.0047,-2.9459,-2.9726,-3.0822,-3.0822,-3.0835,-3.0849,-3.0849,-3.0849,-3.0835,-3.0555,-3.0421,-3.0381,-2.9806,-2.9579,-2.9579,-2.9553,-2.9539,-2.9513,-2.9192,-2.9072,-2.9072,-2.9072,-2.9072,-2.9018,-2.8738,-2.8644,-2.8577,-2.8243,-2.8136,-2.8136,-2.8136,-2.8136,-2.8283,-2.8885,-2.9245,-2.9526,-2.9847,-2.9913,-2.9913,-2.9913,-2.9913,-2.9993,-3.0274,-3.0341,-3.0448,-3.0715,-3.0996,-3.1102,-3.0835,-3.2731,-3.4922,-3.6723,-3.8958,-4.1118,-4.3195,-4.3526,-4.3535,-4.3105,-4.2676,-4.2402,-4.2344,-4.1601,-4.1172,-4.1172,-4.1172,-4.1172,-4.1172,-4.1172,-4.1172,-4.1172,-4.1172,-4.1172,-4.1172,-4.1172,-4.1172,-1.9434,-2.0566,-2.1777,-2.2363,0.0,0.0,0.0,0.0,0.0,0.0,0.0,0.0,0.0,0.0,0.0,0.0,0.0,0.0,0.0,0.0,0.0,0.0,0.0,0.0,0.0,0.0,0.0,0.0,0.0,0.0,0.0,0.0,0.0,-3.0421,-2.9913,-2.9646,-2.9646,-2.9245,-2.9259,-2.9713,-3.0074,-3.0341,-3.0528,-3.0528,-3.0528,-3.0501,-3.002,-2.982,-2.978,-2.9379,-2.9205,-2.9205,-2.9205,-2.9205,-2.9179,-2.8885,-2.8764,-2.8764,-2.8764,-2.8764,-2.8751,-2.8644,-2.8604,-2.8551,-2.823,-2.8136,-2.8136,-2.8136,-2.8283,-2.8484,-2.8711,-2.8858,-2.9058,-2.9539,-2.9646,-2.97,-2.9873,-3.006,-3.0221,-3.0341,-3.0648,-3.0929,-3.1036,-3.1303,-3.1463,-3.1356,-3.4433,-3.7109,-3.7874,-4.0862,-4.3266,-4.3974,-4.3867,-4.3535,-4.3105,-4.293,-4.2715,-4.2441,-4.2129,-4.1836,-4.1562,-4.1562,-4.1445,-4.1172,-4.1172,-4.1172,-4.1172,-4.1172,-4.1172,-4.1172,-4.1172,-4.1172,-1.9082,-2.0156,-2.1406,-2.1973,0.0,0.0,0.0,0.0,0.0,0.0,0.0,0.0,0.0,0.0,0.0,0.0,0.0,0.0,0.0,0.0,0.0,0.0,0.0,0.0,0.0,0.0,0.0,0.0,0.0,0.0,0.0,0.0,0.0,0.0,-2.9352,-2.9205,-2.9205,-2.8911,-2.8751,-2.8764,-2.9259,-2.9659,-2.994,-2.994,-2.994,-2.9913,-2.9419,-2.9205,-2.9179,-2.8885,-2.8818,-2.8898,-2.8791,-2.8818,-2.8871,-2.8564,-2.8457,-2.8457,-2.8457,-2.8457,-2.8457,-2.8457,-2.8457,-2.8417,-2.8203,-2.8136,-2.8136,-2.8136,-2.8297,-2.8484,-2.8577,-2.8751,-2.9005,-2.9499,-2.9619,-2.9673,-2.9873,-3.0154,-3.0394,-3.0474,-3.0889,-3.1249,-3.1356,-3.153,-3.1664,-3.1664,-3.487,-3.7547,-3.8252,-4.1185,-4.3457,-4.4199,-4.4023,-4.375,-4.332,-4.3281,-4.3144,-4.2851,-4.2715,-4.2383,-4.1816,-4.168,-4.1465,-4.1172,-4.1172,-4.1172,-4.1172,-4.1172,-4.1172,-4.1172,-4.1172,-4.1172,-1.8582,-1.9277,-2.0137,0.0,0.0,0.0,0.0,0.0,0.0,0.0,0.0,0.0,0.0,0.0,0.0,0.0,0.0,0.0,0.0,0.0,0.0,0.0,0.0,0.0,0.0,0.0,0.0,0.0,0.0,0.0,0.0,0.0,0.0,0.0,-2.8751,-2.8604,-2.8604,-2.8297,-2.8136,-2.815,-2.8457,-2.8751,-2.9032,-2.9032,-2.9032,-2.9018,-2.8724,-2.8604,-2.8577,-2.827,-2.8323,-2.8577,-2.827,-2.8337,-2.8564,-2.8257,-2.8136,-2.8136,-2.8136,-2.8136,-2.8136,-2.8136,-2.8136,-2.8136,-2.8136,-2.8136,-2.8136,-2.8136,-2.815,-2.8217,-2.8537,-2.9045,-2.9553,-2.9847,-2.9913,-2.9913,-2.9913,-3.0154,-3.0448,-3.0742,-3.1036,-3.1316,-3.1623,-3.1664,-3.1664,-3.1853,-3.3601,-3.5745,-3.8088,-3.9931,-4.1597,-4.3584,-4.4121,-4.4199,-4.375,-4.3711,-4.3711,-4.3711,-4.3301,-4.2695,-4.1836,-4.1406,-4.1172,-4.1172,-4.1172,-4.1172,-4.1172,-4.1172,-4.1172,-4.1172,-4.1172,-4.1172,-1.9609,0.0,0.0,0.0,0.0,0.0,0.0,0.0,0.0,0.0,0.0,0.0,0.0,0.0,0.0,0.0,0.0,0.0,0.0,0.0,0.0,0.0,0.0,0.0,0.0,0.0,0.0,0.0,0.0,0.0,0.0,0.0,0.0,-2.8417,-2.8323,-2.8283,-2.8283,-2.819,-2.8136,-2.8136,-2.823,-2.8444,-2.8738,-2.8738,-2.8738,-2.8724,-2.8417,-2.8283,-2.827,-2.8177,-2.819,-2.827,-2.8177,-2.8203,-2.827,-2.8177,-2.8136,-2.8136,-2.8136,-2.8136,-2.8136,-2.8136,-2.8136,-2.8136,-2.8136,-2.8136,-2.8136,-2.8136,-2.8297,-2.8537,-2.8831,-2.9192,-2.9499,-2.9593,-2.9619,-2.9726,-3.014,-3.0461,-3.0755,-3.1036,-3.133,-3.211,-3.3844,-3.4233,-3.4779,-3.6606,-3.8894,-4.1086,-4.3172,-4.35,-4.3741,-4.4441,-4.4199,-4.3984,-4.418,-4.3887,-4.3711,-4.3711,-4.3301,-4.2832,-4.2266,-4.1836,-4.1484,-4.1172,-4.1172,-4.1172,-4.1172,-4.1172,-4.1172,-4.1172,-4.1484,-4.1465,-1.9883,0.0,0.0,0.0,0.0,0.0,0.0,0.0,0.0,0.0,0.0,0.0,0.0,0.0,0.0,0.0,0.0,0.0,0.0,0.0,0.0,0.0,0.0,0.0,0.0,0.0,0.0,0.0,0.0,0.0,0.0,0.0,-2.8337,-2.815,-2.803,-2.803,-2.8136,-2.803,-2.803,-2.8136,-2.8136,-2.8243,-2.8417,-2.8417,-2.8417,-2.8417,-2.823,-2.8136,-2.8136,-2.8136,-2.8136,-2.8136,-2.8136,-2.8136,-2.8136,-2.8136,-2.8136,-2.8136,-2.8136,-2.8136,-2.8136,-2.8136,-2.8136,-2.8136,-2.8136,-2.8136,-2.8136,-2.8136,-2.8283,-2.8484,-2.8791,-2.9085,-2.9366,-2.9593,-2.9659,-2.978,-3.0261,-3.0581,-3.0875,-3.1169,-3.2189,-3.3497,-3.4966,-3.6051,-3.7344,-3.8794,-4.0988,-4.3402,-4.5377,-4.5371,-4.5117,-4.5039,-4.4551,-4.4277,-4.4394,-4.3965,-4.3711,-4.3711,-4.3301,-4.2949,-4.2695,-4.2109,-4.1601,-4.1172,-4.1172,-4.1172,-4.1172,-4.1172,-4.1172,-4.1191,-4.1601,-4.166,0.0,0.0,0.0,0.0,0.0,0.0,0.0,0.0,0.0,0.0,0.0,0.0,0.0,0.0,0.0,0.0,0.0,0.0,0.0,0.0,0.0,0.0,0.0,0.0,0.0,0.0,0.0,0.0,0.0,0.0,0.0,-2.8123,-2.8096,-2.8096,-2.7816,-2.7789,-2.8056,-2.7802,-2.7956,-2.8392,-2.8392,-2.8406,-2.8433,-2.8292,-2.8136,-2.8136,-2.8136,-2.8136,-2.8136,-2.8136,-2.8136,-2.8136,-2.8136,-2.8136,-2.8136,-2.8136,-2.8136,-2.8136,-2.8136,-2.8136,-2.8136,-2.8136,-2.8136,-2.8136,-2.8136,-2.8305,-2.8473,-2.8473,-2.8642,-2.8878,-2.9193,-2.9295,-2.9648,-3.0247,-3.0245,-2.9993,-3.0301,-3.0765,-3.1232,-3.1529,-3.383,-3.5695,-3.5881,-3.7879,-3.9358,-3.9721,-4.1511,-4.356,-4.5589,-4.5996,-4.5918,-4.5215,-4.5078,-4.4883,-4.4551,-4.4062,-4.3769,-4.3769,-4.3359,-4.3125,-4.3086,-4.2285,-4.166,-4.123,-4.1269,-4.1269,-4.123,-4.1269,-4.1289,-4.1308,-4.1719,-4.1894,0.0,0.0,0.0,0.0,0.0,0.0,0.0,0.0,0.0,0.0,0.0,0.0,0.0,0.0,0.0,0.0,0.0,0.0,0.0,0.0,0.0,0.0,0.0,0.0,0.0,0.0,0.0,0.0,0.0,0.0,-2.8136,-2.7923,-2.7789,-2.7789,-2.7509,-2.7388,-2.7455,-2.7388,-2.818,0.0,-2.9836,-2.9967,-3.0229,-2.8854,-2.8136,-2.8136,-2.8136,-2.8136,-2.8136,-2.8136,-2.8136,-2.8136,-2.8136,-2.8136,-2.8136,-2.8136,-2.8136,-2.8136,-2.8136,-2.8136,-2.8136,-2.8136,-2.8136,-2.8136,-2.8136,-2.9453,-3.0744,-3.0744,-3.1887,-3.3429,-3.3613,-3.3771,-3.3992,-3.4688,-3.2324,-2.9993,-3.0301,-3.2183,-3.3729,-3.4066,-3.6374,-3.8794,-4.0627,-4.1529,-4.2443,-4.4473,-4.493,-4.5358,-4.6133,-4.5664,-4.5488,-4.5976,-4.543,-4.5117,-4.5371,-4.4687,-4.4258,-4.4258,-4.3828,-4.3418,-4.3086,-4.2578,-4.209,-4.168,-4.1992,-4.1992,-4.166,-4.1992,-4.2148,-4.2168,-4.2598,-4.2617,0.0,0.0,0.0,0.0,0.0,0.0,0.0,0.0,0.0,0.0,0.0,0.0,0.0,0.0,0.0,0.0,0.0,0.0,0.0,0.0,0.0,0.0,0.0,0.0,0.0,0.0,0.0,0.0,0.0,-2.9007,-2.7902,-2.7575,-2.7495,-2.7495,-2.7215,-2.7121,-2.7268,-2.7121,-2.8228,-3.026,-3.026,-3.0991,-3.1962,-2.9255,-2.7936,-2.7923,-2.7789,-2.7722,-2.7722,-2.7722,-2.7722,-2.7722,-2.7722,-2.7802,-2.809,-2.9229,-2.9008,-2.8305,-2.9453,-2.9132,-2.8305,-2.9453,-2.9774,-2.9941,-3.091,-3.2052,-3.3022,-3.3022,-3.3839,-3.4701,-3.4882,-3.518,-3.5543,-3.5906,-3.4424,-3.31,-3.3591,-3.4886,-3.5817,-3.6161,-3.8481,-4.0907,-4.2173,-4.342,-4.4826,-4.6114,-4.6113,-4.6055,-4.6269,-4.5918,-4.5801,-4.625,-4.5723,-4.543,-4.5664,-4.4883,-4.4394,-4.4394,-4.3965,-4.3613,-4.3379,-4.3164,-4.2734,-4.2109,-4.2305,-4.2324,-4.2109,-4.2324,-4.2422,-4.2441,-4.2871,-4.2949,0.0,0.0,0.0,0.0,0.0,0.0,0.0,0.0,0.0,0.0,0.0,0.0,0.0,0.0,0.0,0.0,0.0,0.0,0.0,0.0,0.0,0.0,0.0,0.0,0.0,0.0,0.0,0.0,0.0,-2.9908,-2.7907,-2.7378,-2.7188,-2.7188,-2.6907,-2.6867,-2.7108,-2.7176,-2.8429,-3.0718,-3.1097,-3.2221,-3.3652,-3.0145,-2.8373,-2.8084,-2.7525,-2.7268,-2.7268,-2.7268,-2.7268,-2.7268,-2.7268,-2.7415,-2.796,-3.0098,-2.9957,-2.9049,-3.1212,-3.0759,-2.9621,-3.1407,-3.2052,-3.2381,-3.4164,-3.4975,-3.5298,-3.5298,-3.5477,-3.5799,-3.5799,-3.6242,-3.6737,-3.6856,-3.7129,-3.7234,-3.7301,-3.7517,-3.7999,-3.8284,-4.0597,-4.2517,-4.2572,-4.4679,-4.6211,-4.6289,-4.6308,-4.6308,-4.6308,-4.6308,-4.6308,-4.6308,-4.5996,-4.5781,-4.5781,-4.5058,-4.4609,-4.4609,-4.418,-4.3926,-4.3926,-4.3926,-4.3555,-4.2773,-4.2695,-4.2617,-4.2539,-4.2617,-4.2637,-4.2656,-4.3027,-4.3183,0.0,0.0,0.0,0.0,0.0,0.0,0.0,0.0,0.0,0.0,0.0,0.0,0.0,0.0,0.0,0.0,0.0,0.0,0.0,0.0,0.0,0.0,0.0,0.0,0.0,0.0,0.0,0.0,-3.2507,-3.0319,-2.9954,-2.7956,-2.6881,-2.6881,-2.66,-2.6466,-2.6507,-2.8147,-3.0144,-3.2195,-3.4196,-3.544,-3.561,-3.3321,-3.1321,-2.9851,-2.807,-2.7268,-2.7268,-2.7268,-2.7268,-2.7268,-2.7268,-2.7295,-2.7676,-3.0173,-3.078,-3.1018,-3.3417,-3.4002,-3.3839,-3.4164,-3.4327,-3.4327,-3.4651,-3.596,-3.7419,-3.7419,-3.8882,-4.0353,-4.0353,-4.043,-4.0698,-4.1407,-4.1456,-4.0726,-3.7605,-3.8718,-4.0357,-4.0411,-4.2683,-4.4701,-4.5068,-4.553,-4.5879,-4.625,-4.6308,-4.6308,-4.6308,-4.6308,-4.6308,-4.6308,-4.625,-4.6211,-4.6211,-4.5781,-4.5508,-4.5508,-4.5098,-4.4844,-4.4844,-4.4844,-4.4629,-4.4141,-4.373,-4.3359,-4.2988,-4.3359,-4.3535,-4.3535,-4.3594,-4.3613,0.0,0.0,0.0,0.0,0.0,0.0,0.0,0.0,0.0,0.0,0.0,0.0,0.0,0.0,0.0,0.0,0.0,0.0,0.0,0.0,0.0,0.0,0.0,0.0,0.0,0.0,0.0,0.0,-3.3331,-3.2017,-2.9359,-2.8284,-2.7156,-2.6092,-2.5959,-2.5905,-2.5905,-2.6807,-2.8743,-3.1878,-3.5428,-3.701,-3.6657,-3.5121,-3.3379,-3.17,-2.9498,-2.8488,-2.833,-2.7241,-2.6774,-2.6774,-2.6774,-2.6881,-2.7499,-3.0938,-3.1585,-3.1158,-3.4878,-3.5316,-3.4548,-3.6052,-3.6442,-3.6762,-3.7914,-3.904,-3.9707,-3.9707,-4.0509,-4.1172,-4.1172,-4.1348,-4.168,-4.2285,-4.2617,-4.2442,-4.0989,-4.1621,-4.2499,-4.2763,-4.3837,-4.4805,-4.5234,-4.5508,-4.5742,-4.5918,-4.6152,-4.6308,-4.6308,-4.6308,-4.6308,-4.6308,-4.6308,-4.6308,-4.6308,-4.5918,-4.5683,-4.5683,-4.5273,-4.5019,-4.5019,-4.5019,-4.4824,-4.4414,-4.4199,-4.3867,-4.3437,-4.3613,-4.3711,-4.3711,-4.3711,-4.3711,0.0,0.0,0.0,0.0,0.0,0.0,0.0,0.0,0.0,0.0,0.0,0.0,0.0,0.0,0.0,0.0,0.0,0.0,0.0,0.0,0.0,0.0,0.0,0.0,0.0,0.0,0.0,0.0,-3.3986,-3.3613,-3.0118,-2.8926,-2.774,-2.6254,-2.581,-2.5518,-2.5518,-2.6544,-2.9045,-3.3006,-3.6112,-3.7598,-3.7324,-3.6431,-3.5222,-3.3837,-3.07,-2.9449,-2.9293,-2.7148,-2.6386,-2.6386,-2.7004,-2.7286,-2.7955,-3.2227,-3.3043,-3.2395,-3.667,-3.6988,-3.5939,-3.8104,-3.8724,-3.904,-4.0685,-4.1172,-4.1172,-4.1172,-4.1172,-4.1172,-4.1172,-4.1406,-4.1777,-4.2305,-4.2676,-4.3047,-4.3594,-4.3711,-4.3808,-4.416,-4.4219,-4.4355,-4.4785,-4.5137,-4.5391,-4.5488,-4.5879,-4.6152,-4.6152,-4.623,-4.6308,-4.6308,-4.6308,-4.6308,-4.6308,-4.6016,-4.5781,-4.5683,-4.5469,-4.5312,-4.5195,-4.5293,-4.5098,-4.457,-4.4551,-4.4277,-4.3711,-4.3828,-4.3828,-4.3711,-4.3711,-4.4021,0.0,0.0,0.0,0.0,0.0,0.0,0.0,0.0,0.0,0.0,0.0,0.0,0.0,0.0,0.0,0.0,0.0,0.0,0.0,0.0,0.0,0.0,0.0,0.0,0.0,0.0,0.0,0.0,-3.4216,-3.4216,-3.3892,-3.0383,-2.8327,-2.8192,-2.6406,-2.5518,-2.5518,-2.9179,-3.3006,-3.7003,-3.7164,-3.7324,-3.7305,-3.7202,-3.7222,-3.6836,-3.1588,-2.9449,-2.9293,-2.7148,-2.6386,-2.6544,-2.853,-2.9308,-2.9819,-3.4298,-3.5995,-3.629,-3.928,-4.0201,-4.0279,-4.086,-4.1016,-4.1016,-4.1172,-4.1172,-4.1172,-4.1172,-4.1172,-4.1172,-4.1172,-4.1191,-4.1406,-4.2226,-4.2441,-4.2695,-4.3516,-4.3711,-4.3711,-4.373,-4.373,-4.3887,-4.4355,-4.4453,-4.4609,-4.5,-4.543,-4.5703,-4.5703,-4.6055,-4.6308,-4.6308,-4.6308,-4.6308,-4.6308,-4.6289,-4.6094,-4.5703,-4.6035,-4.6055,-4.5664,-4.6016,-4.584,-4.5,-4.5,-4.457,-4.3711,-4.4141,-4.4141,-4.3711,-4.3711,-4.4822,0.0,0.0,0.0,0.0,0.0,0.0,0.0,0.0,0.0,0.0,0.0,0.0,0.0,0.0,0.0,0.0,0.0,0.0,0.0,0.0,0.0,0.0,0.0,0.0,0.0,0.0,0.0,0.0,0.0,-3.4084,-3.1148,-2.9731,-2.8426,-2.736,-2.5667,-2.4756,-2.4943,-2.7555,-3.0274,-3.2862,-3.428,-3.5565,-3.6504,-3.7051,-3.7148,-3.6774,-3.3797,-3.2672,-3.2725,-2.9426,-2.8201,-2.853,-3.0515,-3.0515,-2.9913,-3.4156,-3.5731,-3.6121,-3.8686,-3.9863,-4.0195,-4.0605,-4.0937,-4.1172,-4.1172,-4.1172,-4.1172,-4.1172,-4.1172,-4.1172,-4.1172,-4.1172,-4.1387,-4.2226,-4.2422,-4.2656,-4.3516,-4.3711,-4.3711,-4.3711,-4.3711,-4.375,-4.3926,-4.4199,-4.4453,-4.459,-4.498,-4.5254,-4.5254,-4.5391,-4.5586,-4.5859,-4.5898,-4.5898,-4.5898,-4.6152,-4.6133,-4.5703,-4.6074,-4.623,-4.6094,-4.623,-4.6035,-4.5449,-4.5703,-4.5137,-4.3711,-4.3867,-4.3867,-4.3711,-4.3711,-4.4822,-2.2695,0.0,0.0,0.0,0.0,0.0,0.0,0.0,0.0,0.0,0.0,0.0,0.0,0.0,0.0,0.0,0.0,0.0,0.0,0.0,0.0,0.0,0.0,0.0,0.0,0.0,0.0,0.0,0.0,0.0,-3.1173,-3.0462,-2.9077,-2.6803,-2.5027,-2.4431,-2.5319,-2.7161,-2.9042,-3.1128,-3.3224,-3.4859,-3.6035,-3.6601,-3.6719,-3.6327,-3.4704,-3.4252,-3.443,-3.1167,-2.9883,-3.0345,-3.2458,-3.2525,-3.1863,-3.5199,-3.6571,-3.6793,-3.858,-3.9512,-3.9961,-4.0391,-4.082,-4.1172,-4.1172,-4.1172,-4.1172,-4.1172,-4.1172,-4.1172,-4.1172,-4.1269,-4.1523,-4.209,-4.2324,-4.2578,-4.3144,-4.3398,-4.3535,-4.3672,-4.3711,-4.3711,-4.3711,-4.3965,-4.416,-4.416,-4.4531,-4.4824,-4.4824,-4.4941,-4.5137,-4.543,-4.5449,-4.5449,-4.5449,-4.584,-4.5859,-4.5273,-4.5918,-4.6172,-4.5879,-4.6152,-4.6113,-4.5683,-4.5801,-4.5234,-4.3945,-4.4082,-4.4004,-4.3711,-4.4383,-4.6309,0.0,0.0,0.0,0.0,0.0,0.0,0.0,0.0,0.0,0.0,0.0,0.0,0.0,0.0,0.0,0.0,0.0,0.0,0.0,0.0,0.0,0.0,0.0,0.0,0.0,0.0,0.0,0.0,-3.1003,-3.2781,-3.4517,-3.2914,-3.0191,-2.6474,-2.472,-2.4734,-2.6489,-2.8138,-3.0241,-3.2557,-3.4374,-3.5451,-3.5976,-3.5996,-3.5996,-3.586,-3.402,-3.3603,-3.4145,-3.2098,-3.1449,-3.211,-3.4186,-3.5172,-3.5812,-3.7805,-3.8574,-3.8633,-3.9043,-3.9492,-3.9961,-4.0371,-4.0801,-4.1172,-4.1172,-4.1172,-4.1172,-4.1172,-4.1172,-4.1172,-4.1172,-4.1484,-4.1777,-4.1797,-4.2109,-4.2402,-4.2422,-4.2754,-4.3164,-4.3574,-4.3672,-4.3672,-4.3691,-4.3691,-4.3691,-4.3711,-4.4082,-4.4375,-4.4375,-4.4726,-4.5,-4.5,-4.5,-4.5,-4.5,-4.541,-4.5312,-4.4473,-4.5605,-4.5937,-4.5098,-4.5859,-4.6113,-4.5703,-4.5273,-4.4863,-4.4433,-4.4805,-4.4551,-4.3915,-4.6084,-4.9315,-2.2519,0.0,0.0,0.0,0.0,0.0,0.0,0.0,0.0,0.0,0.0,0.0,0.0,0.0,0.0,0.0,0.0,0.0,0.0,0.0,0.0,0.0,0.0,0.0,0.0,0.0,0.0,0.0,-2.9798,-3.1702,-3.1912,-3.1534,-2.9798,-2.6283,-2.5827,-2.5271,-2.4593,-2.5003,-2.6968,-3.0207,-3.0634,-3.2331,-3.5078,-3.541,-3.5566,-3.5586,-3.5316,-3.5291,-3.5382,-3.3783,-3.3423,-3.4186,-3.6267,-3.6365,-3.5812,-3.7805,-3.8574,-3.8594,-3.8711,-3.9258,-3.9922,-4.0039,-4.0566,-4.1172,-4.1172,-4.1172,-4.1172,-4.1172,-4.1172,-4.1172,-4.1172,-4.125,-4.1426,-4.1719,-4.166,-4.168,-4.2285,-4.2285,-4.2285,-4.2695,-4.2773,-4.2891,-4.3203,-4.3242,-4.3359,-4.3652,-4.3808,-4.3887,-4.3887,-4.4004,-4.4199,-4.4531,-4.457,-4.457,-4.457,-4.5254,-4.5449,-4.4883,-4.5762,-4.6191,-4.5957,-4.6172,-4.625,-4.6133,-4.6016,-4.5742,-4.5312,-4.4473,-4.4806,-4.6105,-4.9778,-5.2017,-2.2601,-2.2949,0.0,0.0,0.0,0.0,-2.3561,-2.487,-2.5459,0.0,0.0,0.0,0.0,0.0,0.0,0.0,0.0,0.0,0.0,0.0,0.0,0.0,0.0,0.0,0.0,-2.447,-2.5186,-2.568,-2.8196,-3.0223,-3.1574,-3.1029,-2.9909,-2.8061,-2.7462,-2.636,-2.4484,-2.5302,-2.6435,-2.7915,-2.9412,-3.1399,-3.3634,-3.4696,-3.5215,-3.541,-3.5644,-3.5859,-3.5899,-3.513,-3.5041,-3.5762,-3.6958,-3.7019,-3.6623,-3.7846,-3.8418,-3.8574,-3.8574,-3.916,-3.9902,-3.9902,-4.0469,-4.1172,-4.1172,-4.1172,-4.1172,-4.1172,-4.1172,-4.1172,-4.1172,-4.1172,-4.123,-4.1484,-4.1348,-4.1308,-4.1797,-4.1719,-4.1719,-4.2305,-4.2422,-4.25,-4.2754,-4.2949,-4.3164,-4.3398,-4.3594,-4.3711,-4.3711,-4.3711,-4.3808,-4.4082,-4.4101,-4.4101,-4.4101,-4.4746,-4.5039,-4.4785,-4.5566,-4.6035,-4.6035,-4.6211,-4.6308,-4.6308,-4.6133,-4.622,-4.6522,-4.5817,-4.6948,-4.9555,-5.2,-5.363,-2.2403,-2.2687,-2.2948,0.0,0.0,0.0,-2.4609,-2.4902,-2.4679,0.0,0.0,0.0,0.0,0.0,0.0,0.0,0.0,0.0,0.0,0.0,0.0,0.0,0.0,0.0,-2.2792,-2.2902,-2.3826,-2.5531,-2.6939,-2.9136,-3.2572,-3.129,-3.0556,-3.0627,-2.9093,-2.7538,-2.5725,-2.719,-2.7366,-2.6496,-2.9577,-3.1379,-3.1987,-3.3783,-3.4863,-3.5254,-3.5351,-3.5605,-3.5957,-3.5996,-3.6269,-3.668,-3.668,-3.7187,-3.793,-3.793,-3.8203,-3.8574,-3.8574,-3.9121,-3.9824,-3.9883,-4.0449,-4.1113,-4.1152,-4.1172,-4.1172,-4.1172,-4.1172,-4.1172,-4.1172,-4.1172,-4.1172,-4.1172,-4.1172,-4.1172,-4.1172,-4.1172,-4.1387,-4.2148,-4.2285,-4.2324,-4.248,-4.2773,-4.3047,-4.3125,-4.3457,-4.3711,-4.3711,-4.3711,-4.3711,-4.3711,-4.3711,-4.3711,-4.3711,-4.4141,-4.4394,-4.4394,-4.5156,-4.5625,-4.5683,-4.6035,-4.625,-4.6308,-4.6264,-4.6744,-4.8004,-4.8171,-4.9954,-5.3139,-5.3317,-5.4474,0.0,0.0,0.0,0.0,0.0,0.0,-2.3268,-2.3789,-2.3798,0.0,0.0,0.0,0.0,0.0,0.0,0.0,0.0,0.0,0.0,0.0,0.0,0.0,0.0,0.0,-2.2191,-2.3314,-2.4855,-2.6665,-2.9582,-3.1558,-3.2285,-3.2021,-3.1162,-2.9815,-2.944,-2.857,-2.7068,-2.6036,-2.6339,-2.7882,-2.8543,-2.963,-3.1154,-3.323,-3.4238,-3.4375,-3.5078,-3.543,-3.5547,-3.5879,-3.6269,-3.668,-3.668,-3.7187,-3.793,-3.793,-3.8203,-3.8574,-3.8574,-3.8906,-3.9394,-3.9766,-4.0234,-4.0723,-4.1074,-4.1172,-4.1172,-4.1172,-4.1172,-4.1172,-4.1172,-4.1172,-4.1172,-4.1172,-4.1172,-4.1172,-4.1172,-4.1172,-4.123,-4.1387,-4.1426,-4.1738,-4.2773,-4.2734,-4.2793,-4.3476,-4.3652,-4.3711,-4.3711,-4.3711,-4.3711,-4.3711,-4.3711,-4.3711,-4.3711,-4.4141,-4.4394,-4.4394,-4.4883,-4.5312,-4.5664,-4.5762,-4.5957,-4.6289,-4.8057,-4.9427,-5.0586,-4.9927,-5.0766,-5.3201,-5.477,-5.5751,0.0,0.0,0.0,-2.0446,0.0,0.0,0.0,-2.3012,-2.3306,0.0,0.0,0.0,0.0,0.0,0.0,0.0,0.0,0.0,0.0,0.0,0.0,0.0,0.0,0.0,-2.2004,-2.3379,-2.5233,-2.7552,-2.9465,-3.0952,-3.1836,-3.1836,-3.1552,-3.087,-3.087,-3.008,-2.8501,-2.7594,-2.7309,-2.7506,-2.8725,-2.9713,-3.0628,-3.2753,-3.3867,-3.4101,-3.4551,-3.4863,-3.5078,-3.5527,-3.584,-3.6055,-3.6269,-3.6855,-3.7617,-3.7617,-3.8027,-3.8574,-3.8574,-3.8848,-3.9277,-3.9746,-4.0176,-4.0605,-4.1035,-4.1172,-4.1172,-4.1172,-4.1172,-4.1172,-4.1172,-4.1172,-4.1172,-4.1172,-4.1172,-4.1172,-4.1172,-4.1172,-4.123,-4.1445,-4.1308,-4.1445,-4.2305,-4.2266,-4.2402,-4.3262,-4.3398,-4.3398,-4.3398,-4.3574,-4.3633,-4.3418,-4.3574,-4.3711,-4.3711,-4.3926,-4.4141,-4.4375,-4.459,-4.4902,-4.5332,-4.5566,-4.6378,-4.7946,-4.879,-5.0508,-5.2901,-5.2194,-5.2862,-5.4719,-5.5726,-5.6219,0.0,0.0,0.0,0.0,0.0,-2.1112,0.0,0.0,0.0,0.0,0.0,0.0,0.0,0.0,0.0,0.0,0.0,0.0,0.0,0.0,0.0,0.0,0.0,0.0,0.0,-2.3148,-2.5246,-2.8683,-2.8781,-2.9444,-3.1268,-3.1406,-3.1562,-3.1914,-3.1934,-3.1328,-2.9861,-2.9614,-2.8764,-2.747,-2.9168,-3.0122,-3.0339,-3.2352,-3.3535,-3.3945,-3.4043,-3.4258,-3.4629,-3.5176,-3.5391,-3.543,-3.5859,-3.6484,-3.7187,-3.7266,-3.7793,-3.8457,-3.8555,-3.8789,-3.916,-3.9609,-4.0098,-4.0605,-4.1035,-4.1172,-4.1172,-4.1172,-4.1172,-4.1172,-4.1172,-4.1172,-4.1172,-4.1172,-4.1172,-4.1172,-4.1172,-4.1172,-4.1269,-4.1621,-4.1465,-4.1445,-4.1953,-4.1973,-4.2207,-4.3066,-4.3203,-4.3164,-4.3086,-4.3379,-4.3457,-4.3105,-4.3379,-4.3613,-4.3691,-4.3711,-4.3867,-4.4238,-4.4258,-4.4453,-4.4883,-4.5635,-4.7399,-4.9976,-5.0182,-5.17,-5.467,-5.4775,-5.5386,-5.6369,-5.6369,-5.642,0.0,0.0,0.0,0.0,-1.92,0.0,0.0,0.0,0.0,0.0,0.0,0.0,0.0,0.0,0.0,0.0,0.0,0.0,0.0,0.0,0.0,0.0,0.0,0.0,0.0,-2.3093,-2.5222,-3.0255,-2.8997,-2.8978,-3.082,-3.0957,-3.0976,-3.1035,-3.1035,-3.1093,-3.1204,-2.972,-2.9011,-2.9226,-2.9511,-2.9851,-3.0194,-3.2066,-3.3105,-3.3516,-3.3906,-3.4101,-3.4219,-3.5059,-3.5391,-3.543,-3.5859,-3.6309,-3.6777,-3.7168,-3.7598,-3.8047,-3.8437,-3.8613,-3.8711,-3.9141,-3.9844,-4.0605,-4.1035,-4.1172,-4.1172,-4.1172,-4.1172,-4.1172,-4.1172,-4.1172,-4.1172,-4.1172,-4.1172,-4.1172,-4.1172,-4.1172,-4.1191,-4.123,-4.1504,-4.1992,-4.2793,-4.2617,-4.2656,-4.3496,-4.3633,-4.3496,-4.3125,-4.3125,-4.3125,-4.3086,-4.3125,-4.3301,-4.3672,-4.3711,-4.373,-4.3789,-4.3789,-4.3984,-4.4453,-4.6634,-4.9022,-5.1782,-5.3704,-5.4721,-5.467,-5.6958,-5.775,-5.6947,-5.6947,-5.7223,0.0,0.0,0.0,0.0,0.0,0.0,0.0,0.0,-2.2315,0.0,0.0,0.0,0.0,0.0,0.0,0.0,-2.2876,0.0,0.0,0.0,0.0,0.0,0.0,0.0,0.0,0.0,0.0,0.0,-2.8521,-2.9069,-3.0449,-3.0488,-3.0605,-3.0879,-3.0898,-3.0976,-3.1152,-3.0405,-3.0125,-3.0294,-3.054,-3.0747,-3.1039,-3.1938,-3.2656,-3.3066,-3.3262,-3.3476,-3.375,-3.4375,-3.4766,-3.5039,-3.5488,-3.6074,-3.6719,-3.7148,-3.7559,-3.7988,-3.8418,-3.8574,-3.8691,-3.9375,-4.0019,-4.0605,-4.1035,-4.1172,-4.1172,-4.1172,-4.1172,-4.1172,-4.1172,-4.1172,-4.1172,-4.1172,-4.1172,-4.1172,-4.1172,-4.1172,-4.1172,-4.1172,-4.1504,-4.1992,-4.2598,-4.2539,-4.2715,-4.3574,-4.3281,-4.2891,-4.2715,-4.2695,-4.2695,-4.2695,-4.293,-4.3242,-4.3672,-4.3711,-4.3711,-4.3711,-4.4802,-4.5923,-4.6657,-4.8783,-5.15,-5.4395,-5.5381,-5.6275,-5.6903,-5.8121,-5.8478,-5.8001,-5.7675,-5.7675,-1.7208,0.0,0.0,0.0,0.0,0.0,0.0,0.0,0.0,0.0,0.0,0.0,0.0,0.0,-2.4025,-2.2793,0.0,-2.2852,0.0,0.0,0.0,0.0,0.0,0.0,0.0,0.0,0.0,0.0,0.0,-2.8487,-2.9805,-2.9961,-3.0234,-3.0684,-3.082,-3.0898,-3.0898,-3.0898,-3.0898,-3.0898,-3.1191,-3.1406,-3.1523,-3.1836,-3.2285,-3.2793,-3.2793,-3.3027,-3.3457,-3.4023,-3.4434,-3.4766,-3.5332,-3.5937,-3.6562,-3.709,-3.748,-3.7832,-3.8379,-3.8574,-3.8711,-3.9609,-4.0098,-4.0449,-4.1016,-4.1172,-4.1172,-4.1172,-4.1172,-4.1172,-4.1172,-4.1172,-4.1172,-4.1172,-4.1172,-4.1172,-4.1172,-4.1172,-4.1172,-4.1172,-4.1504,-4.1933,-4.2344,-4.2422,-4.2676,-4.3418,-4.3008,-4.2519,-4.2285,-4.2344,-4.2422,-4.2422,-4.2715,-4.3125,-4.3652,-4.3711,-4.375,-4.3887,-4.5902,-4.7863,-4.9011,-5.1121,-5.379,-5.6818,-5.6818,-5.7458,-5.873,-5.8855,-5.8855,-5.8704,-5.8303,-5.8202,0.0,0.0,0.0,-1.7862,0.0,0.0,0.0,0.0,-1.9725,0.0,0.0,0.0,0.0,-2.356,-2.4025,-2.2793,-2.2297,0.0,0.0,0.0,0.0,0.0,0.0,0.0,0.0,0.0,0.0,0.0,0.0,0.0,-2.8797,-2.9355,-2.9785,-3.0215,-3.0644,-3.0898,-3.0898,-3.0898,-3.0898,-3.0898,-3.0898,-3.1133,-3.1523,-3.1523,-3.1992,-3.2793,-3.2793,-3.3027,-3.3496,-3.4336,-3.4687,-3.4785,-3.5664,-3.6016,-3.6152,-3.6992,-3.7305,-3.7441,-3.8281,-3.8574,-3.8711,-3.9609,-3.9902,-4.0078,-4.0918,-4.1172,-4.1172,-4.1172,-4.1172,-4.1172,-4.1172,-4.1172,-4.1172,-4.1172,-4.1172,-4.1172,-4.1172,-4.1172,-4.1172,-4.1172,-4.1504,-4.1933,-4.2344,-4.2422,-4.2578,-4.3027,-4.3086,-4.2754,-4.1933,-4.2168,-4.2422,-4.2422,-4.2441,-4.2793,-4.3633,-4.3711,-4.3887,-4.4355,-4.6844,-4.9175,-5.1282,-5.3371,-5.5888,-5.8577,-5.8577,-5.8577,-5.873,-5.9232,-5.9207,-5.873,-5.8704,-5.8956,0.0,0.0,-1.9466,-1.8664,0.0,0.0,0.0,0.0,0.0,0.0,0.0,0.0,0.0,-2.2287,-2.2016,-2.0265,-2.1251,-2.1608,0.0,-1.9477,0.0,0.0,0.0,0.0,0.0,0.0,0.0,0.0,0.0,0.0,0.0,-2.7891,-2.9043,-2.9766,-3.0215,-3.0586,-3.0879,-3.0898,-3.0898,-3.0898,-3.0898,-3.0957,-3.1113,-3.1387,-3.1836,-3.2402,-3.2676,-3.3027,-3.3476,-3.4043,-3.4453,-3.4766,-3.5371,-3.5957,-3.6523,-3.709,-3.7305,-3.7422,-3.8281,-3.8574,-3.8711,-3.9609,-3.9902,-4.0059,-4.0918,-4.1172,-4.1172,-4.1172,-4.1172,-4.1172,-4.1172,-4.1172,-4.1172,-4.1172,-4.1172,-4.1172,-4.1172,-4.1172,-4.1172,-4.1172,-4.1504,-4.1836,-4.1992,-4.2246,-4.2578,-4.3008,-4.3086,-4.2773,-4.1914,-4.2168,-4.2422,-4.2422,-4.2695,-4.3086,-4.3652,-4.4985,-4.584,-4.6004,-4.9751,-5.2553,-5.3529,-5.596,-5.7888,-5.9207,-5.9232,-5.9232,-5.9232,-5.9408,-5.9408,-5.9232,-5.9232,-5.9332,-1.9065,-1.9345,0.0,-1.9199,-1.9225,0.0,-1.8517,0.0,0.0,0.0,0.0,0.0,0.0,-2.1517,-2.1059,-1.9208,-2.0475,-2.1002,0.0,-1.8688,0.0,0.0,0.0,0.0,0.0,0.0,0.0,0.0,0.0,0.0,0.0,0.0,-2.8301,-2.9297,-2.9902,-3.043,-3.0879,-3.0898,-3.0898,-3.0898,-3.0898,-3.0898,-3.0898,-3.1328,-3.1758,-3.2187,-3.2617,-3.3125,-3.3691,-3.4121,-3.4551,-3.498,-3.5449,-3.5957,-3.6504,-3.709,-3.75,-3.7832,-3.8379,-3.8574,-3.8711,-3.9609,-3.9902,-4.0059,-4.0918,-4.1172,-4.1211,-4.1348,-4.1289,-4.1211,-4.1348,-4.1289,-4.1172,-4.1172,-4.1172,-4.1172,-4.1172,-4.1172,-4.1172,-4.1172,-4.1387,-4.1621,-4.1777,-4.2031,-4.2344,-4.2773,-4.2851,-4.2598,-4.1894,-4.2168,-4.2422,-4.2422,-4.2812,-4.3568,-4.4782,-4.6852,-4.8221,-4.82,-5.2143,-5.4598,-5.4931,-5.7555,-5.9257,-5.9784,-5.9583,-5.9583,-5.9784,-5.9583,-5.9483,-5.9483,-5.9483,-5.9408]}]]